[[{"header":{"parameterUnit":"m.s-1","parameterCategory":1,"la1":30.6,"la2":29.2853,"lo1":-89.7004,"lo2":-87.6739,"dy":0.0162,"dx":0.0183,"nx":112,"ny":82,"refTime":"2026-03-06T00:00:00:Z","depth":0,"parameterNumber":2,"parameterNumberName":"U-component_of_WINDS"},"data":[0.0,0.0,0.0,0.0,0.0,0.0,0.0,0.0,0.0,0.0,0.0,0.0,0.0,0.0,0.0,0.0,0.0,0.0,0.0,0.0,0.0,0.0,0.0,0.0,0.0,0.0,0.0,0.0,0.0,0.0,0.0,0.0,0.0,0.0,0.0,0.0,0.0,0.0,0.0,0.0,0.0,0.0,0.0,0.0,0.0,0.0,0.0,0.0,0.0,0.0,0.0,0.0,0.0,0.0,0.0,0.0,0.0,0.0,0.0,0.0,0.0,0.0,0.0,0.0,0.0,0.0,0.0,0.0,0.0,0.0,0.0,0.0,0.0,0.0,0.0,0.0,0.0,0.0,0.0,0.0,0.0,0.0,0.0,0.0,0.0,0.0,0.0,0.0,0.0,0.0,0.0,-2.215,-2.4046,-2.4511,-2.2943,-2.2702,-2.1468,-1.8716,0.0,0.0,0.0,0.0,0.0,0.0,0.0,0.0,0.0,0.0,0.0,0.0,0.0,0.0,0.0,0.0,0.0,0.0,0.0,0.0,0.0,0.0,0.0,0.0,0.0,0.0,0.0,0.0,0.0,0.0,0.0,0.0,0.0,0.0,0.0,0.0,0.0,0.0,0.0,0.0,0.0,0.0,0.0,0.0,0.0,0.0,0.0,0.0,0.0,0.0,0.0,0.0,0.0,0.0,0.0,0.0,0.0,0.0,0.0,0.0,0.0,0.0,0.0,0.0,0.0,0.0,0.0,0.0,0.0,0.0,0.0,0.0,0.0,0.0,0.0,0.0,0.0,0.0,0.0,0.0,0.0,0.0,0.0,0.0,0.0,0.0,0.0,0.0,0.0,0.0,0.0,0.0,0.0,0.0,0.0,0.0,0.0,0.0,0.0,0.0,0.0,0.0,0.0,0.0,-1.8942,-2.235,-2.3267,-2.3293,-2.2461,-2.1873,-2.0603,-1.8392,0.0,0.0,0.0,0.0,0.0,0.0,0.0,0.0,0.0,0.0,0.0,0.0,0.0,0.0,0.0,0.0,0.0,0.0,0.0,0.0,0.0,0.0,0.0,0.0,0.0,0.0,0.0,0.0,0.0,0.0,0.0,0.0,0.0,0.0,0.0,0.0,0.0,0.0,0.0,0.0,0.0,0.0,0.0,0.0,0.0,0.0,0.0,0.0,0.0,0.0,0.0,0.0,0.0,0.0,0.0,0.0,0.0,0.0,0.0,0.0,0.0,0.0,0.0,0.0,0.0,0.0,0.0,0.0,0.0,0.0,0.0,0.0,0.0,0.0,0.0,0.0,0.0,0.0,0.0,0.0,0.0,0.0,0.0,0.0,0.0,0.0,0.0,0.0,0.0,0.0,0.0,0.0,0.0,0.0,0.0,0.0,0.0,0.0,0.0,0.0,0.0,0.0,0.0,-1.8751,-2.0256,-2.2318,-2.2983,-2.3025,-2.2347,-2.1689,-2.0408,-1.833,-1.7033,0.0,0.0,0.0,0.0,0.0,0.0,0.0,0.0,0.0,0.0,0.0,0.0,0.0,0.0,0.0,0.0,0.0,0.0,0.0,0.0,0.0,0.0,0.0,0.0,0.0,0.0,0.0,0.0,0.0,0.0,0.0,0.0,0.0,0.0,0.0,0.0,0.0,0.0,0.0,0.0,0.0,0.0,0.0,0.0,0.0,0.0,0.0,0.0,0.0,0.0,0.0,0.0,0.0,0.0,0.0,0.0,0.0,0.0,0.0,0.0,0.0,0.0,0.0,0.0,0.0,0.0,0.0,0.0,0.0,0.0,0.0,0.0,0.0,0.0,0.0,0.0,0.0,0.0,0.0,0.0,0.0,0.0,0.0,0.0,0.0,0.0,0.0,0.0,0.0,0.0,0.0,0.0,0.0,0.0,0.0,0.0,0.0,0.0,0.0,0.0,0.0,0.0,-2.0342,-2.1673,-2.2028,-2.2655,-2.2778,-2.2135,-2.1304,-2.0087,-1.8315,-1.6793,0.0,0.0,0.0,0.0,0.0,0.0,0.0,0.0,0.0,0.0,0.0,0.0,0.0,0.0,0.0,0.0,0.0,0.0,0.0,0.0,0.0,0.0,0.0,0.0,0.0,0.0,0.0,0.0,0.0,0.0,0.0,0.0,0.0,0.0,0.0,0.0,0.0,0.0,0.0,0.0,0.0,0.0,0.0,0.0,0.0,0.0,0.0,0.0,0.0,0.0,0.0,0.0,0.0,0.0,0.0,0.0,0.0,0.0,0.0,0.0,0.0,0.0,0.0,0.0,0.0,0.0,0.0,0.0,0.0,0.0,0.0,0.0,0.0,0.0,0.0,0.0,0.0,0.0,0.0,0.0,0.0,0.0,0.0,0.0,0.0,0.0,0.0,0.0,0.0,0.0,0.0,0.0,0.0,0.0,0.0,0.0,0.0,0.0,0.0,0.0,0.0,0.0,-2.0316,-2.2012,-2.1427,-2.1981,-2.2105,-2.1427,-2.0181,-1.9085,-1.8253,-1.6348,0.0,0.0,0.0,0.0,0.0,0.0,0.0,0.0,0.0,0.0,0.0,0.0,0.0,0.0,0.0,0.0,0.0,0.0,0.0,0.0,0.0,0.0,0.0,0.0,0.0,0.0,0.0,0.0,0.0,0.0,0.0,0.0,0.0,0.0,0.0,0.0,0.0,0.0,0.0,0.0,0.0,0.0,0.0,0.0,0.0,0.0,0.0,0.0,0.0,0.0,0.0,0.0,0.0,0.0,0.0,0.0,0.0,0.0,0.0,0.0,0.0,0.0,0.0,0.0,0.0,0.0,0.0,0.0,0.0,0.0,0.0,0.0,0.0,0.0,0.0,0.0,0.0,0.0,0.0,0.0,0.0,0.0,0.0,0.0,0.0,0.0,0.0,0.0,0.0,0.0,0.0,0.0,0.0,0.0,0.0,0.0,0.0,0.0,0.0,0.0,0.0,0.0,-1.9587,-2.1119,0.0,-2.1535,-2.1565,-2.1319,-2.0458,-1.9255,-1.7685,0.0,0.0,0.0,0.0,0.0,0.0,0.0,0.0,0.0,0.0,0.0,0.0,0.0,0.0,0.0,0.0,0.0,0.0,0.0,0.0,0.0,0.0,0.0,0.0,0.0,0.0,0.0,0.0,0.0,0.0,0.0,0.0,0.0,0.0,0.0,0.0,0.0,0.0,0.0,0.0,0.0,0.0,0.0,0.0,0.0,0.0,0.0,0.0,0.0,0.0,0.0,0.0,0.0,0.0,0.0,0.0,0.0,0.0,0.0,0.0,0.0,0.0,0.0,0.0,0.0,0.0,0.0,0.0,0.0,0.0,0.0,0.0,0.0,0.0,0.0,0.0,0.0,0.0,0.0,0.0,0.0,0.0,0.0,0.0,0.0,0.0,0.0,0.0,0.0,0.0,0.0,0.0,0.0,0.0,0.0,0.0,0.0,0.0,0.0,0.0,0.0,0.0,-1.755,-1.9414,-2.0703,0.0,-2.1165,-2.1211,-2.0996,-2.0366,-1.9193,-1.7316,0.0,0.0,0.0,0.0,0.0,0.0,0.0,0.0,0.0,0.0,0.0,0.0,0.0,0.0,0.0,0.0,0.0,0.0,0.0,0.0,0.0,0.0,0.0,0.0,0.0,0.0,0.0,0.0,0.0,0.0,0.0,0.0,0.0,0.0,0.0,0.0,0.0,0.0,0.0,0.0,0.0,0.0,0.0,0.0,0.0,0.0,0.0,0.0,0.0,0.0,0.0,0.0,0.0,0.0,0.0,0.0,0.0,0.0,0.0,0.0,0.0,0.0,0.0,0.0,0.0,0.0,0.0,0.0,0.0,0.0,0.0,0.0,0.0,0.0,0.0,0.0,0.0,0.0,0.0,0.0,0.0,0.0,0.0,0.0,0.0,0.0,0.0,0.0,0.0,0.0,0.0,0.0,0.0,0.0,0.0,0.0,0.0,0.0,0.0,0.0,0.0,0.0,-1.8038,-2.0008,-2.1026,-2.0381,-2.0888,-2.1011,-2.0349,-1.9688,-1.87,0.0,0.0,0.0,0.0,0.0,0.0,0.0,0.0,0.0,0.0,0.0,0.0,0.0,0.0,0.0,0.0,0.0,0.0,0.0,0.0,0.0,0.0,0.0,0.0,0.0,0.0,0.0,0.0,0.0,0.0,0.0,0.0,0.0,0.0,0.0,0.0,0.0,0.0,0.0,0.0,0.0,0.0,0.0,0.0,0.0,0.0,0.0,0.0,0.0,0.0,0.0,0.0,0.0,0.0,0.0,0.0,0.0,0.0,0.0,0.0,0.0,0.0,0.0,0.0,0.0,0.0,0.0,0.0,0.0,0.0,0.0,0.0,0.0,0.0,0.0,0.0,0.0,0.0,0.0,0.0,0.0,0.0,0.0,0.0,0.0,0.0,0.0,0.0,0.0,0.0,0.0,0.0,0.0,0.0,0.0,0.0,0.0,0.0,0.0,0.0,0.0,0.0,0.0,-1.7976,-1.9608,-2.0518,-2.0335,-2.0387,-2.0382,-2.0183,-1.9984,-1.8864,-1.651,0.0,0.0,0.0,0.0,0.0,0.0,0.0,0.0,0.0,0.0,0.0,0.0,0.0,0.0,0.0,0.0,0.0,0.0,0.0,0.0,0.0,0.0,0.0,0.0,0.0,0.0,0.0,0.0,0.0,0.0,0.0,0.0,0.0,0.0,0.0,0.0,0.0,0.0,0.0,0.0,0.0,0.0,0.0,0.0,0.0,0.0,0.0,0.0,0.0,0.0,0.0,0.0,0.0,0.0,0.0,0.0,0.0,0.0,0.0,0.0,0.0,0.0,0.0,0.0,0.0,0.0,0.0,0.0,0.0,0.0,0.0,0.0,0.0,0.0,0.0,0.0,0.0,0.0,0.0,0.0,0.0,0.0,0.0,0.0,0.0,0.0,0.0,0.0,0.0,0.0,0.0,0.0,0.0,0.0,0.0,0.0,0.0,0.0,0.0,0.0,0.0,0.0,-1.7992,-1.9423,-2.0287,-2.022,-2.015,-2.0098,-2.0063,-2.0063,-1.901,-1.6559,0.0,0.0,0.0,0.0,0.0,0.0,0.0,0.0,0.0,0.0,0.0,0.0,0.0,0.0,0.0,0.0,0.0,0.0,0.0,0.0,0.0,0.0,0.0,0.0,0.0,0.0,0.0,0.0,0.0,0.0,0.0,0.0,0.0,0.0,0.0,0.0,0.0,0.0,0.0,0.0,0.0,0.0,0.0,0.0,0.0,0.0,0.0,0.0,0.0,0.0,0.0,0.0,0.0,0.0,0.0,0.0,0.0,0.0,0.0,0.0,0.0,0.0,0.0,0.0,0.0,0.0,0.0,0.0,0.0,0.0,0.0,0.0,0.0,0.0,0.0,0.0,0.0,0.0,0.0,0.0,0.0,0.0,0.0,0.0,0.0,0.0,0.0,0.0,0.0,0.0,0.0,0.0,0.0,0.0,0.0,0.0,0.0,0.0,0.0,0.0,0.0,0.0,-1.8007,-1.9423,-2.0252,-2.0133,-2.01,-2.0063,-2.0008,-1.999,-1.9154,-1.7212,0.0,0.0,0.0,0.0,0.0,0.0,0.0,0.0,0.0,0.0,0.0,0.0,0.0,0.0,0.0,0.0,0.0,0.0,0.0,0.0,0.0,0.0,0.0,0.0,0.0,0.0,0.0,0.0,0.0,0.0,0.0,0.0,0.0,0.0,0.0,0.0,0.0,0.0,0.0,0.0,0.0,0.0,0.0,0.0,0.0,0.0,0.0,0.0,0.0,0.0,0.0,0.0,0.0,0.0,0.0,0.0,0.0,0.0,0.0,0.0,-1.963,0.0,0.0,0.0,0.0,0.0,0.0,0.0,0.0,0.0,0.0,0.0,0.0,0.0,0.0,0.0,0.0,0.0,0.0,0.0,0.0,0.0,0.0,0.0,0.0,0.0,0.0,0.0,0.0,0.0,0.0,0.0,0.0,0.0,0.0,0.0,0.0,0.0,0.0,0.0,0.0,0.0,-1.7961,-1.9423,-2.0287,-2.027,-2.0113,-2.0043,-2.008,-1.9922,-1.9232,-1.7801,-1.5865,0.0,0.0,0.0,0.0,0.0,0.0,0.0,0.0,0.0,0.0,0.0,0.0,0.0,0.0,0.0,0.0,0.0,0.0,0.0,0.0,0.0,0.0,0.0,0.0,0.0,0.0,0.0,0.0,0.0,0.0,0.0,0.0,0.0,0.0,0.0,0.0,0.0,0.0,0.0,0.0,0.0,0.0,0.0,0.0,0.0,0.0,0.0,0.0,0.0,0.0,0.0,0.0,0.0,0.0,0.0,0.0,0.0,0.0,0.0,0.0,-2.0718,0.0,0.0,0.0,0.0,0.0,0.0,0.0,0.0,0.0,0.0,0.0,0.0,0.0,0.0,0.0,0.0,0.0,0.0,0.0,0.0,0.0,0.0,0.0,0.0,0.0,0.0,0.0,0.0,0.0,0.0,0.0,0.0,0.0,0.0,0.0,0.0,0.0,0.0,0.0,0.0,-1.8389,-1.9831,-2.0658,-2.0551,-2.0458,-2.0267,-1.9919,-1.9815,-1.9341,-1.8352,-1.6728,0.0,0.0,0.0,0.0,0.0,0.0,0.0,0.0,0.0,0.0,0.0,0.0,0.0,0.0,0.0,0.0,0.0,0.0,0.0,0.0,0.0,0.0,0.0,0.0,0.0,0.0,0.0,0.0,0.0,0.0,0.0,0.0,0.0,0.0,0.0,0.0,0.0,0.0,0.0,0.0,0.0,0.0,0.0,0.0,0.0,0.0,0.0,0.0,0.0,0.0,0.0,0.0,0.0,-2.3239,-2.3931,-2.5025,-2.5025,-2.5087,-2.5133,-2.401,-2.3502,-2.3394,-2.2289,0.0,0.0,0.0,0.0,0.0,0.0,0.0,0.0,0.0,0.0,0.0,0.0,0.0,0.0,0.0,0.0,0.0,0.0,0.0,0.0,0.0,0.0,0.0,0.0,-2.1319,-2.0888,0.0,0.0,0.0,0.0,0.0,0.0,0.0,0.0,0.0,0.0,0.0,0.0,-1.9061,-2.036,-2.1081,-2.1016,-2.0888,-2.0565,-1.9987,-1.9786,-1.9432,-1.8827,-1.7575,-1.6216,0.0,0.0,0.0,0.0,0.0,0.0,0.0,0.0,0.0,0.0,0.0,0.0,0.0,0.0,0.0,0.0,0.0,0.0,0.0,0.0,0.0,0.0,0.0,0.0,0.0,0.0,0.0,0.0,0.0,0.0,0.0,0.0,-1.5882,-1.8733,0.0,0.0,0.0,0.0,0.0,0.0,0.0,0.0,0.0,0.0,0.0,0.0,0.0,-2.2385,-2.3625,-2.4317,-2.5041,-2.5773,-2.6449,-2.7142,-2.7873,-2.7873,-2.8181,-2.8735,-2.855,0.0,-2.4148,-2.3979,0.0,0.0,0.0,0.0,0.0,0.0,0.0,0.0,0.0,0.0,0.0,0.0,0.0,0.0,0.0,0.0,0.0,0.0,0.0,0.0,0.0,0.0,-2.3656,-2.3748,-2.3394,-2.2902,0.0,-2.0037,-1.7869,-1.7715,-1.6193,0.0,0.0,0.0,0.0,0.0,0.0,0.0,-1.9885,-2.0704,-2.1304,-2.1881,-2.1254,-2.0816,-2.0834,-2.0143,-1.954,-1.9163,-1.8161,-1.7164,-1.6252,-1.4284,0.0,0.0,0.0,0.0,0.0,0.0,0.0,0.0,0.0,0.0,0.0,0.0,0.0,0.0,0.0,0.0,0.0,0.0,0.0,0.0,0.0,0.0,0.0,0.0,0.0,0.0,0.0,0.0,0.0,-1.6319,-1.8465,-1.9494,-1.964,-1.9484,0.0,0.0,0.0,0.0,0.0,0.0,0.0,0.0,0.0,-2.3363,-2.4164,-2.4841,-2.5419,-2.6496,-2.7372,-2.8049,-2.8381,-2.8889,-2.951,-2.951,-2.9679,-2.9956,-2.9956,-2.911,-2.7634,-2.6518,-2.5472,-2.4487,0.0,0.0,0.0,0.0,-2.2871,-2.2675,-2.3409,-2.3425,0.0,-2.2563,0.0,0.0,0.0,0.0,0.0,0.0,0.0,0.0,0.0,0.0,-2.4979,-2.5379,-2.5241,-2.501,-2.5025,-2.3236,-2.1175,0.0,-1.8346,-1.7037,-1.5578,0.0,0.0,0.0,0.0,-1.8945,-2.0538,-2.1602,-2.2289,-2.246,-2.161,-2.0969,-2.085,-1.9729,-1.9053,-1.9143,-1.8528,-1.7744,-1.6821,-1.5697,-1.4358,0.0,0.0,0.0,0.0,0.0,0.0,0.0,0.0,0.0,0.0,0.0,0.0,0.0,0.0,0.0,0.0,0.0,0.0,0.0,0.0,0.0,0.0,0.0,0.0,0.0,0.0,0.0,0.0,-1.8338,-2.0319,-2.0241,-2.0805,-2.0833,0.0,0.0,0.0,0.0,0.0,0.0,-2.2963,-2.326,-2.3948,-2.5318,-2.648,-2.7172,-2.7357,-2.8387,-2.9258,-2.992,-2.992,-3.0274,-3.0894,-3.0894,-3.0894,-3.0894,-3.0894,-3.0894,-3.074,-2.875,-2.7611,-2.7042,-2.5826,-2.5364,-2.5426,-2.5896,-2.5795,-2.5503,-2.648,-2.6511,-2.5933,-2.4933,0.0,-2.3763,-2.2089,0.0,0.0,0.0,0.0,-2.3502,-2.5364,-2.5857,-2.6026,-2.6734,-2.6749,-2.6611,-2.6641,-2.5687,-2.4133,0.0,-2.0643,-1.9517,-1.7807,0.0,0.0,0.0,0.0,-2.0254,-2.1498,-2.248,-2.3087,-2.3105,-2.2196,-2.1375,-2.0852,-1.9653,-1.8878,-1.8779,-1.8611,-1.8057,-1.7093,-1.6775,-1.5751,-1.3923,0.0,0.0,0.0,0.0,0.0,0.0,0.0,0.0,0.0,0.0,0.0,0.0,0.0,0.0,0.0,0.0,0.0,0.0,0.0,0.0,0.0,0.0,0.0,0.0,0.0,0.0,0.0,0.0,0.0,-2.163,-2.2002,0.0,0.0,0.0,0.0,-2.217,-2.2752,-2.3702,-2.5066,-2.581,-2.6795,-2.8165,-2.8864,-2.9541,-3.0186,-3.0263,-3.0643,-3.1316,-3.1316,-3.1643,-3.229,-3.229,-3.229,-3.229,-3.229,-3.229,-3.2136,-3.0135,-2.9289,-2.9196,-2.8473,-2.8196,-2.8211,-2.8242,-2.8227,-2.8211,-2.8273,-2.8273,-2.8242,-2.8181,-2.7272,-2.6087,-2.5302,-2.461,0.0,0.0,-2.5142,-2.5465,-2.6919,-2.7288,-2.7457,-2.815,-2.7811,-2.7349,-2.7349,-2.6726,-2.5788,0.0,-2.304,-2.192,-2.1165,0.0,-2.1042,-2.1042,-2.1134,-2.1689,-2.3025,-2.3076,-2.3259,-2.3861,-2.3158,-2.2194,-2.1181,-2.0438,-1.9392,-1.7949,-1.8266,-1.8094,-1.7222,-1.7041,-1.6593,-1.5779,-1.4028,0.0,0.0,0.0,0.0,0.0,0.0,0.0,0.0,0.0,0.0,0.0,0.0,0.0,0.0,0.0,0.0,0.0,0.0,0.0,0.0,0.0,0.0,0.0,0.0,0.0,0.0,0.0,0.0,-2.2695,-2.3643,0.0,-2.2963,-2.3302,-2.3948,-2.4804,-2.5133,-2.6072,-2.7834,-2.8196,-2.8765,-2.9648,-3.0335,-3.0797,-3.1043,-3.1474,-3.1813,-3.2028,-3.2028,-3.2382,-3.3044,-3.3044,-3.329,-3.3765,-3.3765,-3.346,-3.2982,-3.2275,-3.1474,-3.0612,-2.9966,-2.9679,-2.9679,-2.9679,-2.9679,-2.9679,-2.9679,-2.9679,-2.9602,-2.9171,-2.8427,-2.7642,-2.738,-2.7134,-2.7088,-2.7741,-2.7926,-2.8141,-2.9079,-2.9027,-2.8765,-2.8996,-2.8535,-2.8042,-2.8042,-2.7503,-2.6872,-2.6395,-2.4825,-2.3363,-2.2686,-2.2228,-2.1797,-2.1365,-2.2043,-2.2748,-2.324,-2.358,-2.3688,-2.35,-2.2548,-2.1556,-2.0656,-1.9502,-1.8534,-1.7828,-1.772,-1.7516,-1.722,-1.7154,-1.6844,-1.623,-1.5209,-1.3686,0.0,0.0,0.0,0.0,0.0,0.0,0.0,0.0,0.0,0.0,0.0,0.0,0.0,0.0,0.0,0.0,0.0,0.0,0.0,0.0,0.0,0.0,0.0,0.0,0.0,0.0,-2.3639,-2.4266,-2.5333,-2.5841,-2.5395,-2.5549,-2.6164,-2.7265,-2.7396,-2.8088,-2.9648,-2.9966,-3.0289,-3.0735,-3.1382,-3.1844,-3.2059,-3.2505,-3.2859,-3.309,-3.309,-3.3336,-3.3767,-3.3767,-3.4058,-3.4505,-3.4505,-3.4227,-3.3767,-3.3767,-3.3244,-3.2364,-3.1443,-3.1063,-3.1063,-3.1063,-3.1063,-3.1063,-3.1063,-3.0936,-3.0674,-3.0228,-2.9627,-2.9064,-2.9064,-2.9064,-2.9181,-2.9602,-2.9725,-2.9833,-3.0279,-3.0063,-2.9664,-2.9433,-2.9048,-2.8688,-2.8458,-2.8057,-2.7734,-2.7734,-2.6257,-2.4795,-2.4087,-2.3609,-2.3086,-2.2394,-2.3055,-2.3564,-2.3361,-2.3813,-2.3818,-2.2972,-2.2342,-2.1552,-2.0456,-1.93,-1.8419,-1.7925,-1.7449,-1.7199,-1.7199,-1.7199,-1.695,-1.6402,-1.5421,-1.4167,-1.2596,0.0,0.0,0.0,0.0,0.0,0.0,0.0,0.0,0.0,0.0,0.0,0.0,0.0,0.0,0.0,0.0,0.0,0.0,0.0,0.0,0.0,0.0,0.0,-2.2305,-2.383,-2.528,-2.6363,-2.7088,-2.7488,-2.7488,-2.8088,-2.875,-2.9402,-2.9448,-2.9756,-3.0432,-3.1089,-3.147,-3.147,-3.2105,-3.2782,-3.3429,-3.3429,-3.3783,-3.4505,-3.4505,-3.452,-3.4536,-3.4536,-3.4536,-3.4566,-3.4566,-3.4551,-3.4536,-3.4536,-3.452,-3.4366,-3.2982,-3.2459,-3.2459,-3.2428,-3.2413,-3.2398,-3.2398,-3.1967,-3.1439,-3.1439,-3.0997,-3.0463,-3.0463,-3.0463,-3.0463,-3.0463,-3.0463,-3.0463,-3.0463,-3.0448,-3.0263,-2.9602,-2.9433,-2.9233,-2.8581,-2.8427,-2.8427,-2.8411,-2.7349,-2.6226,-2.5481,-2.5342,-2.5096,-2.4471,-2.4327,0.0,-2.3501,-2.3754,-2.3545,-2.2397,-2.2626,-2.2209,-2.0597,-1.9971,-1.9225,-1.8184,-1.7525,-1.7199,-1.7199,-1.7199,-1.6963,-1.6428,-1.4733,-1.3857,-1.3831,0.0,0.0,0.0,0.0,0.0,0.0,0.0,0.0,0.0,0.0,0.0,0.0,0.0,0.0,0.0,0.0,0.0,0.0,0.0,0.0,0.0,-2.2686,-2.4271,-2.4456,-2.5759,-2.7156,-2.8411,-2.9181,-2.9571,-2.9571,-2.9725,-3.0135,-3.0797,-3.0843,-3.1136,-3.1813,-3.249,-3.2844,-3.2844,-3.3565,-3.4012,-3.4212,-3.4212,-3.4305,-3.4505,-3.4505,-3.4751,-3.5244,-3.5244,-3.5506,-3.5938,-3.5938,-3.566,-3.5244,-3.5244,-3.4951,-3.4459,-3.4073,-3.3935,-3.3873,-3.3321,-3.2813,-3.2398,-3.2398,-3.2275,-3.2121,-3.2121,-3.1997,-3.1859,-3.1859,-3.1859,-3.1859,-3.1859,-3.1859,-3.1859,-3.1859,-3.149,-3.1074,-3.0889,-3.0489,-2.994,-2.9264,-2.9135,-2.8972,-2.8504,-2.8104,-2.7626,-2.6934,-2.6426,-2.6026,-2.5841,-2.533,0.0,-2.4186,-2.3674,-2.2957,-2.1898,-2.1803,-2.1308,-2.0088,-1.9459,-1.8833,-1.8127,-1.7525,-1.7199,-1.7199,-1.7199,-1.7133,-1.6977,-1.5696,-1.4874,0.0,0.0,0.0,0.0,0.0,0.0,0.0,0.0,0.0,0.0,0.0,0.0,0.0,0.0,0.0,0.0,0.0,0.0,0.0,0.0,0.0,0.0,-2.4594,-2.6465,-2.7311,-2.7904,-2.875,-3.0074,-3.0582,-3.0936,-3.1228,-3.1243,-3.152,-3.2182,-3.2228,-3.2536,-3.3257,-3.3644,-3.386,-3.386,-3.4289,-3.4643,-3.4921,-3.4936,-3.5075,-3.5352,-3.5352,-3.5552,-3.5907,-3.5907,-3.6122,0.0,-3.6492,-3.6261,-3.5907,-3.5907,-3.5706,0.0,0.0,0.0,0.0,0.0,-3.3598,-3.3257,-3.2921,-3.2813,-3.2767,-3.249,-3.2398,-3.2398,-3.2398,-3.2398,-3.2398,-3.2398,-3.2398,-3.2398,-3.2398,-3.2105,-3.1736,-3.1486,-3.1089,-3.0643,-2.9956,-2.9587,-2.9279,-2.8879,-2.8596,0.0,-2.7658,-2.7102,-2.6551,-2.6016,-2.55,-2.4863,-2.4043,-2.3472,-2.2748,-2.1666,-2.1475,-2.107,-2.024,-1.9616,0.0,0.0,0.0,-1.746,-1.7212,-1.6977,0.0,0.0,0.0,0.0,0.0,0.0,0.0,0.0,-1.4542,-1.4443,0.0,0.0,0.0,0.0,0.0,0.0,0.0,0.0,0.0,0.0,0.0,0.0,0.0,0.0,0.0,0.0,-2.6395,-2.8396,-3.0248,-3.0063,-3.0181,-3.1378,-3.1516,-3.1794,-3.2444,-3.2505,-3.2782,-3.3475,-3.3521,-3.3798,-3.4474,0.0,0.0,0.0,0.0,-3.5013,-3.5629,-3.5629,-3.5891,-3.6492,-3.6492,-3.6492,-3.6492,-3.6492,-3.6492,-3.6492,-3.6492,-3.6492,-3.6492,-3.6492,-3.6492,-3.6368,-3.5198,-3.469,-3.4613,-3.4613,-3.4566,-3.4412,-3.3752,0.0,0.0,-3.2829,-3.2628,-3.2613,-3.2536,-3.2505,-3.249,-3.2413,-3.2398,-3.2398,-3.2398,-3.2398,-3.2244,-3.1643,-3.1516,-3.132,-3.0674,-3.0033,-2.9571,-2.9417,-2.8935,-2.8367,-2.793,-2.7513,-2.6881,-2.5688,-2.5339,-2.477,-2.3621,-2.3348,-2.2823,-2.1707,0.0,0.0,-2.0829,-2.0165,-1.9577,-1.9041,-1.8493,-1.7944,-1.7408,-1.6924,-1.6911,-1.7382,-1.6924,-1.6911,-1.7382,-1.7591,-1.7695,-1.7608,-1.5483,-1.5254,0.0,0.0,0.0,0.0,0.0,0.0,0.0,0.0,0.0,0.0,0.0,0.0,0.0,0.0,0.0,-2.6549,-2.8504,-3.0125,-3.1074,-3.1551,-3.1921,-3.2167,-3.2198,-3.2459,-3.3136,-3.3213,-3.3506,-3.4243,-3.4305,-3.4351,-3.4489,-3.5013,-3.5321,-3.5321,-3.5845,-3.6168,-3.6292,-3.6307,-3.6368,-3.6492,0.0,0.0,-3.6492,-3.6492,-3.6492,-3.6492,-3.6492,-3.6492,-3.6492,-3.6492,-3.6492,-3.6461,-3.6199,-3.5768,-3.5321,-3.5321,-3.4967,-3.4489,-3.4351,-3.4305,-3.4274,-3.415,-3.4104,-3.3996,-3.3383,-3.3213,0.0,-3.2552,-3.2398,-3.2398,-3.2398,-3.2398,-3.2367,-3.2228,-3.2198,-3.2013,-3.1351,-3.1089,-3.0689,-2.9602,-2.9294,-2.9018,-2.8391,-2.7932,-2.746,-2.6845,-2.6212,-2.5514,-2.4611,-2.3925,-2.3205,-2.2311,-2.1773,-2.1445,-2.1342,-2.0401,-1.9747,-1.963,-1.9081,-1.8702,-1.8584,-1.8479,-1.8466,-1.8571,-1.8479,-1.8479,-1.8571,-1.8844,-1.8844,-1.8612,-1.8269,-1.825,0.0,0.0,0.0,0.0,0.0,0.0,0.0,0.0,0.0,0.0,0.0,-2.232,-2.4045,0.0,-2.6919,-2.8627,-3.0027,-3.1136,-3.1797,-3.2182,-3.2398,-3.2398,-3.269,-3.3029,-3.3367,-3.3721,-3.4258,-3.4951,-3.5013,-3.5152,-3.546,-3.5829,-3.5984,-3.5984,-3.6322,-3.6492,-3.6492,-3.6492,-3.6492,-3.6492,-3.6492,-3.6492,-3.6492,-3.6492,-3.6492,-3.6492,-3.6492,-3.6492,-3.6492,-3.6492,-3.6492,-3.6492,-3.6492,-3.6292,-3.5984,-3.5984,-3.5799,-3.546,-3.5121,-3.5013,-3.4951,-3.4613,-3.4505,-3.4428,-3.4073,-3.3937,-3.3798,-3.309,-3.2906,-3.2813,-3.249,-3.2398,-3.2398,-3.2398,-3.2398,-3.2305,-3.1967,-3.1655,-3.1182,-3.0535,-3.0135,-2.9628,-2.8738,-2.8262,-2.7743,-2.7011,-2.6222,-2.5441,-2.4737,-2.3919,-2.3244,-2.2833,-2.2283,-2.1956,-2.1956,-2.0909,-2.0137,-1.9826,-1.9237,-1.8911,-1.8911,-1.8911,-1.8911,-1.8911,-1.8911,-1.8911,-1.8911,-1.9025,-1.9161,-1.9248,-1.9654,-1.968,0.0,0.0,0.0,0.0,0.0,0.0,0.0,0.0,-2.0705,-2.2859,-2.3286,-2.404,-2.6518,-2.7519,-2.8565,-3.0294,-3.1151,-3.1767,-3.2321,-3.2398,-3.2398,-3.2398,-3.2982,-3.346,-3.3598,-3.4289,-3.4982,-3.563,-3.5676,-3.5953,-3.6461,-3.6492,-3.6492,-3.6492,-3.6492,-3.6492,-3.6492,-3.6492,-3.6492,-3.6492,-3.6492,-3.6492,-3.6492,-3.6492,-3.6492,-3.6492,-3.6492,-3.6492,-3.6492,-3.6492,-3.6492,-3.6492,-3.6492,-3.6492,-3.6492,-3.6492,-3.6492,-3.6415,-3.5876,-3.5676,-3.5614,-3.5075,-3.489,-3.4874,-3.4736,-3.4705,-3.4551,-3.3814,-3.3614,-3.346,-3.2767,-3.2582,-3.2552,-3.2428,-3.2398,-3.2398,-3.2398,-3.1967,-3.1563,-3.1439,-3.0966,-3.0293,-2.9269,-2.8783,-2.8078,-2.6861,-2.5946,-2.5217,-2.4666,-2.3912,-2.3437,-2.3393,-2.2871,-2.2519,-2.2414,-2.1551,-2.0818,-2.0335,-1.9747,-1.9407,-1.9407,-1.9303,-1.9274,-1.9307,-1.9274,-1.9274,-1.9307,-1.9307,-1.9492,-1.9881,-2.0473,-2.047,-2.0535,-1.9518,-1.9333,-2.0456,-2.0395,-2.0841,0.0,0.0,-2.3609,-2.6272,-2.6826,-2.7288,-2.8796,-2.9602,-3.0325,-3.1136,-3.1844,-3.2305,-3.2382,-3.2398,-3.2398,-3.2398,-3.2982,-3.366,-3.432,-3.4998,-3.5675,-3.6322,-3.6384,-3.6415,-3.6492,-3.6492,-3.6492,-3.6492,-3.6492,-3.6492,-3.6492,-3.6492,-3.6492,-3.6492,-3.6492,-3.6492,-3.6492,-3.6492,-3.6492,-3.6492,-3.6492,-3.6492,-3.6492,-3.6492,-3.6492,-3.6492,-3.6492,-3.6492,-3.6492,-3.6492,-3.6492,-3.6476,-3.6399,-3.6384,-3.6368,-3.6292,-3.6261,-3.6153,-3.5583,-3.5398,-3.526,-3.4582,-3.4382,-3.4227,-3.3475,-3.329,-3.3136,-3.2536,-3.2398,-3.2398,-3.2398,-3.2336,-3.2105,-3.1532,-3.132,-3.1074,-3.0334,-2.9871,-2.8931,-2.6842,-2.5921,-2.5369,-2.4977,-2.4612,-2.4257,-2.4008,-2.3485,-2.2923,-2.2439,-2.2283,-2.2178,-2.21,-2.1538,-2.1224,-2.1224,-2.0752,-2.0576,-2.076,-2.0576,-2.0576,-2.0773,-2.0773,-2.0784,-2.0846,-2.1167,-2.1239,-2.2458,-2.1565,-2.1273,-2.2228,-2.2548,-2.3102,-2.4881,-2.5158,-2.5588,-2.758,-2.8288,-2.8981,-3.032,-3.0797,-3.1197,0.0,-3.2213,-3.2398,-3.2398,-3.2398,-3.2398,-3.2398,-3.2982,-3.369,-3.4428,-3.5121,-3.5799,-3.6445,-3.6492,-3.6492,-3.6492,-3.6492,-3.6492,-3.6492,-3.6492,-3.6492,-3.6492,-3.6492,-3.6492,-3.6492,-3.6492,-3.6492,-3.6492,-3.6492,-3.6492,-3.6492,-3.6492,-3.6492,-3.6492,-3.6492,-3.6492,-3.6492,-3.6492,-3.6492,-3.6492,-3.6492,-3.6492,-3.6492,-3.6492,-3.6492,-3.6492,-3.6492,-3.6492,-3.6445,-3.6153,-3.6076,-3.5922,-3.5275,-3.509,-3.4936,-3.4227,-3.4029,-3.3844,-3.3152,-3.2982,-3.2875,-3.2475,-3.2398,-3.2305,-3.2028,-3.1967,-3.1767,-3.1089,-3.0635,-2.994,-2.8634,-2.7302,-2.6231,-2.5716,-2.5147,-2.4679,-2.4376,-2.3964,-2.3483,-2.2895,-2.2884,-2.2727,-2.2414,-2.2166,-2.2035,-2.2035,-2.1799,-2.1734,-2.1799,-2.189,-2.1968,-2.2058,-2.2238,-2.2431,-2.2569,-2.2684,-2.282,-2.3498,-2.301,-2.2898,-2.366,-2.4518,-2.5333,-2.5988,-2.6665,-2.7495,-2.8695,-2.9325,-2.9981,-3.0951,-3.1285,-3.1551,-3.2044,-3.2428,-3.2613,-3.2428,-3.2552,-3.2613,-3.2413,-3.2829,-3.3398,-3.4135,-3.4998,-3.5722,-3.6184,-3.6384,-3.6492,-3.6492,-3.6492,-3.6492,-3.6492,-3.6492,-3.6492,-3.6492,-3.6492,-3.6492,-3.6492,-3.6492,-3.6492,-3.6492,-3.6492,-3.6492,-3.6492,-3.6492,-3.6492,-3.6492,-3.6492,-3.6492,-3.6492,-3.6492,-3.6492,-3.6492,-3.6492,-3.6492,-3.6492,-3.6492,-3.6492,-3.6492,-3.6492,-3.6492,-3.6492,-3.6492,-3.6492,-3.6384,-3.5891,-3.5799,-3.5599,-3.4951,-3.4782,-3.4597,-3.386,-3.369,-3.3506,-3.2813,-3.2675,-3.2613,-3.2428,-3.2398,-3.2244,-3.1751,-3.1415,-3.101,-3.0342,-2.8908,-2.7566,-2.6504,-2.5564,-2.4907,-2.4666,-2.4376,-2.4032,-2.3598,-2.3487,-2.3289,-2.2898,-2.2715,-2.2624,-2.2624,-2.248,-2.2428,-2.2508,-2.2684,-2.2831,-2.2911,-2.3254,-2.3515,-2.3695,-2.3772,-2.3998,-2.3215,-2.3526,-2.3979,-2.5002,-2.6287,-2.7473,-2.815,-2.8827,-2.9494,-3.0202,-3.0356,-3.0386,-3.0417,-3.0966,-3.1424,-3.1439,-3.2521,-3.3136,-3.249,-3.2952,-3.3121,-3.2475,-3.2413,-3.269,0.0,-3.4675,-3.5521,-3.5537,-3.6122,-3.6492,-3.6492,-3.6492,-3.6492,-3.6492,-3.6492,-3.6492,-3.6492,-3.6492,-3.6492,-3.6492,-3.6492,-3.6492,-3.6492,-3.6492,-3.6492,-3.6492,-3.6492,-3.6492,-3.6492,-3.6492,-3.6492,-3.6492,-3.6492,-3.6492,-3.6492,-3.6492,-3.6492,-3.6492,-3.6492,-3.6492,-3.6492,-3.6492,-3.6492,-3.6492,-3.6492,-3.6492,-3.6492,-3.6476,-3.6461,-3.6307,-3.566,-3.5491,-3.5306,-3.4628,-3.4474,-3.4274,-3.3521,-3.3367,-3.3183,-3.2521,-3.2398,-3.2382,-3.2367,-3.2367,-3.2136,-3.1459,-3.0601,-2.93,-2.7312,-2.5841,-2.5005,-2.4977,-2.4694,-2.4481,-2.4467,-2.4205,-2.4086,-2.4031,-2.3483,-2.3197,-2.3197,-2.2689,-2.2536,-2.2777,-2.2791,-2.2937,-2.3187,-2.3527,-2.3695,-2.3695,-2.3965,-2.4416,-2.4461,-2.5094,-2.5843,-2.7433,-2.8551,-2.9414,-3.0105,-3.0425,-3.066,-3.088,-3.0654,-3.0402,-3.0402,-3.0571,-3.0889,-3.1347,-3.1794,-3.2136,-3.2367,-3.2982,-3.3152,-3.2475,-3.2782,0.0,0.0,0.0,0.0,-3.5414,-3.5691,-3.6014,-3.6476,-3.6492,-3.6492,-3.6492,-3.6492,-3.6492,-3.6492,-3.6492,-3.6492,-3.6492,-3.6492,-3.6492,-3.6492,-3.6492,-3.6492,-3.6492,-3.6492,-3.6492,-3.6492,-3.6492,-3.6492,-3.6492,-3.6492,-3.6492,-3.6492,-3.6492,-3.6492,-3.6492,-3.6492,-3.6492,-3.6492,-3.6492,-3.6492,-3.6492,-3.6492,-3.6492,-3.6492,-3.6492,-3.6492,-3.6445,-3.6215,-3.6153,-3.5984,-3.5337,-3.5167,-3.4982,-3.4289,-3.3737,-3.3336,-3.3106,-3.269,-3.2398,-3.2398,-3.2398,-3.2167,-3.1516,-3.027,-2.882,-2.7131,-2.6342,-2.5795,-2.5382,-2.5033,-2.4821,-2.4821,-2.4536,-2.4363,-2.4363,-2.4003,-2.3885,-2.4059,-2.373,-2.3653,-2.3922,-2.4145,-2.4312,-2.4394,-2.4927,-2.5168,-2.5168,-2.5249,-2.5414,-2.6074,-2.6924,-2.785,-2.9683,-3.0671,-3.1246,-3.1414,-3.1498,-3.1358,-3.0599,-3.0033,-2.9525,-2.9048,-2.9181,-2.9678,-3.0788,-3.1602,-3.2302,-3.2959,-3.3659,-3.3777,-3.2857,-3.3318,-3.3466,0.0,0.0,0.0,-3.509,-3.5598,-3.6045,-3.6476,-3.6492,-3.6492,-3.6492,-3.6492,-3.6492,-3.6492,-3.6492,-3.6492,-3.6492,-3.6492,-3.6492,-3.6492,-3.6492,-3.6492,-3.6492,-3.6492,-3.6492,-3.6492,-3.6492,-3.6492,-3.6492,-3.6492,-3.6492,-3.6492,-3.6492,-3.6492,-3.6492,-3.6492,-3.6492,-3.6492,-3.6492,-3.6492,-3.6492,-3.6492,-3.6492,-3.6492,-3.6492,-3.6492,-3.6492,-3.6492,-3.6492,-3.6384,-3.5953,-3.5845,-3.566,-3.5013,-3.4475,-3.4075,-3.3829,-3.3229,-3.2752,-3.2752,-3.2552,-3.2189,-3.1595,-3.0674,-2.9438,-2.7838,-2.7357,-2.6946,-2.6384,-2.5838,-2.5488,-2.5488,-2.5,-2.4666,-2.4666,-2.4392,-2.4376,-2.4666,-2.4405,-2.4376,-2.4666,-2.5005,-2.5188,-2.5188,-2.5647,-2.5893,-2.5893,-2.5893,-2.5893,-2.7897,-2.8918,-2.9984,-3.1668,-3.2577,-3.2837,-3.2156,-3.2038,-3.151,-2.9507,-2.8639,-2.7842,0.0,0.0,-2.7977,-2.9817,-3.1826,-3.3409,-3.406,-3.4845,-3.4898,0.0,0.0,0.0,0.0,0.0,0.0,-3.458,0.0,-3.6445,-3.6492,-3.6492,-3.6492,-3.6492,-3.6523,-3.6523,-3.6492,-3.6492,-3.6492,-3.6492,-3.6492,-3.6492,-3.6492,-3.6492,-3.6492,-3.6492,-3.6492,-3.6492,-3.6492,-3.6492,-3.6492,-3.6492,-3.6492,-3.6492,-3.6492,-3.6492,-3.6492,-3.6492,-3.6492,-3.6492,-3.6492,-3.6492,-3.6492,-3.6492,-3.6492,-3.6492,-3.6492,-3.6492,-3.6492,-3.6492,-3.6492,-3.6492,-3.6492,-3.6492,-3.6492,-3.6322,-3.5706,-3.5537,-3.5321,-3.4674,-3.3921,-3.3398,-3.3398,-3.2844,-3.2259,-3.1781,-3.1739,-3.1087,-2.9346,-2.8794,-2.834,-2.7834,-2.6998,-2.6464,-2.6464,-2.5641,-2.5128,-2.5128,-2.4817,-2.4759,-2.51,-2.4761,-2.4748,-2.5087,-2.5355,-2.5494,-2.5494,-2.5771,-2.5893,-2.5893,-2.5893,-2.5893,-2.8928,-3.056,-3.2269,-3.308,-3.3406,-3.3465,-3.3268,-3.1798,-3.019,-2.9167,-2.7434,-2.5819,-2.4995,0.0,0.0,-2.8691,-3.0441,0.0,-3.3417,-3.4257,0.0,-3.487,0.0,-3.5118,-3.4902,-3.5239,0.0,0.0,-3.5568,-3.5953,-3.6461,-3.6492,-3.6492,-3.6492,-3.6754,-3.6754,-3.6492,-3.6492,-3.6492,-3.6492,-3.6492,-3.6492,-3.6492,-3.6492,-3.6492,-3.6492,-3.6492,-3.6492,-3.6492,-3.6492,-3.6492,-3.6492,-3.6492,-3.6492,-3.6492,-3.6492,-3.6492,-3.6492,-3.6492,-3.6492,-3.6492,-3.6492,-3.6492,-3.6492,-3.6492,-3.6492,-3.6492,-3.6492,-3.6492,-3.6492,-3.6492,-3.6492,-3.6492,-3.6492,-3.6492,-3.6445,-3.6276,-3.583,-3.546,-3.529,-3.4245,-3.3398,-3.3398,-3.2844,-3.237,-3.2231,-3.2231,-3.152,-2.958,-2.9233,-2.8827,-2.7906,-2.7592,-2.7436,-2.7436,-2.6977,-2.6705,-2.6705,-2.6453,-2.6424,-2.6705,-2.5945,-2.5714,-2.603,-2.5687,-2.5494,-2.5494,-2.5771,-2.5893,-2.5893,-2.5893,-2.5893,-3.1078,-3.2475,-3.3806,-3.4391,-3.4308,-3.3807,-3.2815,-3.1085,-2.9169,-2.7346,-2.5847,-2.4621,-2.3791,-2.4975,-2.6635,0.0,0.0,0.0,-3.4301,-3.5007,-3.551,0.0,-3.6264,0.0,-3.5865,-3.6146,-3.6211,0.0,-3.5922,-3.6091,-3.6476,-3.6647,-3.6647,-3.6492,-3.6816,-3.6847,-3.6492,-3.6492,-3.6492,-3.6492,-3.6492,-3.6492,-3.6492,-3.6492,-3.6492,-3.6492,0.0,-3.6492,-3.6492,-3.6492,-3.6492,-3.6492,-3.6492,-3.6492,-3.6492,-3.6492,-3.6492,-3.6492,-3.6492,-3.6492,-3.6492,-3.6492,-3.6492,-3.6492,-3.6492,-3.6492,-3.6492,-3.6492,-3.6492,-3.6492,-3.6492,-3.6492,-3.6492,-3.6492,-3.6492,-3.6492,-3.6492,-3.6184,-3.583,-3.5568,-3.4845,-3.4229,-3.3921,-3.329,-3.2844,-3.2844,-3.2582,-3.1827,-3.0295,-3.0104,-2.9797,-2.8994,-2.8487,-2.8199,-2.8199,-2.7799,-2.7513,-2.7513,-2.7246,-2.7216,-2.7513,-2.6872,-2.6664,-2.6998,-2.6677,-2.6524,-2.6524,-2.6666,-2.6722,-2.6722,-2.6722,-2.6722,-3.3367,-3.4248,-3.4815,-3.543,-3.4912,-3.3698,-3.1647,-3.0051,-2.8094,-2.5,-2.4188,-2.3733,-2.2706,-2.3799,-2.5636,-2.8072,0.0,-3.2415,-3.5507,-3.6135,-3.6592,-3.7308,-3.7361,-3.715,-3.6702,-3.7024,-3.7074,-3.6616,-3.6554,-3.6554,-3.6554,-3.6847,-3.6877,-3.6585,-3.6816,-3.6816,-3.6554,-3.6523,-3.6492,-3.6492,-3.6492,-3.6492,-3.6492,-3.6492,-3.6492,-3.6492,-3.6492,0.0,-3.6492,-3.6492,-3.6492,-3.6492,-3.6492,-3.6492,-3.6492,-3.6492,-3.6492,-3.6492,-3.6492,-3.6492,-3.6492,-3.6492,-3.6492,-3.6492,-3.6492,-3.6492,-3.6492,-3.6492,-3.6492,-3.6492,-3.6492,-3.6492,-3.6492,-3.6492,-3.6492,-3.6492,-3.6492,-3.6492,-3.6322,-3.5737,-3.5568,-3.5321,-3.4736,-3.4014,-3.3552,-3.3552,-3.2967,-3.2242,-3.1411,-3.1132,-3.0792,-3.0251,-2.9355,-2.8816,-2.8816,-2.8324,-2.8044,-2.8044,-2.775,-2.775,-2.8015,-2.768,-2.7624,-2.7918,-2.7847,-2.7805,-2.7805,-2.7805,-2.7805,-2.7805,-2.7805,-2.7805,-3.3673,-3.4662,-3.5581,-3.5588,-3.4198,-3.2567,-3.1447,-2.8865,0.0,-2.409,-2.3123,-2.2341,-2.1319,-2.3336,-2.5582,-2.6994,-2.9637,-3.2252,-3.4261,-3.561,-3.6761,0.0,-3.7716,-3.7674,-3.7931,-3.7174,0.0,0.0,0.0,-3.6908,-3.6908,-3.6984,-3.6969,-3.6908,-3.6693,-3.6677,-3.6908,-3.6647,-3.6492,-3.6492,-3.6492,-3.6492,-3.6492,-3.6492,-3.6492,-3.6492,-3.6492,0.0,-3.6492,-3.6492,-3.6492,-3.6492,-3.6492,-3.6492,-3.6492,-3.6492,-3.6492,-3.6492,-3.6492,-3.6492,-3.6492,-3.6492,-3.6492,-3.6492,-3.6492,-3.6492,-3.6492,-3.6492,-3.6492,-3.6492,-3.6492,-3.6492,-3.6492,-3.6492,-3.6492,-3.6492,-3.6492,-3.6492,-3.6461,-3.6338,-3.5891,-3.5475,-3.5367,-3.4767,-3.432,-3.432,-3.3675,-3.3172,-3.2986,-3.1809,-3.0673,-2.982,-2.9535,-2.9448,-2.9448,-2.935,-2.9293,-2.9293,-2.9218,-2.9232,-2.9293,-2.8757,-2.8491,-2.8535,-2.8058,-2.7805,-2.7805,-2.7805,-2.7805,-2.7805,-2.7805,-2.7805,-3.4583,-3.5262,-3.5604,-3.5237,-3.3765,-3.1879,-2.9871,0.0,0.0,-2.3061,-2.245,-2.2088,-2.1451,-2.3046,-2.4889,-2.617,-2.7946,-3.0273,-3.3477,-3.4713,-3.608,-3.8304,-3.8368,-3.8311,0.0,-3.7608,0.0,0.0,0.0,-3.7389,-3.721,-3.709,-3.7015,-3.7015,-3.6677,-3.6585,-3.6754,-3.6585,-3.6492,-3.6492,-3.6492,-3.6492,-3.6492,-3.6492,-3.6492,-3.6492,-3.6492,0.0,-3.6492,-3.6492,-3.6492,-3.6492,-3.6492,-3.6492,-3.6492,-3.6492,-3.6492,-3.6492,-3.6492,-3.6492,-3.6492,-3.6492,-3.6492,-3.6492,-3.6492,-3.6492,-3.6492,-3.6492,-3.6492,-3.6492,-3.6492,-3.6492,-3.6492,-3.6492,-3.6492,-3.6492,-3.6492,-3.6492,-3.6492,-3.6492,-3.623,-3.6014,-3.6014,-3.5475,-3.5028,-3.5028,-3.4428,-3.3865,-3.3645,-3.2915,-3.1901,-3.0475,-2.9898,-2.9602,-2.9602,-2.9602,-2.9602,-2.9602,-2.9602,-2.9602,-2.9602,-2.9321,-2.9167,-2.9167,-2.8872,-2.8731,-2.8731,-2.8731,-2.8731,-2.8731,-2.8731,-2.8731,-3.5183,-3.5615,-3.5525,-3.4882,-3.3396,-3.1348,-2.8467,-2.6539,-2.4701,-2.2287,-2.2063,-2.2194,-2.1871,-2.2856,-2.4199,0.0,-2.6607,-2.8639,-3.291,-3.4136,-3.5627,0.0,-3.8823,0.0,-3.8805,-3.7915,0.0,0.0,0.0,0.0,-3.7417,-3.7135,-3.6984,-3.6893,-3.6631,-3.6492,-3.6492,-3.6492,-3.6492,-3.6492,-3.6492,-3.6492,-3.6492,-3.6492,-3.6492,-3.6492,-3.6492,0.0,0.0,-3.6492,-3.6492,-3.6492,-3.6492,-3.6492,-3.6492,-3.6492,-3.6492,-3.6492,-3.6492,-3.6492,-3.6492,-3.6492,-3.6492,-3.6492,-3.6492,-3.6492,-3.6492,-3.6492,-3.6492,-3.6492,-3.6492,-3.6492,-3.6492,-3.6492,-3.6492,-3.6492,-3.6492,-3.6492,-3.6492,-3.6492,-3.6492,-3.6492,-3.6492,-3.6045,-3.5691,-3.5691,-3.5152,-3.4587,-3.4212,-3.3955,-3.3186,-3.1604,-3.0539,-2.9924,-2.9799,-2.9673,-2.9602,-2.9602,-2.9602,-2.9602,-2.9602,-2.9602,-2.9602,-2.9602,-2.9602,-2.9602,-2.9602,-2.9602,-2.9602,-2.9602,-2.9602,-2.9602,-3.4602,-3.5377,-3.5761,-3.4908,-3.3084,-3.0834,-2.8349,0.0,-2.4061,-2.2202,-2.2063,-2.2194,-2.1871,-2.2744,0.0,0.0,0.0,-2.9138,-3.2424,-3.4577,-3.6395,-3.7902,0.0,0.0,-3.8805,-3.7743,0.0,0.0,0.0,0.0,-3.7417,-3.7135,-3.6847,-3.6554,-3.6523,-3.6492,-3.6492,-3.6492,-3.6492,-3.6492,-3.6492,-3.6492,-3.6492,-3.6492,-3.6492,-3.6492,-3.6492,0.0,0.0,-3.6492,-3.6492,-3.6492,-3.6492,-3.6492,-3.6492,-3.6492,-3.6492,-3.6492,-3.6492,-3.6492,-3.6492,-3.6492,-3.6492,-3.6492,-3.6492,-3.6492,-3.6492,-3.6492,-3.6492,-3.6492,-3.6492,-3.6492,-3.6492,-3.6492,-3.6492,-3.6492,-3.6492,-3.6492,-3.6492,-3.6492,-3.6492,-3.6492,-3.6492,-3.6445,-3.6399,-3.6399,-3.583,-3.5383,-3.5353,-3.444,-3.3547,-3.289,-3.182,-3.0957,-3.0463,-2.994,-2.9602,-2.9602,-2.9602,-2.9602,-2.9602,-2.9602,-2.9602,-2.9602,-2.9602,-2.9602,-2.9602,-2.9602,-2.9602,-2.9602,-2.9602,-2.9602,-3.4358,-3.5283,-3.5489,-3.4321,-3.2649,-3.0537,-2.7757,-2.5761,-2.4037,-2.2423,-2.2209,-2.2268,-2.2137,-2.2473,-2.3127,-2.4225,-2.4725,0.0,-2.8738,-3.0903,-3.3136,-3.5604,-3.7302,0.0,0.0,0.0,0.0,0.0,0.0,0.0,-3.7165,-3.706,-3.6847,-3.6523,-3.6492,-3.6492,-3.6492,-3.6492,-3.6492,-3.6492,-3.6492,-3.6492,-3.6492,-3.6492,-3.6492,-3.6492,-3.6492,0.0,0.0,-3.6492,-3.6492,-3.6492,-3.6492,-3.6492,-3.6492,-3.6492,-3.6492,-3.6492,-3.6492,-3.6492,-3.6492,-3.6492,-3.6492,-3.6492,-3.6492,-3.6492,-3.6492,-3.6492,-3.6492,-3.6492,-3.6492,-3.6492,-3.6492,-3.6492,-3.6492,-3.6492,-3.6492,-3.6492,-3.6492,-3.6492,-3.6492,-3.6492,-3.6492,-3.6492,-3.6492,-3.6492,-3.6261,-3.6091,-3.6091,-3.5723,-3.5231,-3.4668,-3.2989,-3.1675,-3.1139,-3.0881,-3.074,-3.074,-3.0375,-3.0333,-3.0726,-3.001,-2.9968,-3.0726,-2.9996,-2.9785,-3.0119,-2.9785,-2.9602,-2.9602,-2.9602,-2.9602,-3.3376,-3.4444,-3.474,-3.3552,-3.2069,-3.0123,-2.7196,-2.5493,-2.4037,-2.2483,-2.224,-2.2296,-2.2296,-2.2296,-2.2533,-2.3274,-2.3242,-2.4102,-2.7013,-2.8872,-3.11,0.0,0.0,0.0,0.0,0.0,0.0,0.0,0.0,0.0,-3.6847,-3.6847,-3.6754,-3.6523,-3.6492,-3.6492,-3.6492,-3.6492,-3.6492,-3.6492,-3.6492,-3.6492,-3.6492,-3.6492,-3.6492,-3.6492,-3.6492,0.0,0.0,-3.6492,-3.6492,-3.6492,-3.6492,-3.6492,-3.6492,-3.6492,-3.6492,-3.6492,-3.6492,-3.6492,-3.6492,-3.6492,-3.6492,-3.6492,-3.6492,-3.6492,-3.6492,-3.6492,-3.6492,-3.6492,-3.6492,-3.6492,-3.6492,-3.6492,-3.6492,-3.6492,-3.6492,-3.6492,-3.6492,-3.6492,-3.6492,-3.6492,-3.6492,-3.6492,-3.6492,-3.6492,-3.6492,-3.6492,-3.6492,-3.6492,-3.6289,-3.5752,-3.4256,-3.3009,-3.2301,-3.19,-3.1702,-3.1702,-3.1115,-3.1021,-3.1471,-3.0642,-3.0488,-3.119,-3.0333,-3.001,-3.0217,-2.9827,-2.9602,-2.9602,-2.9602,-2.9602,-3.1327,-3.2565,-3.3437,-3.2713,-3.1305,-2.9422,-2.6796,-2.5329,-2.3992,-2.2185,-2.2063,-2.2296,-2.2296,-2.2296,-2.2533,-2.3274,-2.3507,0.0,-2.856,-2.9894,-3.1591,0.0,0.0,0.0,0.0,0.0,0.0,0.0,0.0,0.0,-3.6523,-3.6523,-3.6492,-3.6492,-3.6492,-3.6492,-3.6492,-3.6492,-3.6492,-3.6492,-3.6492,-3.6492,-3.6492,-3.6492,-3.6492,0.0,0.0,0.0,0.0,-3.6492,-3.6492,-3.6492,-3.6492,-3.6492,-3.6492,-3.6492,-3.6492,-3.6492,-3.6492,-3.6492,-3.6492,-3.6492,-3.6492,-3.6492,-3.6492,-3.6492,-3.6492,-3.6492,-3.6492,-3.6492,-3.6492,-3.6492,-3.6492,-3.6492,-3.6492,-3.6492,-3.6492,-3.6492,-3.6492,-3.6492,-3.6492,-3.6492,-3.6492,-3.6492,-3.6492,-3.6492,-3.6492,-3.6492,-3.6492,-3.6492,-3.6289,-3.5752,-3.5672,-3.5209,-3.4058,-3.2882,-3.2198,-3.2198,-3.1754,-3.1485,-3.1485,-3.1485,-3.1176,-3.0512,-3.0498,-3.0189,-2.9617,-2.9602,-2.9602,-2.9602,-2.9602,-2.9602,-2.8901,-3.0138,-3.0891,-2.9622,-2.8519,-2.7231,-2.5163,-2.4206,-2.3386,-2.2071,-2.2063,-2.2296,-2.2296,-2.2296,-2.2716,-2.3949,-2.423,0.0,0.0,0.0,0.0,-3.3583,-3.636,0.0,0.0,0.0,0.0,0.0,0.0,0.0,-3.6523,-3.6492,-3.6492,-3.6492,-3.6492,-3.6492,-3.6492,-3.6492,-3.6492,-3.6492,-3.6492,-3.6492,-3.6492,-3.6492,-3.6492,0.0,0.0,0.0,0.0,-3.6492,-3.6492,-3.6492,-3.6492,-3.6492,-3.6492,-3.6492,-3.6492,-3.6492,-3.6492,-3.6492,-3.6492,-3.6492,-3.6492,-3.6492,-3.6492,-3.6492,-3.6492,-3.6492,-3.6492,-3.6492,-3.6492,-3.6492,-3.6492,-3.6492,-3.6492,-3.6492,-3.6492,-3.6492,-3.6492,-3.6492,-3.6492,-3.6492,-3.6492,-3.6492,-3.6492,-3.6492,-3.6492,-3.6492,-3.6492,-3.6492,-3.6414,-3.6258,-3.6258,-3.5804,-3.4727,-3.4259,-3.3879,-3.3513,-3.2987,-3.2691,-3.2721,-3.1935,-3.1794,-3.2392,-3.1612,-3.1288,-3.1513,-3.1092,-3.0895,-3.0895,-3.0895,-3.0895,-2.6842,-2.7962,-2.8602,-2.7621,-2.6826,-2.5882,-2.4347,-2.3687,-2.31,-2.2021,-2.2063,-2.2296,-2.2296,-2.2296,-2.2598,-2.3511,-2.374,0.0,0.0,0.0,0.0,-3.4017,0.0,0.0,0.0,0.0,0.0,0.0,0.0,0.0,-3.6492,-3.6492,-3.6492,-3.6492,-3.6492,-3.6492,-3.6492,-3.6492,-3.6492,-3.6492,-3.6492,-3.6492,-3.6492,-3.6492,-3.6492,0.0,0.0,0.0,0.0,-3.6492,-3.6492,-3.6492,-3.6492,-3.6492,-3.6492,-3.6492,-3.6492,-3.6492,-3.6492,-3.6492,-3.6492,-3.6492,-3.6492,-3.6492,-3.6492,-3.6492,-3.6492,-3.6492,-3.6492,-3.6492,-3.6492,-3.6492,-3.6492,-3.6492,-3.6492,-3.6492,-3.6492,-3.6492,-3.6492,-3.6492,-3.6492,-3.6492,-3.6492,-3.6492,-3.6492,-3.6492,-3.6492,-3.6492,-3.6492,-3.6492,-3.6492,-3.6492,-3.6492,-3.6226,-3.5559,-3.5317,-3.4975,-3.4442,-3.406,-3.3676,-3.3312,-3.2772,-3.2617,-3.296,-3.2216,-3.1907,-3.2061,-3.1668,-3.1485,-3.1485,-3.1485,-3.1485,0.0,-2.5945,-2.6437,-2.6387,-2.5846,-2.5074,-2.4064,-2.3554,0.0,-2.2004,-2.2063,-2.2313,-2.2364,-2.233,-2.2347,-2.2499,-2.2638,0.0,0.0,-2.8154,0.0,0.0,0.0,0.0,0.0,0.0,0.0,0.0,0.0,0.0,-3.6492,-3.6492,-3.6492,-3.6492,-3.6492,-3.6492,-3.6492,-3.6492,-3.6492,-3.6492,-3.6492,-3.6492,-3.6492,-3.6492,-3.6492,0.0,0.0,0.0,0.0,-3.6492,-3.6492,-3.6492,-3.6492,-3.6492,-3.6492,-3.6492,-3.6492,-3.6492,-3.6492,-3.6492,-3.6492,-3.6492,-3.6492,-3.6492,-3.6492,-3.6492,-3.6492,-3.6492,-3.6492,-3.6492,-3.6492,-3.6492,-3.6492,-3.6492,-3.6492,-3.6492,-3.6492,-3.6492,-3.6492,-3.6492,-3.6492,-3.6492,-3.6492,-3.6492,-3.6492,-3.6492,-3.6492,-3.6492,-3.6492,-3.6492,-3.6492,-3.6492,-3.6492,-3.6492,-3.646,-3.6022,-3.5512,-3.4957,-3.4909,-3.4423,-3.3347,-3.3791,-3.3554,-3.2483,-3.2469,-3.2188,-3.1626,-3.1626,-3.1626,-3.1626,-3.1626,-3.1626,-2.2926,0.0,-2.4036,-2.3477,-2.3013,-2.2633,0.0,-2.2237,-2.2101,-2.186,-2.2063,-2.2465,-2.3038,-2.2682,-2.2854,-2.4544,0.0,0.0,-2.7561,0.0,0.0,0.0,0.0,0.0,0.0,0.0,0.0,0.0,0.0,-3.6492,-3.6492,-3.6492,-3.6492,-3.6492,-3.6492,-3.6492,-3.6492,-3.6492,-3.6492,-3.6492,-3.6492,-3.6492,-3.6492,-3.6492,-3.6492,0.0,0.0,0.0,-3.6492,-3.6492,-3.6492,-3.6492,-3.6492,-3.6492,-3.6492,-3.6492,-3.6492,-3.6492,-3.6492,-3.6492,-3.6492,-3.6492,-3.6492,-3.6492,-3.6492,-3.6492,-3.6492,-3.6492,-3.6492,-3.6492,-3.6492,-3.6492,-3.6492,-3.6492,-3.6492,-3.6492,-3.6492,-3.6492,-3.6492,-3.6492,-3.6492,-3.6492,-3.6492,-3.6492,-3.6492,-3.6492,-3.6492,-3.6492,-3.6492,-3.6492,-3.6492,-3.6492,-3.6492,-3.632,-3.5926,-3.6163,-3.5926,-3.4942,-3.4909,-3.4423,-3.3347,-3.3417,-3.3381,-3.3066,-3.3066,-3.3031,-3.289,-3.289,-3.289,-3.289,-3.289,-3.289,-2.2063,-2.2716,-2.3262,-2.2681,-2.2536,-2.249,-2.2293,-2.2014,-2.1842,-2.2005,-2.2049,-2.224,-2.2789,-2.2852,-2.3308,0.0,-2.553,0.0,0.0,0.0,0.0,0.0,0.0,0.0,0.0,0.0,0.0,0.0,0.0,-3.6492,-3.6492,-3.6492,-3.6492,-3.6492,-3.6492,-3.6492,-3.6492,-3.6492,-3.6492,-3.6492,-3.6492,-3.6492,-3.6492,-3.6492,-3.6492,0.0,0.0,0.0,-3.6492,-3.6492,-3.6492,-3.6492,-3.6492,-3.6492,-3.6492,-3.6492,-3.6492,-3.6492,-3.6492,-3.6492,-3.6492,-3.6492,-3.6492,-3.6492,-3.6492,-3.6492,-3.6492,-3.6492,-3.6492,-3.6492,-3.6492,-3.6492,-3.6492,-3.6492,-3.6492,-3.6492,-3.6492,-3.6492,-3.6492,-3.6492,-3.6492,-3.6492,-3.6492,-3.6492,-3.6492,-3.6492,-3.6492,-3.6492,-3.6492,-3.6492,-3.6492,-3.6492,-3.6492,-3.6289,-3.5752,-3.5958,-3.5688,-3.461,-3.4776,-3.4423,-3.3347,-3.3542,-3.3542,-3.3312,-3.329,-3.329,-3.329,-3.329,-3.329,-3.329,-3.329,-3.329,-2.1915,-2.2675,-2.336,-2.2789,-2.293,-2.3134,-2.2742,-2.2198,-2.1886,-2.224,-2.2063,-2.2026,-2.2541,-2.3139,0.0,0.0,0.0,0.0,0.0,0.0,0.0,0.0,0.0,0.0,0.0,0.0,0.0,0.0,0.0,-3.6492,-3.6492,-3.6492,-3.6492,-3.6492,-3.6492,-3.6492,-3.6492,-3.6492,-3.6492,-3.6492,-3.6492,-3.6492,-3.6492,-3.6492,-3.6492,-3.6492,0.0,0.0,-3.6492,-3.6492,-3.6492,-3.6492,-3.6492,-3.6492,-3.6492,-3.6492,-3.6492,-3.6492,-3.6492,-3.6492,-3.6492,-3.6492,-3.6492,-3.6492,-3.6492,-3.6492,-3.6492,-3.6492,-3.6492,-3.6492,-3.6492,-3.6492,-3.6492,-3.6492,-3.6492,-3.6492,-3.6492,-3.6492,-3.6492,-3.6492,-3.6492,-3.6492,-3.6492,-3.6492,-3.6492,-3.6492,-3.6492,-3.6492,-3.6492,-3.6492,-3.6492,-3.6492,-3.6492,-3.6258,-3.5623,-3.5591,-3.5121,-3.4051,-3.4476,-3.4322,-3.3347,-3.3736,-3.3756,-3.3326,-3.329,-3.329,-3.329,-3.329,-3.329,-3.329,-3.329,-3.329,-2.2005,-2.3046,-2.3599,-2.2276,-2.2209,-2.2377,-2.2035,-2.1864,-2.1886,-2.224,-2.2268,-2.2625,-2.3917,-2.4254,-2.4982,0.0,0.0,0.0,0.0,0.0,0.0,0.0,0.0,0.0,0.0,0.0,0.0,0.0,0.0,0.0,-3.6492,-3.6492,-3.6492,-3.6492,-3.6492,-3.6492,-3.6492,-3.6492,-3.6492,-3.6492,-3.6492,-3.6492,-3.6492,-3.6492,-3.6492,-3.6492,0.0,-3.6492,-3.6492,-3.6492,-3.6492,-3.6492,-3.6492,-3.6492,-3.6492,-3.6492,-3.6492,-3.6492,-3.6492,-3.6492,-3.6492,-3.6492,-3.6492,-3.6492,-3.6492,-3.6492,-3.6492,-3.6492,-3.6492,-3.6492,-3.6492,-3.6492,-3.6492,-3.6492,-3.6492,-3.6492,-3.6492,-3.6492,-3.6492,-3.6492,-3.6492,-3.6492,-3.6492,-3.6492,-3.6492,-3.6492,-3.6492,-3.6492,-3.6492,-3.6492,-3.6492,-3.6492,-3.6492,-3.6085,-3.5121,-3.5008,-3.4558,-3.3486,-3.3928,-3.3962,-3.3326,-3.3382,-3.3382,-3.329,-3.329,-3.329,-3.329,-3.329,-3.329,-3.329,-3.329,-3.329,-2.1406,-2.2131,-2.2652,-2.1973,-2.2949,-2.3818,-2.2867,-2.2654,-2.2831,-2.3373,-2.3175,-2.3272,-2.4496,0.0,-2.6758,-2.9567,0.0,0.0,0.0,0.0,0.0,0.0,0.0,0.0,0.0,0.0,0.0,0.0,0.0,0.0,-3.6492,-3.6492,-3.6492,-3.6492,-3.6492,-3.6492,-3.6492,-3.6492,-3.6492,-3.6492,-3.6492,-3.6492,-3.6492,-3.6492,-3.6492,-3.6492,0.0,-3.6492,-3.6492,-3.6492,-3.6492,-3.6492,-3.6492,-3.6492,-3.6492,-3.6492,-3.6492,-3.6492,-3.6492,-3.6492,-3.6492,-3.6492,-3.6492,-3.6492,-3.6492,-3.6492,-3.6492,-3.6492,-3.6492,-3.6492,-3.6492,-3.6492,-3.6492,-3.6492,-3.6492,-3.6492,-3.6492,-3.6492,-3.6492,-3.6492,-3.6492,-3.6492,-3.6492,-3.6492,-3.6492,-3.6492,-3.6492,-3.6492,-3.6492,-3.6492,-3.6492,-3.6492,-3.6492,-3.6195,-3.5382,-3.5088,-3.4457,-3.3347,-3.3542,-3.3577,-3.3326,-3.329,-3.329,-3.329,-3.329,-3.329,-3.329,-3.329,-3.329,-3.329,-3.329,-3.329,-2.0934,-2.1358,-2.1804,-2.1715,-2.3256,-2.458,-2.3705,-2.3622,-2.3945,-2.4763,-2.456,-2.4547,0.0,-2.6965,0.0,-3.1725,0.0,0.0,0.0,0.0,0.0,0.0,0.0,0.0,0.0,0.0,0.0,0.0,0.0,0.0,-3.6492,-3.6492,-3.6492,-3.6492,-3.6492,-3.6492,-3.6492,-3.6492,-3.6492,-3.6492,-3.6492,-3.6492,-3.6492,-3.6492,-3.6492,-3.6492,-3.6492,-3.6492,-3.6492,-3.6492,-3.6492,-3.6492,-3.6492,-3.6492,-3.6492,-3.6492,-3.6492,-3.6492,-3.6492,-3.6492,-3.6492,-3.6492,-3.6492,-3.6492,-3.6492,-3.6492,-3.6492,-3.6492,-3.6492,-3.6492,-3.6492,-3.6492,-3.6492,-3.6492,-3.6492,-3.6492,-3.6492,-3.6492,-3.6492,-3.6492,-3.6492,-3.6492,-3.6492,-3.6492,-3.6492,-3.6492,-3.6492,-3.6492,-3.6492,-3.6492,-3.6492,-3.6492,-3.6398,-3.6053,-3.5382,-3.4824,-3.4167,-3.3347,-3.329,-3.329,-3.329,-3.329,-3.329,-3.329,-3.329,-3.329,-3.329,-3.329,-3.329,-3.329,-3.329,-3.329,-2.1111,-2.1565,-2.1805,-2.1432,-2.1954,-2.2747,-2.3584,-2.4241,-2.4974,-2.5973,-2.6479,-2.6991,0.0,-2.9733,-3.1569,-3.2812,0.0,0.0,0.0,0.0,0.0,0.0,0.0,0.0,0.0,0.0,0.0,0.0,0.0,0.0,-3.6492,-3.6492,-3.6492,-3.6492,-3.6492,-3.6492,-3.6492,-3.6492,-3.6492,-3.6492,-3.6492,-3.6492,-3.6492,-3.6492,-3.6492,-3.6492,-3.6492,-3.6492,-3.6492,-3.6492,-3.6492,-3.6492,-3.6492,-3.6492,-3.6492,-3.6492,-3.6492,-3.6492,-3.6492,-3.6492,-3.6492,-3.6492,-3.6492,-3.6492,-3.6492,-3.6492,-3.6492,-3.6492,-3.6492,-3.6492,-3.6492,-3.6492,-3.6492,-3.6492,-3.6492,-3.6492,-3.6492,-3.6492,-3.6492,-3.6492,-3.6492,-3.6492,-3.6492,-3.6492,-3.6492,-3.6492,-3.6492,-3.6492,-3.6492,-3.6492,-3.6492,-3.6492,-3.6053,-3.535,-3.4308,-3.3736,-3.3382,-3.3312,-3.329,-3.329,-3.329,-3.329,-3.329,-3.329,-3.329,-3.329,-3.329,-3.329,-3.329,-3.329,-3.329,-3.329,-2.0505,-2.1089,-2.1597,-2.1864,-2.2895,-2.397,-2.4378,-2.5362,-2.6579,-2.8057,-2.8281,-2.8462,0.0,0.0,-3.1985,0.0,0.0,0.0,0.0,0.0,0.0,0.0,0.0,0.0,0.0,0.0,0.0,0.0,0.0,0.0,0.0,-3.6492,-3.6492,-3.6492,-3.6492,-3.6492,-3.6492,-3.6492,-3.6492,-3.6492,-3.6492,-3.6492,-3.6492,-3.6492,-3.6492,-3.6492,-3.6492,-3.6492,-3.6492,-3.6492,-3.6492,-3.6492,-3.6492,-3.6492,-3.6492,-3.6492,-3.6492,-3.6492,-3.6492,-3.6492,-3.6492,-3.6492,-3.6492,-3.6492,-3.6492,-3.6492,-3.6492,-3.6492,-3.6492,-3.6492,-3.6492,-3.6492,-3.6492,-3.6492,-3.6492,-3.6492,-3.6492,-3.6492,-3.6492,-3.6492,-3.6492,-3.6492,-3.6492,-3.6492,-3.6492,-3.6492,-3.6492,-3.6492,-3.6492,-3.6492,-3.6492,-3.6492,-3.6022,-3.5285,-3.4172,-3.3914,-3.3667,-3.3312,-3.329,-3.329,-3.329,-3.329,-3.329,-3.329,-3.329,-3.329,-3.329,-3.329,-3.329,-3.329,-3.329,-3.329,-1.9919,-2.0456,-2.115,-2.1827,-2.3173,-2.4561,-2.5477,-2.6681,-2.816,-3.0093,-3.0227,-3.017,-3.0863,0.0,0.0,0.0,0.0,0.0,0.0,0.0,0.0,0.0,0.0,0.0,0.0,0.0,0.0,0.0,0.0,0.0,0.0,-3.6492,-3.6492,-3.6492,-3.6492,-3.6492,-3.6492,-3.6492,-3.6492,-3.6492,-3.6492,-3.6492,-3.6492,-3.6492,-3.6492,-3.6492,-3.6492,-3.6492,-3.6492,-3.6492,-3.6492,-3.6492,-3.6492,-3.6492,-3.6492,-3.6492,-3.6492,-3.6492,-3.6492,-3.6492,-3.6492,-3.6492,-3.6492,-3.6492,-3.6492,-3.6492,-3.6492,-3.6492,-3.6492,-3.6492,-3.6492,-3.6492,-3.6492,-3.6492,-3.6492,-3.6492,-3.6492,-3.6492,-3.6492,-3.6492,-3.6492,-3.6492,-3.6492,-3.6676,-3.6738,-3.6522,-3.6676,-3.6738,-3.6522,-3.6492,-3.6429,-3.6258,-3.5784,-3.5088,-3.4172,-3.3831,-3.35,-3.3122,-3.3122,-3.3171,-3.3276,-3.329,-3.329,-3.329,-3.329,-3.329,-3.329,-3.329,-3.329,-3.329,-3.329,-3.329,-1.9472,-1.9795,-2.0489,-2.115,-2.2351,-2.4056,-2.6795,-2.8186,-2.956,-3.1925,-3.2262,-3.2321,-3.2972,-3.2573,0.0,0.0,0.0,0.0,0.0,0.0,0.0,0.0,0.0,0.0,0.0,0.0,0.0,0.0,0.0,0.0,0.0,-3.6492,-3.6492,-3.6492,-3.6492,-3.6492,-3.6492,-3.6492,-3.6492,-3.6492,-3.6492,-3.6492,-3.6492,-3.6492,-3.6492,-3.6492,-3.6492,-3.6492,-3.6492,-3.6492,-3.6492,-3.6492,-3.6492,-3.6492,-3.6492,-3.6492,-3.6492,-3.6492,-3.6492,-3.6492,-3.6492,-3.6492,-3.6492,-3.6492,-3.6492,-3.6492,-3.6492,-3.6492,-3.6492,-3.6492,-3.6492,-3.6492,-3.6492,-3.6492,-3.6492,-3.6492,-3.6492,-3.6492,-3.6492,-3.6492,-3.6492,-3.6492,-3.6507,-3.7061,-3.7277,-3.6599,-3.7076,-3.7261,-3.6599,-3.6492,-3.6289,-3.5752,-3.5219,-3.4677,-3.4153,-3.3255,-3.2704,-3.2704,-3.2704,-3.286,-3.329,-3.329,-3.329,-3.329,-3.329,-3.329,-3.329,-3.329,-3.329,-3.329,-3.329,-3.329,-1.9348,-2.0489,-2.1874,-2.2551,-2.481,-2.7226,-2.8519,-2.9039,-2.9985,-3.2579,-3.3478,-3.3699,-3.3377,0.0,0.0,0.0,0.0,0.0,0.0,0.0,0.0,0.0,0.0,0.0,0.0,0.0,0.0,0.0,0.0,0.0,0.0,-3.6492,-3.6492,-3.6492,-3.6492,-3.6492,-3.6492,-3.6492,-3.6492,-3.6492,-3.6492,-3.6492,-3.6492,-3.6492,-3.6492,-3.6492,-3.6492,-3.6492,-3.6492,-3.6492,-3.6492,-3.6492,-3.6492,-3.6492,-3.6492,-3.6492,-3.6492,-3.6492,-3.6492,-3.6492,-3.6492,-3.6492,-3.6492,-3.6492,-3.6492,-3.6492,-3.6492,-3.6492,-3.6492,-3.6492,-3.6492,-3.6492,-3.6492,-3.6492,-3.6492,-3.6492,-3.6492,-3.6492,-3.6492,-3.6492,-3.6492,-3.6645,-3.7123,-3.7369,-3.743,-3.723,-3.7769,-3.7969,-3.7292,-3.6784,-3.6289,-3.5752,-3.5219,-3.4677,-3.4153,-3.3255,-3.2704,-3.2704,-3.2417,-3.2453,-3.286,-3.3136,-3.329,-3.329,-3.329,-3.329,-3.329,-3.329,-3.329,-3.329,-3.329,-3.329,-1.9626,-2.0965,-2.2578,-2.3794,-2.6072,-2.8396,-2.9858,-3.0828,0.0,0.0,-3.4197,-3.4459,-3.426,-3.4397,0.0,0.0,0.0,0.0,0.0,0.0,0.0,0.0,0.0,0.0,0.0,0.0,0.0,0.0,0.0,0.0,0.0,0.0,0.0,0.0,-3.6492,-3.6492,-3.6492,-3.6492,-3.6492,-3.6492,-3.6492,-3.6492,-3.6492,-3.6492,-3.6492,-3.6492,-3.6492,-3.6492,-3.6492,-3.6492,-3.6492,-3.6492,-3.6492,-3.6492,-3.6492,-3.6492,-3.6492,-3.6492,-3.6492,-3.6492,-3.6492,-3.6492,-3.6492,-3.6492,-3.6492,-3.6492,-3.6492,-3.6492,-3.6492,-3.6492,-3.6492,-3.6492,-3.6492,-3.6492,-3.6492,-3.6492,-3.6492,-3.6492,-3.6492,-3.6492,-3.6707,-3.703,-3.743,-3.7938,-3.82,-3.7938,-3.8246,-3.8354,-3.7954,-3.7307,-3.675,-3.6449,-3.5709,-3.5023,-3.4476,-3.3555,-3.2938,-3.269,-3.2309,-3.22,-3.2453,-3.286,-3.3136,-3.329,-3.329,-3.329,-3.329,-3.329,-3.329,-3.329,-3.329,-3.329,-2.0042,-2.1273,-2.2871,-2.4902,-2.6595,-2.8411,-3.0931,-3.3011,-3.4428,-3.4489,0.0,-3.4874,-3.5491,0.0,0.0,0.0,0.0,0.0,0.0,0.0,0.0,0.0,0.0,0.0,0.0,0.0,0.0,0.0,0.0,0.0,0.0,0.0,0.0,-3.6492,-3.6492,-3.6492,-3.6492,-3.6492,-3.6492,-3.6492,-3.6492,-3.6492,-3.6492,-3.6492,-3.6492,-3.6492,-3.6492,-3.6492,-3.6492,-3.6492,-3.6492,-3.6492,-3.6492,-3.6492,-3.6492,-3.6492,-3.6492,-3.6492,-3.6492,-3.6492,-3.6492,-3.6492,-3.6492,-3.6492,-3.6492,-3.6492,-3.6492,-3.6492,-3.6492,-3.6492,-3.6492,-3.6492,-3.6492,-3.6492,-3.6492,-3.6492,-3.6492,-3.6538,-3.6584,-3.6584,-3.7138,-3.7615,-3.7677,-3.8708,-3.929,-3.8769,-3.8585,-3.8539,-3.86,-3.795,-3.752,-3.752,-3.6379,-3.5439,-3.4931,-3.3997,-3.3206,-3.2739,-3.2309,-3.2055,-3.2092,-3.2453,-3.281,-3.3241,-3.3255,-3.3241,-3.329,-3.329,-3.329,-3.329,-3.329,-3.329,-1.9472,-2.1257,-2.3579,-2.5641,-2.8389,-3.0812,-3.1921,-3.2936,-3.3798,-3.4382,-3.5352,-3.6107,0.0,0.0,0.0,0.0,0.0,0.0,0.0,0.0,0.0,0.0,0.0,0.0,0.0,0.0,0.0,0.0,0.0,0.0,0.0,0.0,0.0,-3.6492,-3.6492,-3.6492,-3.6492,-3.6492,-3.6492,0.0,-3.6492,-3.6492,-3.6492,-3.6492,-3.6492,-3.6492,-3.6492,-3.6492,-3.6492,-3.6492,-3.6492,-3.6492,-3.6492,-3.6492,-3.6492,-3.6492,-3.6492,-3.6492,-3.6492,-3.6492,-3.6492,-3.6492,-3.6492,-3.6492,-3.6492,-3.6492,-3.6492,-3.6492,-3.6492,-3.6492,-3.6492,-3.6492,-3.6492,-3.6492,-3.6492,-3.6492,-3.6492,-3.6907,-3.7277,-3.7277,-3.7831,-3.8462,-3.8985,-3.929,-3.9613,-3.9997,-3.9152,-3.8708,-3.9231,-3.8278,-3.7585,-3.7585,-3.6128,-3.5082,-3.4978,-3.3698,-3.2832,-3.2704,-3.2092,-3.185,-3.2092,-3.2164,-3.2417,-3.281,-3.281,-3.2966,-3.329,-3.329,-3.329,-3.329,-3.329,-3.329,-1.9979,-2.1981,-2.4518,-2.7565,0.0,-3.1593,-3.2244,-3.2921,-3.3506,-3.3875,-3.506,0.0,0.0,0.0,0.0,0.0,0.0,0.0,0.0,0.0,0.0,0.0,0.0,0.0,0.0,0.0,0.0,0.0,0.0,0.0,0.0,-3.6492,-3.6492,-3.6492,-3.6492,-3.6492,-3.6492,-3.6492,-3.6492,-3.6492,-3.6492,-3.6492,-3.6492,-3.6492,-3.6492,-3.6492,-3.6492,-3.6492,-3.6492,-3.6492,-3.6492,-3.6492,-3.6492,-3.6492,-3.6492,-3.6492,-3.6492,-3.6492,-3.6492,-3.6492,-3.6492,-3.6492,-3.6492,-3.6492,-3.6492,-3.6492,-3.6492,-3.6492,-3.6492,-3.6569,-3.6892,-3.6969,-3.7061,-3.7384,-3.6969,-3.6584,-3.6907,-3.7246,-3.76,-3.7923,-3.8539,-3.9108,-3.9428,-3.9751,-4.009,-4.0443,-3.989,-3.9499,-3.9577,-3.8689,-3.7992,-3.7714,-3.6549,-3.5584,-3.5035,-3.4249,-3.3578,-3.303,-3.2467,-3.22,-3.2381,-3.2055,-3.2019,-3.2417,-3.2417,-3.2525,-3.2731,-3.2909,-3.3016,-3.3016,-3.3206,-3.329,-2.027,-2.2578,-2.5379,-2.911,-3.0735,0.0,-3.209,-3.2752,-3.3229,-3.3229,0.0,0.0,0.0,0.0,0.0,0.0,0.0,0.0,0.0,0.0,0.0,0.0,0.0,0.0,0.0,0.0,0.0,0.0,0.0,0.0,-3.6492,-3.6492,-3.6492,-3.6492,-3.6492,-3.6492,-3.6492,-3.6492,-3.6492,-3.6492,-3.6492,-3.6492,-3.6492,-3.6492,-3.6492,-3.6492,-3.6492,-3.6492,-3.6492,-3.6492,-3.6492,-3.6492,-3.6492,-3.6492,-3.6492,-3.6492,-3.6492,-3.6492,-3.6492,-3.6492,-3.6492,-3.6492,-3.6492,-3.6492,-3.6492,-3.6492,-3.6492,-3.6492,-3.6569,-3.6799,-3.7353,-3.7584,-3.7815,-3.8369,-3.7646,-3.6999,-3.7554,-3.7769,-3.8015,-3.8569,-3.9198,-3.9659,-3.9659,-4.012,-4.0489,-4.0489,-4.0489,-4.0351,-3.991,-3.9134,-3.8456,-3.8022,-3.7168,-3.6199,-3.5253,-3.511,-3.4626,-3.3698,-3.3165,-3.2858,-3.2762,-3.2034,-3.1736,-3.1923,-3.1982,-3.2019,-3.2092,-3.2489,-3.2704,-3.2704,-3.3122,-3.329,-1.8376,0.0,-2.5727,0.0,-3.0043,-3.1439,0.0,0.0,-3.2521,0.0,0.0,0.0,0.0,0.0,0.0,0.0,0.0,0.0,0.0,0.0,0.0,0.0,0.0,0.0,0.0,0.0,0.0,0.0,0.0,0.0,-3.6461,-3.6492,-3.6492,-3.6492,-3.6492,-3.6492,-3.6492,-3.6492,-3.6492,-3.6492,-3.6492,-3.6492,-3.6492,-3.6492,-3.6492,-3.6492,-3.6492,-3.6492,-3.6492,-3.6492,-3.6492,-3.6492,-3.6492,-3.6492,-3.6492,-3.6492,-3.6492,-3.6492,-3.6492,-3.6492,-3.6492,-3.6492,-3.6492,-3.6492,-3.6492,-3.6492,-3.6492,-3.6492,-3.6907,-3.7384,-3.7477,-3.7938,-3.84,-3.8492,-3.8369,-3.8262,-3.8354,-3.8831,-3.9244,-3.9336,-3.9905,-4.0366,-4.0366,-4.0428,-4.0489,-4.0489,-4.0489,-4.0455,-4.0385,-3.9433,-3.8759,-3.8649,-3.7158,-3.6123,-3.5977,-3.5469,-3.5094,-3.495,-3.4203,-3.3519,-3.3067,-3.2215,-3.1559,-3.1136,-3.1482,-3.1813,-3.2092,-3.2489,-3.2704,-3.2704,-3.3122,-3.329,-1.9899,-2.2559,-2.5333,0.0,-2.9058,-3.0012,-3.1147,0.0,-3.1936,0.0,0.0,0.0,0.0,0.0,0.0,0.0,0.0,0.0,0.0,0.0,0.0,0.0,0.0,0.0,0.0,0.0,0.0,0.0,0.0,-3.5075,-3.5367,-3.5383,-3.5383,-3.5383,-3.5383,-3.5383,-3.5383,-3.5737,-3.6122,-3.6492,-3.6492,-3.6492,-3.6492,-3.6492,-3.6492,-3.6492,-3.6492,-3.6492,-3.6492,-3.6492,-3.6492,-3.6492,-3.6492,-3.6492,-3.6492,-3.6492,-3.6492,-3.6492,-3.6492,-3.6492,-3.6492,-3.6492,-3.6492,-3.6492,-3.6492,-3.6492,-3.6569,-3.6953,-3.7277,-3.7677,-3.8431,-3.8846,-3.917,-3.9521,-3.9613,-3.9613,-3.9613,-3.9551,-3.9598,-3.9982,-4.029,-4.0489,-4.0489,-4.0246,-4.0141,-4.0455,-3.995,-3.9544,-3.9544,-3.8804,-3.8188,-3.781,-3.7086,-3.6483,-3.6131,-3.5864,-3.5442,-3.4845,-3.4465,-3.4039,-3.3566,-3.2659,-3.2011,-3.1798,-3.1431,-3.1347,-3.1482,-3.1873,-3.2092,-3.2092,-3.2682,-3.2966,-2.0703,0.0,-2.3933,-2.6688,-2.7765,-2.8581,0.0,0.0,0.0,0.0,0.0,0.0,0.0,0.0,0.0,0.0,0.0,0.0,0.0,0.0,0.0,0.0,0.0,0.0,0.0,0.0,0.0,0.0,0.0,-3.4305,-3.4489,-3.4505,-3.4505,-3.4505,-3.4505,-3.4505,-3.4505,-3.5013,-3.5568,-3.6245,-3.6245,-3.6322,-3.6492,-3.6492,-3.6492,-3.6492,-3.6492,-3.6492,-3.6492,-3.6492,-3.6492,-3.6492,-3.6492,-3.6492,-3.6492,-3.6492,-3.6492,-3.6492,-3.6492,-3.6492,-3.6492,-3.6492,-3.6492,-3.6492,-3.6492,-3.6615,-3.6861,-3.7353,-3.7754,-3.8246,-3.9262,-3.9613,-3.9859,-4.0366,-4.0489,-4.0489,-4.0489,-4.0105,-3.989,-4.0397,-4.0489,-4.0489,-4.0489,-4.0036,-3.9824,-4.0246,-3.9436,-3.8782,-3.8782,-3.8263,-3.7734,-3.7289,-3.7095,-3.6796,-3.6385,-3.6342,-3.5993,-3.519,-3.4934,-3.4596,-3.4177,-3.323,-3.2549,-3.2245,-3.157,-3.113,-3.0986,-3.1421,-3.1593,-3.1629,-3.2237,-3.2596,-1.887,-1.998,0.0,-2.384,-2.5995,-2.7642,0.0,0.0,0.0,0.0,0.0,0.0,0.0,0.0,0.0,0.0,0.0,0.0,0.0,0.0,0.0,0.0,0.0,0.0,0.0,0.0,0.0,0.0,0.0,-3.3752,-3.4459,-3.4505,-3.4505,-3.4505,-3.4505,-3.4505,-3.4505,-3.4536,-3.489,-3.5568,-3.5568,-3.5876,-3.6492,-3.6492,-3.6492,-3.6492,-3.6492,-3.6492,-3.6492,-3.6492,-3.6492,-3.6492,-3.6492,-3.6492,-3.6492,-3.6492,-3.6492,-3.6492,-3.6492,-3.6492,-3.6492,-3.6492,-3.6492,-3.6492,-3.6492,-3.6938,-3.7461,-3.7492,-3.8431,-3.9398,-3.9474,-3.9967,-4.0459,-4.0489,-4.0489,-4.0489,-4.0489,-4.0459,-4.0459,-4.0489,-4.0489,-4.0489,-4.0489,-4.0036,-3.9717,-3.9753,-3.9199,-3.8782,-3.8782,-3.8263,-3.7886,-3.7848,-3.7327,-3.6978,-3.695,-3.6936,-3.6922,-3.6894,-3.6094,-3.541,-3.4879,-3.402,-3.3013,-3.1862,-3.1771,-3.1497,-3.0986,-3.1421,-3.1593,-3.1593,-3.1982,-3.2345,-1.8269,0.0,0.0,-2.2671,-2.4225,-2.5703,-2.6788,0.0,0.0,0.0,0.0,0.0,0.0,0.0,0.0,0.0,0.0,0.0,0.0,0.0,0.0,0.0,0.0,0.0,0.0,0.0,0.0,0.0,0.0,0.0,-3.3149,-3.3165,-3.3165,-3.3165,-3.3165,-3.3352,-3.3783,-3.3783,-3.4137,-3.4874,-3.5306,-3.5645,-3.5861,-3.6292,-3.6492,-3.6492,-3.6492,-3.6492,-3.6492,-3.6492,-3.6492,-3.6492,-3.6492,-3.6492,-3.6492,-3.6492,-3.6492,-3.6492,-3.6492,-3.6492,-3.6492,-3.6492,-3.6492,-3.6492,-3.6492,-3.6969,-3.7584,-3.8031,-3.8816,-3.9582,-4.0013,-4.032,-4.0489,-4.0489,-4.0489,-4.0489,-4.0489,-4.0489,-4.0489,-4.0489,-4.0489,-4.0489,-4.0489,-4.0036,-3.9681,-3.9681,-3.887,-3.8225,-3.8225,-3.7696,-3.7327,-3.7327,-3.7134,-3.6915,-3.6654,-3.6836,-3.6744,-3.6191,-3.6178,-3.5803,-3.5063,-3.4366,-3.366,-3.2973,-3.2189,-3.1523,-3.0986,-3.1123,-3.1198,-3.1235,-3.1593,-3.185,-1.7685,-1.9038,0.0,0.0,0.0,-2.3763,-2.5558,0.0,0.0,0.0,0.0,0.0,0.0,0.0,0.0,0.0,0.0,0.0,0.0,0.0,0.0,0.0,0.0,0.0,0.0,0.0,0.0,0.0,0.0,0.0,-3.2398,-3.2398,-3.2398,-3.2398,-3.2398,-3.2613,-3.3059,-3.3059,-3.3413,-3.415,-3.4844,-3.529,-3.5537,-3.6184,-3.6492,-3.6492,-3.6492,-3.6492,-3.6492,-3.6492,-3.6492,-3.6492,-3.6492,-3.6492,-3.6492,-3.6492,-3.6492,-3.6492,-3.6492,-3.6492,-3.6492,-3.6492,-3.6492,-3.6538,-3.6769,-3.7292,-3.7984,-3.8662,-3.9339,-3.992,-4.0382,-4.0489,-4.0489,-4.0489,-4.0489,-4.0489,-4.0489,-4.0489,-4.0489,-4.0489,-4.0489,-4.0489,-4.0489,-4.0036,-3.961,-3.943,-3.8523,-3.781,-3.762,-3.725,-3.6978,-3.6978,-3.6978,-3.6836,-3.6431,-3.6654,-3.6482,-3.575,-3.5858,-3.5696,-3.5127,-3.4577,-3.4056,-3.36,-3.262,-3.1849,-3.1274,-3.1078,-3.0986,-3.1024,-3.1272,-3.1482,0.0,0.0,0.0,0.0,0.0,0.0,0.0,0.0,0.0,0.0,0.0,0.0,0.0,0.0,0.0,0.0,0.0,0.0,0.0,0.0,0.0,0.0,0.0,0.0,0.0,0.0,0.0,0.0,0.0,-3.2398,-3.2398,-3.2398,-3.2398,-3.2398,-3.2398,-3.2398,-3.2398,-3.2398,-3.2721,-3.3383,-3.415,-3.4844,-3.5476,-3.6184,-3.6492,-3.6492,-3.6492,-3.6492,-3.6492,-3.6492,-3.6492,-3.6492,-3.6492,-3.6492,-3.6492,-3.6492,-3.6492,-3.6492,-3.6492,-3.6492,-3.6492,-3.6492,-3.6492,-3.6615,-3.7292,-3.7969,-3.8646,-3.929,-3.9967,-4.0489,-4.0489,-4.0489,-4.0489,-4.0489,-4.0489,-4.0489,-4.0489,-4.0489,-4.0489,-4.0489,-4.0489,-4.0489,-4.0489,-4.0036,-3.9502,-3.887,-3.8263,-3.7696,-3.7095,-3.6978,-3.6978,-3.6978,-3.6978,-3.6836,-3.6431,-3.6405,-3.6192,-3.571,-3.5318,-3.5127,-3.5086,-3.4647,-3.4149,-3.3626,-3.3012,-3.2411,-3.1823,-3.1274,-3.0986,-3.0986,-3.0986,-3.1235,-1.7147,0.0,0.0,0.0,0.0,0.0,0.0,0.0,0.0,0.0,0.0,0.0,0.0,0.0,0.0,0.0,0.0,0.0,0.0,0.0,0.0,0.0,0.0,0.0,0.0,0.0,0.0,0.0,-3.2398,-3.2398,-3.2398,-3.2398,-3.2398,-3.2398,-3.2398,-3.2398,-3.2398,-3.2398,-3.249,-3.269,-3.3935,-3.4597,-3.4828,-3.5953,-3.6492,-3.6492,-3.6492,-3.6492,-3.6492,-3.6492,-3.6492,-3.6492,-3.6492,-3.6492,-3.6492,-3.6492,-3.6492,-3.6492,-3.6492,-3.6492,-3.6492,-3.6492,-3.6492,-3.6615,-3.7292,-3.7969,-3.8646,-3.929,-3.9967,-4.0489,-4.0489,-4.0489,-4.0489,-4.0489,-4.0489,-4.0489,-4.0489,-4.0489,-4.0489,-4.0489,-4.0489,-4.0385,-4.0001,-3.9788,-3.9343,-3.83,-3.8,-3.7696,-3.7095,-3.6978,-3.6978,-3.6978,-3.6978,-3.6836,-3.6431,-3.6405,-3.6192,-3.571,-3.5602,-3.5399,-3.5127,-3.5003,-3.4664,-3.4175,-3.3195,-3.262,-3.245,-3.147,-3.0986,-3.0986,-3.0986,-3.1235,-1.7623,-1.8438,0.0,0.0,0.0,0.0,0.0,-2.1519,0.0,0.0,0.0,0.0,0.0,0.0,0.0,0.0,0.0,0.0,0.0,0.0,0.0,0.0,0.0,0.0,0.0,0.0,0.0,-3.2398,-3.2398,-3.2398,-3.2398,-3.2398,-3.2398,-3.2398,-3.2398,-3.2398,-3.2398,-3.2398,-3.2398,-3.2398,-3.3506,-3.4212,-3.4536,-3.5614,-3.623,-3.6492,-3.6492,-3.6492,-3.6492,-3.6492,-3.6492,-3.6492,-3.6492,-3.6492,-3.6492,-3.6492,-3.6492,-3.6492,-3.6492,-3.6492,-3.6492,-3.6492,-3.6676,-3.703,-3.7707,-3.84,-3.9077,-3.9721,-4.0197,-4.0489,-4.0489,-4.0489,-4.0489,-4.0489,-4.0489,-4.0489,-4.0489,-4.0489,-4.0489,-4.0489,-4.0316,-4.0071,-3.9753,-3.9502,-3.9017,-3.8037,-3.7886,-3.7696,-3.7095,-3.6978,-3.6978,-3.6978,-3.6978,-3.6836,-3.6431,-3.6232,-3.5938,-3.548,-3.5263,-3.5059,-3.4825,-3.4825,-3.4701,-3.4397,-3.3522,-3.2829,-3.2333,-3.1431,-3.0986,-3.0986,-3.0986,-3.1123,-1.8345,-1.8854,-1.9533,0.0,0.0,0.0,-2.1316,-2.1504,0.0,0.0,0.0,0.0,0.0,0.0,0.0,0.0,0.0,0.0,0.0,0.0,0.0,0.0,0.0,0.0,0.0,-3.2351,-3.2398,-3.2398,-3.2398,-3.2398,-3.2398,-3.2398,-3.2398,-3.2398,-3.2398,-3.2398,-3.2398,-3.2398,-3.2398,-3.2398,-3.3075,-3.3783,-3.452,-3.5198,-3.5891,-3.6492,-3.6492,-3.6492,-3.6492,-3.6492,-3.6492,-3.6492,-3.6492,-3.6492,-3.6492,-3.6492,-3.6492,-3.6492,-3.6492,-3.6492,-3.6492,-3.6492,-3.6892,-3.7523,-3.8277,-3.8923,-3.9536,-4.0274,-4.0489,-4.0489,-4.0489,-4.0489,-4.0489,-4.0489,-4.0489,-4.0489,-4.0489,-4.0455,-4.042,-4.042,-4.0036,-3.9646,-3.9538,-3.9053,-3.8486,-3.7886,-3.781,-3.7634,-3.7056,-3.6978,-3.6978,-3.6978,-3.6978,-3.6836,-3.651,-3.6058,-3.5602,-3.5195,-3.4729,-3.4439,-3.4397,-3.4397,-3.4397,-3.4397,-3.3862,-3.3012,-3.1797,-3.1261,-3.0986,-3.0986,-3.0986,-3.0986,-1.9224,-1.9578,-2.0011,-1.9595,0.0,0.0,-1.9145,-1.9777,0.0,0.0,0.0,0.0,0.0,0.0,0.0,0.0,0.0,0.0,0.0,0.0,0.0,0.0,0.0,0.0,0.0,-3.2074,-3.2398,-3.2398,-3.2398,-3.2398,-3.2398,-3.2398,-3.2398,-3.2398,-3.2398,-3.2398,-3.2398,-3.2398,-3.2398,-3.2398,-3.3075,-3.3783,-3.452,-3.5198,-3.5891,-3.6492,-3.6492,-3.6492,-3.6492,-3.6492,-3.6492,-3.6492,-3.6492,-3.6492,-3.6492,-3.6492,-3.6492,-3.6492,-3.6492,-3.6492,-3.6492,-3.6492,-3.6584,-3.6923,-3.8138,-3.86,-3.897,-4.0151,-4.0489,-4.0489,-4.0489,-4.0489,-4.0489,-4.0489,-4.0489,-4.0489,-4.0489,-4.0176,-3.9859,-3.9859,-3.9753,-3.9379,-3.8412,-3.815,-3.7886,-3.7289,-3.7173,-3.7134,-3.7017,-3.6978,-3.6978,-3.6978,-3.6978,-3.6993,-3.6875,-3.6496,-3.6058,-3.5602,-3.5195,-3.4784,-3.4397,-3.4397,-3.4397,-3.4397,-3.3862,-3.3012,-3.1797,-3.1261,-3.0986,-3.0986,-3.0986,-3.0986,-1.998,-2.0042,-2.0304,-2.0304,0.0,0.0,0.0,0.0,0.0,0.0,0.0,0.0,0.0,0.0,0.0,0.0,0.0,0.0,0.0,0.0,0.0,0.0,0.0,0.0,0.0,-3.1213,-3.1551,-3.1859,-3.189,-3.2044,-3.2382,-3.2398,-3.2398,-3.2398,-3.2398,-3.2398,-3.2398,-3.2398,-3.2398,-3.2398,-3.2736,-3.3444,-3.452,-3.4859,-3.5568,-3.6492,-3.6492,-3.6492,-3.6492,-3.6492,-3.6492,-3.6492,-3.6492,-3.6492,-3.6492,-3.6492,-3.6492,-3.6492,-3.6492,-3.6492,-3.6492,-3.6492,-3.6722,-3.7184,-3.82,-3.8985,-3.9628,-4.0305,-4.0489,-4.0489,-4.0489,-4.0489,-4.0489,-4.0489,-4.0489,-4.0489,-4.0489,-4.0281,-4.0001,-3.9753,-3.9466,-3.8965,-3.8075,-3.7658,-3.7366,-3.707,-3.6836,-3.6693,-3.6693,-3.6522,-3.635,-3.635,-3.635,-3.635,-3.635,-3.5965,-3.5656,-3.5399,-3.499,-3.466,-3.4397,-3.4397,-3.4397,-3.4397,-3.3862,-3.33,-3.2712,-3.1836,-3.1261,-3.0986,-3.0986,-3.0986,0.0,0.0,0.0,0.0,0.0,-2.0381,0.0,0.0,0.0,0.0,0.0,0.0,0.0,0.0,0.0,0.0,0.0,0.0,0.0,0.0,0.0,0.0,0.0,0.0,0.0,-3.0002,-3.0366,-3.1136,-3.0951,-3.1228,-3.2151,-3.2198,-3.2259,-3.2398,-3.2398,-3.2398,-3.2398,-3.2398,-3.2398,-3.2398,-3.2398,-3.3149,-3.4505,-3.4505,-3.5244,-3.6492,-3.6492,-3.6492,-3.6492,-3.6492,-3.6492,-3.6492,-3.6492,-3.6492,-3.6492,-3.6492,-3.6492,-3.6492,-3.6492,-3.6492,-3.6492,-3.6492,-3.703,-3.78,-3.8354,-3.9428,-4.0489,-4.0489,-4.0489,-4.0489,-4.0489,-4.0489,-4.0489,-4.0489,-4.0489,-4.0489,-4.0489,-4.042,-4.0211,-3.9788,-3.9126,-3.8486,-3.8,-3.7404,-3.6978,-3.6978,-3.6654,-3.6405,-3.6405,-3.5978,-3.571,-3.571,-3.571,-3.571,-3.571,-3.5399,-3.5195,-3.5086,-3.4729,-3.4481,-3.4397,-3.4397,-3.4397,-3.4397,-3.3966,-3.3692,-3.3587,-3.2607,-3.1784,-3.1143,-3.1039,-3.0986,0.0,0.0,0.0,0.0,-2.2536,0.0,0.0,0.0,0.0,0.0,0.0,0.0,0.0,0.0,0.0,0.0,0.0,0.0,0.0,0.0,0.0,0.0,0.0,0.0,0.0,0.0,-2.9166,-3.0417,-2.9427,-2.955,-3.1424,-3.1516,-3.1782,-3.2367,-3.2398,-3.2398,-3.2398,-3.2398,-3.2398,-3.2398,-3.2398,-3.3149,-3.4505,-3.4505,-3.5244,-3.6492,-3.6492,-3.6492,-3.6492,-3.6492,-3.6492,-3.6492,-3.6492,-3.6492,-3.6492,-3.6492,-3.6492,-3.6492,-3.6492,-3.6492,-3.6492,-3.6492,-3.7353,-3.8415,-3.8492,-3.9428,-4.0489,-4.0489,-4.0489,-4.0489,-4.0489,-4.0489,-4.0489,-4.0489,-4.0489,-4.0489,-4.0489,-4.0141,-3.9753,-3.9717,-3.8782,-3.8,-3.7924,-3.7404,-3.6978,-3.6978,-3.6654,-3.6405,-3.6405,-3.5978,-3.571,-3.571,-3.571,-3.571,-3.571,-3.5669,-3.548,-3.5127,-3.5031,-3.4825,-3.4397,-3.4397,-3.4397,-3.4397,-3.4332,-3.4071,-3.3587,-3.3456,-3.2816,-3.1693,-3.1222,-3.0986,0.0,0.0,0.0,0.0,0.0,0.0,-2.075,0.0,-2.0495,0.0,0.0,0.0,0.0,0.0,0.0,0.0,0.0,0.0,0.0,0.0,0.0,0.0,0.0,0.0,0.0,0.0,0.0,0.0,0.0,-2.8535,-3.0151,-3.0966,-3.1547,-3.1797,-3.2198,-3.2398,-3.2398,-3.2398,-3.2398,-3.2398,-3.2398,-3.3149,-3.4505,-3.4505,-3.5244,-3.6492,-3.6492,-3.6492,-3.6492,-3.6492,-3.6492,-3.6492,-3.6492,-3.6492,-3.6492,-3.6492,-3.6492,-3.6492,-3.6492,-3.6492,-3.6492,-3.6492,-3.7415,-3.8508,-3.8508,-3.9428,-4.0489,-4.0489,-4.0489,-4.0489,-4.0489,-4.0489,-4.0489,-4.0489,-4.0489,-4.0489,-4.0489,-4.0316,-4.0071,-3.9753,-3.9017,-3.83,-3.7962,-3.7404,-3.6915,-3.6693,-3.6298,-3.5898,-3.5656,-3.5236,-3.4936,-3.4936,-3.4936,-3.4936,-3.4936,-3.4936,-3.4853,-3.4688,-3.4688,-3.4605,-3.4397,-3.4397,-3.4397,-3.4397,-3.4397,-3.4293,-3.4058,-3.3744,-3.3339,-3.2829,-3.1914,-3.13,-2.3248,0.0,0.0,0.0,0.0,0.0,0.0,0.0,0.0,0.0,0.0,0.0,0.0,0.0,0.0,0.0,0.0,0.0,0.0,0.0,0.0,0.0,0.0,0.0,0.0,0.0,0.0,0.0,0.0,-2.7103,-2.9002,-3.0043,-3.0812,-3.1366,-3.1859,-3.2198,-3.2398,-3.2398,-3.2398,-3.2398,-3.2398,-3.3149,-3.4505,-3.4505,-3.5244,-3.6492,-3.6492,-3.6492,-3.6492,-3.6492,-3.6492,-3.6492,-3.6492,-3.6492,-3.6492,-3.6492,-3.6492,-3.6492,-3.6492,-3.6492,-3.6522,-3.6707,-3.7569,-3.8539,-3.8723,-3.9567,-4.0489,-4.0489,-4.0489,-4.0489,-4.0489,-4.0489,-4.0489,-4.0489,-4.0489,-4.0489,-4.0489,-4.0385,-4.0176,-3.9803,-3.909,-3.8412,-3.7962,-3.7404,-3.6915,-3.6628,-3.6085,-3.5602,-3.5318,-3.4771,-3.4397,-3.4397,-3.4397,-3.4397,-3.4397,-3.4397,-3.4397,-3.4397,-3.4397,-3.4397,-3.4397,-3.4397,-3.4397,-3.4397,-3.4397,-3.4397,-3.4397,-3.4005,-3.3731,-3.3561,-3.2346,-3.1575,0.0,0.0,0.0,-2.2686,0.0,0.0,0.0,0.0,-2.1843,0.0,0.0,0.0,0.0,0.0,0.0,0.0,0.0,0.0,0.0,0.0,0.0,0.0,0.0,0.0,0.0,0.0,0.0,0.0,0.0,0.0,-2.8258,-2.8473,-2.9396,-3.1347,-3.1439,-3.1747,-3.2382,-3.2398,-3.2398,-3.2398,-3.2398,-3.3149,-3.4505,-3.4505,-3.5244,-3.6492,-3.6492,-3.6492,-3.6492,-3.6492,-3.6492,-3.6492,-3.6492,-3.6492,-3.6492,-3.6492,-3.6492,-3.6492,-3.6492,-3.6492,-3.6599,-3.7261,-3.7938,-3.8631,-3.9259,-3.9936,-4.0489,-4.0489,-4.0489,-4.0489,-4.0489,-4.0489,-4.0489,-4.0489,-4.0489,-4.0489,-4.0489,-4.0106,-3.9717,-3.9681,-3.8745,-3.7924,-3.7886,-3.7404,-3.6993,-3.6978,-3.623,-3.571,-3.5669,-3.4936,-3.4397,-3.4397,-3.4397,-3.4397,-3.4397,-3.4397,-3.4397,-3.4397,-3.4397,-3.4397,-3.4397,-3.4397,-3.4397,-3.4397,-3.4397,-3.4397,-3.4397,-3.4384,-3.411,-3.3561,-3.2346,-3.1797,0.0,0.0,-2.7272,-2.5114,0.0,0.0,0.0,0.0,0.0,0.0,0.0,0.0,0.0,0.0,0.0,0.0,0.0,0.0,0.0,0.0,0.0,0.0,0.0,0.0,0.0,0.0,0.0,0.0,-2.3563,0.0,0.0,-2.7657,-2.8919,-3.0043,-3.0936,-3.1705,-3.2382,-3.2398,-3.2398,-3.2398,-3.2398,-3.3149,-3.4505,-3.4505,-3.5244,-3.6492,-3.6492,-3.6492,-3.6492,-3.6492,-3.6492,-3.6492,-3.6492,-3.6492,-3.6492,-3.6492,-3.6492,-3.6492,-3.6492,-3.6492,-3.6599,-3.7277,-3.7954,-3.8646,-3.929,-3.9951,-4.0489,-4.0489,-4.0489,-4.0489,-4.0489,-4.0489,-4.0489,-4.0489,-4.0489,-4.0489,-4.0489,-4.0071,-3.9574,-3.9162,-3.8449,-3.7772,-3.7366,-3.6915,-3.6496,-3.6191,-3.5871,-3.5507,-3.4895,-3.4564,-3.4397,-3.4397,-3.4397,-3.4397,-3.4397,-3.4397,-3.4397,-3.4397,-3.4397,-3.4397,-3.4397,-3.4397,-3.4397,-3.4397,-3.4397,-3.4397,-3.4397,-3.4397,-3.4306,-3.4097,-3.2947,-3.2163,-2.7564,-2.8046,0.0,-2.6561,-2.577,0.0,-2.2906,0.0,0.0,0.0,0.0,0.0,0.0,0.0,0.0,0.0,0.0,0.0,0.0,0.0,0.0,0.0,0.0,0.0,0.0,0.0,-2.0855,-2.2455,-2.2382,0.0,0.0,0.0,-2.8172,-2.9356,-3.0474,-3.1474,-3.2382,-3.2398,-3.2398,-3.2398,-3.2628,-3.3352,-3.452,-3.4751,-3.5475,-3.6492,-3.6492,-3.6492,-3.6492,-3.6492,-3.6492,-3.6492,-3.6492,-3.6492,-3.6492,-3.6492,-3.6492,-3.6492,-3.6492,-3.6492,-3.6645,-3.7569,-3.8154,-3.8677,-3.9567,-4.0151,-4.0489,-4.0489,-4.0489,-4.0489,-4.0489,-4.0489,-4.0489,-4.0489,-4.0489,-4.0455,-4.0246,-3.9788,-3.9199,-3.8598,-3.8,-3.7467,-3.707,-3.6654,-3.6312,-3.5978,-3.5683,-3.5263,-3.4729,-3.4481,-3.4397,-3.4397,-3.4397,-3.4397,-3.4397,-3.4397,-3.4397,-3.4397,-3.4397,-3.4397,-3.4397,-3.4397,-3.4397,-3.4397,-3.4397,-3.4397,-3.4397,-3.4397,-3.4397,-3.4384,-3.3443,-3.2698]},{"header":{"parameterUnit":"m.s-1","parameterCategory":1,"la1":30.6,"la2":29.2853,"lo1":-89.7004,"lo2":-87.6739,"dy":0.0162,"dx":0.0183,"nx":112,"ny":82,"refTime":"2026-03-06T00:00:00:Z","depth":0,"parameterNumber":3,"parameterNumberName":"V-component_of_WINDS"},"data":[0.0,0.0,0.0,0.0,0.0,0.0,0.0,0.0,0.0,0.0,0.0,0.0,0.0,0.0,0.0,0.0,0.0,0.0,0.0,0.0,0.0,0.0,0.0,0.0,0.0,0.0,0.0,0.0,0.0,0.0,0.0,0.0,0.0,0.0,0.0,0.0,0.0,0.0,0.0,0.0,0.0,0.0,0.0,0.0,0.0,0.0,0.0,0.0,0.0,0.0,0.0,0.0,0.0,0.0,0.0,0.0,0.0,0.0,0.0,0.0,0.0,0.0,0.0,0.0,0.0,0.0,0.0,0.0,0.0,0.0,0.0,0.0,0.0,0.0,0.0,0.0,0.0,0.0,0.0,0.0,0.0,0.0,0.0,0.0,0.0,0.0,0.0,0.0,0.0,0.0,0.0,1.5117,1.6565,1.7162,1.6669,1.657,1.5741,1.3912,0.0,0.0,0.0,0.0,0.0,0.0,0.0,0.0,0.0,0.0,0.0,0.0,0.0,0.0,0.0,0.0,0.0,0.0,0.0,0.0,0.0,0.0,0.0,0.0,0.0,0.0,0.0,0.0,0.0,0.0,0.0,0.0,0.0,0.0,0.0,0.0,0.0,0.0,0.0,0.0,0.0,0.0,0.0,0.0,0.0,0.0,0.0,0.0,0.0,0.0,0.0,0.0,0.0,0.0,0.0,0.0,0.0,0.0,0.0,0.0,0.0,0.0,0.0,0.0,0.0,0.0,0.0,0.0,0.0,0.0,0.0,0.0,0.0,0.0,0.0,0.0,0.0,0.0,0.0,0.0,0.0,0.0,0.0,0.0,0.0,0.0,0.0,0.0,0.0,0.0,0.0,0.0,0.0,0.0,0.0,0.0,0.0,0.0,0.0,0.0,0.0,0.0,0.0,0.0,1.2537,1.609,1.7414,1.7833,1.7313,1.686,1.5917,1.4305,0.0,0.0,0.0,0.0,0.0,0.0,0.0,0.0,0.0,0.0,0.0,0.0,0.0,0.0,0.0,0.0,0.0,0.0,0.0,0.0,0.0,0.0,0.0,0.0,0.0,0.0,0.0,0.0,0.0,0.0,0.0,0.0,0.0,0.0,0.0,0.0,0.0,0.0,0.0,0.0,0.0,0.0,0.0,0.0,0.0,0.0,0.0,0.0,0.0,0.0,0.0,0.0,0.0,0.0,0.0,0.0,0.0,0.0,0.0,0.0,0.0,0.0,0.0,0.0,0.0,0.0,0.0,0.0,0.0,0.0,0.0,0.0,0.0,0.0,0.0,0.0,0.0,0.0,0.0,0.0,0.0,0.0,0.0,0.0,0.0,0.0,0.0,0.0,0.0,0.0,0.0,0.0,0.0,0.0,0.0,0.0,0.0,0.0,0.0,0.0,0.0,0.0,0.0,1.3129,1.4818,1.6856,1.7756,1.7989,1.746,1.6907,1.5945,1.4385,1.3158,0.0,0.0,0.0,0.0,0.0,0.0,0.0,0.0,0.0,0.0,0.0,0.0,0.0,0.0,0.0,0.0,0.0,0.0,0.0,0.0,0.0,0.0,0.0,0.0,0.0,0.0,0.0,0.0,0.0,0.0,0.0,0.0,0.0,0.0,0.0,0.0,0.0,0.0,0.0,0.0,0.0,0.0,0.0,0.0,0.0,0.0,0.0,0.0,0.0,0.0,0.0,0.0,0.0,0.0,0.0,0.0,0.0,0.0,0.0,0.0,0.0,0.0,0.0,0.0,0.0,0.0,0.0,0.0,0.0,0.0,0.0,0.0,0.0,0.0,0.0,0.0,0.0,0.0,0.0,0.0,0.0,0.0,0.0,0.0,0.0,0.0,0.0,0.0,0.0,0.0,0.0,0.0,0.0,0.0,0.0,0.0,0.0,0.0,0.0,0.0,0.0,0.0,1.526,1.6895,1.7171,1.77,1.7796,1.7255,1.6607,1.5658,1.4373,1.318,0.0,0.0,0.0,0.0,0.0,0.0,0.0,0.0,0.0,0.0,0.0,0.0,0.0,0.0,0.0,0.0,0.0,0.0,0.0,0.0,0.0,0.0,0.0,0.0,0.0,0.0,0.0,0.0,0.0,0.0,0.0,0.0,0.0,0.0,0.0,0.0,0.0,0.0,0.0,0.0,0.0,0.0,0.0,0.0,0.0,0.0,0.0,0.0,0.0,0.0,0.0,0.0,0.0,0.0,0.0,0.0,0.0,0.0,0.0,0.0,0.0,0.0,0.0,0.0,0.0,0.0,0.0,0.0,0.0,0.0,0.0,0.0,0.0,0.0,0.0,0.0,0.0,0.0,0.0,0.0,0.0,0.0,0.0,0.0,0.0,0.0,0.0,0.0,0.0,0.0,0.0,0.0,0.0,0.0,0.0,0.0,0.0,0.0,0.0,0.0,0.0,0.0,1.5554,1.7159,1.6703,1.7135,1.7231,1.6703,1.5696,1.4878,1.4325,1.283,0.0,0.0,0.0,0.0,0.0,0.0,0.0,0.0,0.0,0.0,0.0,0.0,0.0,0.0,0.0,0.0,0.0,0.0,0.0,0.0,0.0,0.0,0.0,0.0,0.0,0.0,0.0,0.0,0.0,0.0,0.0,0.0,0.0,0.0,0.0,0.0,0.0,0.0,0.0,0.0,0.0,0.0,0.0,0.0,0.0,0.0,0.0,0.0,0.0,0.0,0.0,0.0,0.0,0.0,0.0,0.0,0.0,0.0,0.0,0.0,0.0,0.0,0.0,0.0,0.0,0.0,0.0,0.0,0.0,0.0,0.0,0.0,0.0,0.0,0.0,0.0,0.0,0.0,0.0,0.0,0.0,0.0,0.0,0.0,0.0,0.0,0.0,0.0,0.0,0.0,0.0,0.0,0.0,0.0,0.0,0.0,0.0,0.0,0.0,0.0,0.0,0.0,1.4996,1.6463,0.0,1.6787,1.6811,1.6619,1.5912,1.501,1.3879,0.0,0.0,0.0,0.0,0.0,0.0,0.0,0.0,0.0,0.0,0.0,0.0,0.0,0.0,0.0,0.0,0.0,0.0,0.0,0.0,0.0,0.0,0.0,0.0,0.0,0.0,0.0,0.0,0.0,0.0,0.0,0.0,0.0,0.0,0.0,0.0,0.0,0.0,0.0,0.0,0.0,0.0,0.0,0.0,0.0,0.0,0.0,0.0,0.0,0.0,0.0,0.0,0.0,0.0,0.0,0.0,0.0,0.0,0.0,0.0,0.0,0.0,0.0,0.0,0.0,0.0,0.0,0.0,0.0,0.0,0.0,0.0,0.0,0.0,0.0,0.0,0.0,0.0,0.0,0.0,0.0,0.0,0.0,0.0,0.0,0.0,0.0,0.0,0.0,0.0,0.0,0.0,0.0,0.0,0.0,0.0,0.0,0.0,0.0,0.0,0.0,0.0,1.3285,1.4964,1.6139,0.0,1.6499,1.6535,1.6367,1.584,1.4962,1.359,0.0,0.0,0.0,0.0,0.0,0.0,0.0,0.0,0.0,0.0,0.0,0.0,0.0,0.0,0.0,0.0,0.0,0.0,0.0,0.0,0.0,0.0,0.0,0.0,0.0,0.0,0.0,0.0,0.0,0.0,0.0,0.0,0.0,0.0,0.0,0.0,0.0,0.0,0.0,0.0,0.0,0.0,0.0,0.0,0.0,0.0,0.0,0.0,0.0,0.0,0.0,0.0,0.0,0.0,0.0,0.0,0.0,0.0,0.0,0.0,0.0,0.0,0.0,0.0,0.0,0.0,0.0,0.0,0.0,0.0,0.0,0.0,0.0,0.0,0.0,0.0,0.0,0.0,0.0,0.0,0.0,0.0,0.0,0.0,0.0,0.0,0.0,0.0,0.0,0.0,0.0,0.0,0.0,0.0,0.0,0.0,0.0,0.0,0.0,0.0,0.0,0.0,1.4156,1.5632,1.6391,1.5852,1.6283,1.6379,1.5862,1.5313,1.4577,0.0,0.0,0.0,0.0,0.0,0.0,0.0,0.0,0.0,0.0,0.0,0.0,0.0,0.0,0.0,0.0,0.0,0.0,0.0,0.0,0.0,0.0,0.0,0.0,0.0,0.0,0.0,0.0,0.0,0.0,0.0,0.0,0.0,0.0,0.0,0.0,0.0,0.0,0.0,0.0,0.0,0.0,0.0,0.0,0.0,0.0,0.0,0.0,0.0,0.0,0.0,0.0,0.0,0.0,0.0,0.0,0.0,0.0,0.0,0.0,0.0,0.0,0.0,0.0,0.0,0.0,0.0,0.0,0.0,0.0,0.0,0.0,0.0,0.0,0.0,0.0,0.0,0.0,0.0,0.0,0.0,0.0,0.0,0.0,0.0,0.0,0.0,0.0,0.0,0.0,0.0,0.0,0.0,0.0,0.0,0.0,0.0,0.0,0.0,0.0,0.0,0.0,0.0,1.4108,1.5319,1.5994,1.5816,1.6035,1.6104,1.5947,1.5789,1.4938,1.3192,0.0,0.0,0.0,0.0,0.0,0.0,0.0,0.0,0.0,0.0,0.0,0.0,0.0,0.0,0.0,0.0,0.0,0.0,0.0,0.0,0.0,0.0,0.0,0.0,0.0,0.0,0.0,0.0,0.0,0.0,0.0,0.0,0.0,0.0,0.0,0.0,0.0,0.0,0.0,0.0,0.0,0.0,0.0,0.0,0.0,0.0,0.0,0.0,0.0,0.0,0.0,0.0,0.0,0.0,0.0,0.0,0.0,0.0,0.0,0.0,0.0,0.0,0.0,0.0,0.0,0.0,0.0,0.0,0.0,0.0,0.0,0.0,0.0,0.0,0.0,0.0,0.0,0.0,0.0,0.0,0.0,0.0,0.0,0.0,0.0,0.0,0.0,0.0,0.0,0.0,0.0,0.0,0.0,0.0,0.0,0.0,0.0,0.0,0.0,0.0,0.0,0.0,1.412,1.5175,1.5814,1.5869,1.5957,1.6022,1.6066,1.6066,1.5257,1.338,0.0,0.0,0.0,0.0,0.0,0.0,0.0,0.0,0.0,0.0,0.0,0.0,0.0,0.0,0.0,0.0,0.0,0.0,0.0,0.0,0.0,0.0,0.0,0.0,0.0,0.0,0.0,0.0,0.0,0.0,0.0,0.0,0.0,0.0,0.0,0.0,0.0,0.0,0.0,0.0,0.0,0.0,0.0,0.0,0.0,0.0,0.0,0.0,0.0,0.0,0.0,0.0,0.0,0.0,0.0,0.0,0.0,0.0,0.0,0.0,0.0,0.0,0.0,0.0,0.0,0.0,0.0,0.0,0.0,0.0,0.0,0.0,0.0,0.0,0.0,0.0,0.0,0.0,0.0,0.0,0.0,0.0,0.0,0.0,0.0,0.0,0.0,0.0,0.0,0.0,0.0,0.0,0.0,0.0,0.0,0.0,0.0,0.0,0.0,0.0,0.0,0.0,1.4164,1.5175,1.5859,1.5979,1.5988,1.6066,1.6166,1.6188,1.5545,1.397,0.0,0.0,0.0,0.0,0.0,0.0,0.0,0.0,0.0,0.0,0.0,0.0,0.0,0.0,0.0,0.0,0.0,0.0,0.0,0.0,0.0,0.0,0.0,0.0,0.0,0.0,0.0,0.0,0.0,0.0,0.0,0.0,0.0,0.0,0.0,0.0,0.0,0.0,0.0,0.0,0.0,0.0,0.0,0.0,0.0,0.0,0.0,0.0,0.0,0.0,0.0,0.0,0.0,0.0,0.0,0.0,0.0,0.0,0.0,0.0,1.5131,0.0,0.0,0.0,0.0,0.0,0.0,0.0,0.0,0.0,0.0,0.0,0.0,0.0,0.0,0.0,0.0,0.0,0.0,0.0,0.0,0.0,0.0,0.0,0.0,0.0,0.0,0.0,0.0,0.0,0.0,0.0,0.0,0.0,0.0,0.0,0.0,0.0,0.0,0.0,0.0,0.0,1.4096,1.5175,1.5814,1.5836,1.6035,1.6122,1.6044,1.6241,1.5819,1.4577,1.2933,0.0,0.0,0.0,0.0,0.0,0.0,0.0,0.0,0.0,0.0,0.0,0.0,0.0,0.0,0.0,0.0,0.0,0.0,0.0,0.0,0.0,0.0,0.0,0.0,0.0,0.0,0.0,0.0,0.0,0.0,0.0,0.0,0.0,0.0,0.0,0.0,0.0,0.0,0.0,0.0,0.0,0.0,0.0,0.0,0.0,0.0,0.0,0.0,0.0,0.0,0.0,0.0,0.0,0.0,0.0,0.0,0.0,0.0,0.0,0.0,1.6151,0.0,0.0,0.0,0.0,0.0,0.0,0.0,0.0,0.0,0.0,0.0,0.0,0.0,0.0,0.0,0.0,0.0,0.0,0.0,0.0,0.0,0.0,0.0,0.0,0.0,0.0,0.0,0.0,0.0,0.0,0.0,0.0,0.0,0.0,0.0,0.0,0.0,0.0,0.0,0.0,1.4562,1.5668,1.6322,1.6457,1.6603,1.6559,1.6275,1.6371,1.6086,1.5229,1.3882,0.0,0.0,0.0,0.0,0.0,0.0,0.0,0.0,0.0,0.0,0.0,0.0,0.0,0.0,0.0,0.0,0.0,0.0,0.0,0.0,0.0,0.0,0.0,0.0,0.0,0.0,0.0,0.0,0.0,0.0,0.0,0.0,0.0,0.0,0.0,0.0,0.0,0.0,0.0,0.0,0.0,0.0,0.0,0.0,0.0,0.0,0.0,0.0,0.0,0.0,0.0,0.0,0.0,1.7872,1.8446,1.9552,1.9552,1.96,1.9636,1.8758,1.8362,1.8277,1.7375,0.0,0.0,0.0,0.0,0.0,0.0,0.0,0.0,0.0,0.0,0.0,0.0,0.0,0.0,0.0,0.0,0.0,0.0,0.0,0.0,0.0,0.0,0.0,0.0,1.6619,1.6283,0.0,0.0,0.0,0.0,0.0,0.0,0.0,0.0,0.0,0.0,0.0,0.0,1.5162,1.6195,1.6919,1.7248,1.7219,1.7028,1.6623,1.6529,1.6342,1.5939,1.4878,1.4004,0.0,0.0,0.0,0.0,0.0,0.0,0.0,0.0,0.0,0.0,0.0,0.0,0.0,0.0,0.0,0.0,0.0,0.0,0.0,0.0,0.0,0.0,0.0,0.0,0.0,0.0,0.0,0.0,0.0,0.0,0.0,0.0,1.1199,1.1963,0.0,0.0,0.0,0.0,0.0,0.0,0.0,0.0,0.0,0.0,0.0,0.0,0.0,1.7411,1.8458,1.8999,1.9564,2.0181,2.0617,2.1158,2.1777,2.1777,2.2017,2.245,2.2306,0.0,1.8867,1.8734,0.0,0.0,0.0,0.0,0.0,0.0,0.0,0.0,0.0,0.0,0.0,0.0,0.0,0.0,0.0,0.0,0.0,0.0,0.0,0.0,0.0,0.0,1.8482,1.8554,1.8277,1.7893,0.0,1.569,1.4055,1.3903,1.268,0.0,0.0,0.0,0.0,0.0,0.0,0.0,1.5536,1.6358,1.6984,1.7483,1.7327,1.7122,1.6946,1.6679,1.6578,1.6806,1.5546,1.5086,1.5729,1.3291,0.0,0.0,0.0,0.0,0.0,0.0,0.0,0.0,0.0,0.0,0.0,0.0,0.0,0.0,0.0,0.0,0.0,0.0,0.0,0.0,0.0,0.0,0.0,0.0,0.0,0.0,0.0,0.0,0.0,1.1427,1.2959,1.3429,1.4237,1.4417,0.0,0.0,0.0,0.0,0.0,0.0,0.0,0.0,0.0,1.8253,1.8879,1.9408,1.9904,2.0747,2.1434,2.1964,2.2173,2.257,2.3107,2.3107,2.324,2.3457,2.3457,2.2794,2.1638,2.0718,1.9901,1.9131,0.0,0.0,0.0,0.0,1.7869,1.7676,1.8289,1.8301,0.0,1.7628,0.0,0.0,0.0,0.0,0.0,0.0,0.0,0.0,0.0,0.0,1.9516,1.9829,1.972,1.954,1.9552,1.8195,1.6581,0.0,1.4333,1.3281,1.2198,0.0,0.0,0.0,0.0,1.4835,1.6191,1.7144,1.7849,1.8228,1.8092,1.7791,1.7264,1.7226,1.7193,1.7123,1.6756,1.6655,1.6932,1.5291,1.3895,0.0,0.0,0.0,0.0,0.0,0.0,0.0,0.0,0.0,0.0,0.0,0.0,0.0,0.0,0.0,0.0,0.0,0.0,0.0,0.0,0.0,0.0,0.0,0.0,0.0,0.0,0.0,0.0,1.2662,1.4227,1.474,1.5325,1.5451,0.0,0.0,0.0,0.0,0.0,0.0,1.7941,1.8132,1.871,1.978,2.0735,2.1277,2.1422,2.2228,2.2859,2.3376,2.3376,2.3652,2.4191,2.4191,2.4191,2.4191,2.4191,2.4191,2.4071,2.2462,2.1572,2.1127,2.0177,1.9817,1.9865,2.0278,2.0153,1.9925,2.0735,2.0759,2.0261,1.948,0.0,1.8566,1.7219,0.0,0.0,0.0,0.0,1.8362,1.9817,2.0201,2.0334,2.0887,2.0899,2.0791,2.0815,2.0069,1.8855,0.0,1.6056,1.5214,1.3912,0.0,0.0,0.0,0.0,1.5824,1.7024,1.7922,1.8571,1.892,1.8791,1.8459,1.7809,1.7812,1.7759,1.755,1.77,1.7822,1.7894,1.7033,1.5958,1.4736,0.0,0.0,0.0,0.0,0.0,0.0,0.0,0.0,0.0,0.0,0.0,0.0,0.0,0.0,0.0,0.0,0.0,0.0,0.0,0.0,0.0,0.0,0.0,0.0,0.0,0.0,0.0,0.0,0.0,1.5751,1.6692,0.0,0.0,0.0,0.0,1.7243,1.7736,1.8518,1.9627,2.0165,2.0935,2.2005,2.2602,2.3132,2.3637,2.3697,2.3941,2.4412,2.4412,2.4723,2.5228,2.5228,2.5228,2.5228,2.5228,2.5228,2.5107,2.3544,2.2883,2.2811,2.2246,2.2029,2.2041,2.2065,2.2053,2.2041,2.2089,2.2089,2.2065,2.2017,2.1308,2.0382,1.9768,1.9227,0.0,0.0,1.9688,1.9941,2.1031,2.132,2.1452,2.1993,2.1728,2.1368,2.1368,2.0928,2.0193,0.0,1.8001,1.7087,1.6499,0.0,1.6403,1.6403,1.6475,1.6907,1.7989,1.8397,1.8793,1.9322,1.9132,1.8914,1.874,1.8282,1.8123,1.8425,1.8028,1.8173,1.9001,1.7997,1.7183,1.6664,1.4879,0.0,0.0,0.0,0.0,0.0,0.0,0.0,0.0,0.0,0.0,0.0,0.0,0.0,0.0,0.0,0.0,0.0,0.0,0.0,0.0,0.0,0.0,0.0,0.0,0.0,0.0,0.0,0.0,1.7297,1.8307,0.0,1.7941,1.8205,1.871,1.9423,1.9636,2.037,2.1795,2.2029,2.2474,2.3216,2.3701,2.4061,2.4254,2.459,2.4855,2.5023,2.5023,2.53,2.5817,2.5817,2.6009,2.6321,2.6321,2.6142,2.5769,2.5216,2.459,2.3917,2.3412,2.324,2.324,2.324,2.324,2.324,2.324,2.324,2.318,2.2843,2.2209,2.1596,2.1392,2.1199,2.1163,2.1723,2.1867,2.2036,2.277,2.2678,2.2474,2.2654,2.2294,2.1909,2.1909,2.1488,2.0995,2.0622,1.9396,1.8253,1.7724,1.7327,1.6991,1.6655,1.7183,1.7772,1.8157,1.8673,1.9225,1.985,1.9818,1.9666,1.9346,1.9333,1.9109,1.8542,1.8592,1.8784,1.9082,1.872,1.8262,1.7712,1.6634,1.4903,0.0,0.0,0.0,0.0,0.0,0.0,0.0,0.0,0.0,0.0,0.0,0.0,0.0,0.0,0.0,0.0,0.0,0.0,0.0,0.0,0.0,0.0,0.0,0.0,0.0,0.0,1.7733,1.8874,1.9793,2.0189,1.9841,1.9961,2.0442,2.1349,2.1404,2.1945,2.3216,2.3412,2.3664,2.4013,2.4518,2.4879,2.5047,2.5396,2.5673,2.5853,2.5853,2.6045,2.6382,2.6382,2.6549,2.6898,2.6898,2.6681,2.6382,2.6382,2.5973,2.5228,2.4566,2.4324,2.4324,2.4324,2.4324,2.4324,2.4324,2.4169,2.3965,2.3616,2.3147,2.2758,2.2758,2.2758,2.2799,2.318,2.3276,2.336,2.371,2.3541,2.3228,2.3047,2.2746,2.2414,2.2234,2.1921,2.1668,2.1668,2.0514,1.9372,1.8819,1.8446,1.8037,1.7496,1.8013,1.8535,1.8791,1.907,1.9591,2.0459,2.0428,2.0274,2.0146,2.0161,1.9838,1.9097,1.9085,1.9101,1.9101,1.9101,1.8825,1.8216,1.7127,1.5734,1.402,0.0,0.0,0.0,0.0,0.0,0.0,0.0,0.0,0.0,0.0,0.0,0.0,0.0,0.0,0.0,0.0,0.0,0.0,0.0,0.0,0.0,0.0,0.0,1.7387,1.7998,1.8963,2.0505,2.1163,2.1476,2.1476,2.1945,2.2462,2.3023,2.3059,2.33,2.383,2.429,2.4532,2.4532,2.5083,2.5612,2.6117,2.6117,2.6394,2.6898,2.6898,2.691,2.6922,2.6922,2.6922,2.6946,2.6946,2.6934,2.6922,2.6922,2.691,2.6789,2.5769,2.536,2.536,2.5336,2.5324,2.5312,2.5312,2.4975,2.4508,2.4508,2.4218,2.3854,2.3854,2.3854,2.3854,2.3854,2.3854,2.3854,2.3854,2.3842,2.3697,2.318,2.3047,2.2891,2.233,2.2209,2.2209,2.2197,2.1368,2.049,1.9953,1.9844,1.9652,1.9119,1.9049,0.0,1.9939,1.9668,1.9888,2.1115,2.087,2.0801,2.119,2.0681,2.0259,2.0107,1.9464,1.9101,1.9101,1.9101,1.884,1.8245,1.6327,1.5356,1.5327,0.0,0.0,0.0,0.0,0.0,0.0,0.0,0.0,0.0,0.0,0.0,0.0,0.0,0.0,0.0,0.0,0.0,0.0,0.0,0.0,0.0,1.7724,1.8963,1.9107,1.9945,2.0979,2.2197,2.2799,2.3156,2.3156,2.3276,2.3544,2.4061,2.4097,2.4326,2.4855,2.5384,2.5661,2.5661,2.6165,2.6513,2.6669,2.6669,2.6741,2.6898,2.6898,2.709,2.7474,2.7474,2.7678,2.8077,2.8077,2.7861,2.7474,2.7474,2.7246,2.6861,2.6561,2.6453,2.6405,2.6033,2.5636,2.5312,2.5312,2.5216,2.5095,2.5095,2.4999,2.4891,2.4891,2.4891,2.4891,2.4891,2.4891,2.4891,2.4891,2.4602,2.4278,2.4133,2.3821,2.3445,2.2915,2.2763,2.2686,2.227,2.1957,2.1584,2.1043,2.0646,2.0334,2.0189,1.9924,0.0,2.0521,2.0309,2.0535,2.166,2.1756,2.1778,2.1779,2.119,2.0598,2.0132,1.9464,1.9101,1.9101,1.9101,1.9029,1.8854,1.7432,1.6411,0.0,0.0,0.0,0.0,0.0,0.0,0.0,0.0,0.0,0.0,0.0,0.0,0.0,0.0,0.0,0.0,0.0,0.0,0.0,0.0,0.0,0.0,1.9215,2.0723,2.1386,2.1801,2.2462,2.3496,2.3893,2.4169,2.4398,2.441,2.4626,2.5143,2.518,2.542,2.5925,2.6286,2.6454,2.6454,2.6729,2.7006,2.7222,2.7234,2.7342,2.7558,2.7558,2.7714,2.8053,2.8053,2.8222,0.0,2.851,2.833,2.8053,2.8053,2.7834,0.0,0.0,0.0,0.0,0.0,2.625,2.5925,2.5721,2.5636,2.56,2.5384,2.5312,2.5312,2.5312,2.5312,2.5312,2.5312,2.5312,2.5312,2.5312,2.5083,2.4795,2.4544,2.429,2.3941,2.3457,2.3168,2.2927,2.2614,2.2342,0.0,2.2049,2.1461,2.1025,2.1067,2.0927,2.1142,2.1983,2.1508,2.154,2.2682,2.2433,2.2252,2.2381,2.1786,0.0,0.0,0.0,1.9391,1.9116,1.8854,0.0,0.0,0.0,0.0,0.0,0.0,0.0,0.0,1.4322,1.3947,0.0,0.0,0.0,0.0,0.0,0.0,0.0,0.0,0.0,0.0,0.0,0.0,0.0,0.0,0.0,0.0,2.0622,2.2185,2.3685,2.3541,2.358,2.446,2.4568,2.4784,2.5348,2.5396,2.5612,2.6154,2.619,2.6406,2.6873,0.0,0.0,0.0,0.0,2.7294,2.7774,2.7774,2.8041,2.851,2.851,2.851,2.851,2.851,2.851,2.851,2.851,2.851,2.851,2.851,2.851,2.8414,2.7438,2.7042,2.6982,2.6982,2.6946,2.6825,2.637,0.0,0.0,2.5648,2.5492,2.548,2.542,2.5396,2.5384,2.5324,2.5312,2.5312,2.5312,2.5312,2.5192,2.4723,2.4568,2.447,2.3965,2.3517,2.3156,2.3035,2.2606,2.2413,2.2769,2.223,2.1768,2.1891,2.2027,2.2549,2.3776,2.2944,2.2724,2.3898,0.0,0.0,2.2981,2.2396,2.1743,2.1148,2.0538,1.9928,1.9333,1.8796,1.8782,1.9304,1.8796,1.8782,1.9304,1.9114,1.9017,1.8965,1.5618,1.499,0.0,0.0,0.0,0.0,0.0,0.0,0.0,0.0,0.0,0.0,0.0,0.0,0.0,0.0,0.0,2.0742,2.227,2.3589,2.4278,2.465,2.4939,2.5131,2.5155,2.536,2.5889,2.5949,2.6178,2.6693,2.6741,2.6777,2.6885,2.7294,2.7534,2.7534,2.7942,2.8258,2.8354,2.8366,2.8414,2.851,0.0,0.0,2.851,2.851,2.851,2.851,2.851,2.851,2.851,2.851,2.851,2.8486,2.8282,2.7945,2.7534,2.7534,2.7258,2.6885,2.6777,2.6741,2.6717,2.6621,2.6585,2.6501,2.6081,2.5949,0.0,2.5432,2.5312,2.5312,2.5312,2.5312,2.5288,2.518,2.5155,2.5011,2.4494,2.429,2.3977,2.318,2.2939,2.2722,2.2382,2.2518,2.2787,2.3182,2.2987,2.3124,2.4027,2.3666,2.3666,2.4616,2.4023,2.3609,2.3702,2.2657,2.1931,2.1801,2.1191,2.077,2.064,2.0524,2.0509,2.0625,2.0524,2.0524,2.0625,2.043,2.043,2.0535,1.8795,1.821,0.0,0.0,0.0,0.0,0.0,0.0,0.0,0.0,0.0,0.0,0.0,1.7399,1.8744,0.0,2.1031,2.2366,2.346,2.4326,2.4843,2.5143,2.5312,2.5312,2.554,2.5805,2.6069,2.6346,2.6705,2.7246,2.7294,2.7402,2.7705,2.793,2.8114,2.8114,2.8378,2.851,2.851,2.851,2.851,2.851,2.851,2.851,2.851,2.851,2.851,2.851,2.851,2.851,2.851,2.851,2.851,2.851,2.851,2.8354,2.8114,2.8114,2.7906,2.7642,2.7378,2.7294,2.7246,2.6982,2.6898,2.6837,2.6561,2.6514,2.6406,2.5853,2.5709,2.5636,2.5384,2.5312,2.5312,2.5312,2.5312,2.524,2.4975,2.4676,2.4362,2.3857,2.3544,2.3305,2.3013,2.335,2.3695,2.3793,2.4028,2.4461,2.5173,2.4932,2.4872,2.5303,2.4747,2.4331,2.4331,2.3171,2.2316,2.2019,2.1365,2.1003,2.1003,2.1003,2.1003,2.1003,2.1003,2.1003,2.1003,2.0899,2.0774,2.0641,2.0308,1.9983,0.0,0.0,0.0,0.0,0.0,0.0,0.0,0.0,1.6104,1.782,1.8193,1.8782,2.0718,2.15,2.2318,2.3722,2.4338,2.4819,2.5252,2.5312,2.5312,2.5312,2.5769,2.6142,2.625,2.6729,2.727,2.7837,2.7873,2.8026,2.8486,2.851,2.851,2.851,2.851,2.851,2.851,2.851,2.851,2.851,2.851,2.851,2.851,2.851,2.851,2.851,2.851,2.851,2.851,2.851,2.851,2.851,2.851,2.851,2.851,2.851,2.851,2.845,2.8029,2.7873,2.7762,2.7342,2.7198,2.7186,2.7078,2.7054,2.6934,2.6418,2.6262,2.6142,2.56,2.5456,2.5432,2.5336,2.5312,2.5312,2.5312,2.4975,2.4604,2.4508,2.4194,2.3881,2.3754,2.4098,2.4354,2.408,2.4838,2.5605,2.6163,2.6038,2.5915,2.5981,2.54,2.4955,2.4839,2.3882,2.307,2.2585,2.1931,2.1554,2.1554,2.1438,2.1359,2.1302,2.1359,2.1359,2.1302,2.1302,2.1133,2.0768,2.1201,2.1013,1.5972,1.5181,1.5037,1.5946,1.5898,1.6247,0.0,0.0,1.8446,2.0526,2.0959,2.132,2.2498,2.318,2.3746,2.4326,2.4879,2.524,2.53,2.5312,2.5312,2.5312,2.5769,2.6298,2.6753,2.7282,2.781,2.8378,2.8426,2.845,2.851,2.851,2.851,2.851,2.851,2.851,2.851,2.851,2.851,2.851,2.851,2.851,2.851,2.851,2.851,2.851,2.851,2.851,2.851,2.851,2.851,2.851,2.851,2.851,2.851,2.851,2.851,2.8498,2.8438,2.8426,2.8414,2.8354,2.833,2.8246,2.7738,2.7594,2.7486,2.6958,2.6801,2.6681,2.6154,2.6009,2.5889,2.542,2.5312,2.5312,2.5312,2.5264,2.5083,2.458,2.447,2.4278,2.386,2.4189,2.4438,2.4275,2.4977,2.5592,2.5921,2.6106,2.6357,2.6663,2.6083,2.5458,2.4921,2.4747,2.4631,2.4491,2.392,2.3572,2.3572,2.2997,2.2603,2.2409,2.2603,2.2603,2.2423,2.2423,2.2386,2.2355,2.216,2.1518,1.735,1.6811,1.6583,1.7327,1.7616,1.8049,1.9483,1.97,2.0037,2.1548,2.2101,2.2642,2.3688,2.4061,2.4374,0.0,2.5168,2.5312,2.5312,2.5312,2.5312,2.5312,2.5769,2.6322,2.6837,2.7378,2.7906,2.8474,2.851,2.851,2.851,2.851,2.851,2.851,2.851,2.851,2.851,2.851,2.851,2.851,2.851,2.851,2.851,2.851,2.851,2.851,2.851,2.851,2.851,2.851,2.851,2.851,2.851,2.851,2.851,2.851,2.851,2.851,2.851,2.851,2.851,2.851,2.851,2.8474,2.8246,2.8186,2.8065,2.7498,2.7354,2.7234,2.6681,2.6586,2.6442,2.5901,2.5769,2.5685,2.5372,2.5312,2.524,2.5023,2.4975,2.4819,2.429,2.4642,2.4845,2.4456,2.5018,2.5442,2.5216,2.5701,2.6177,2.6486,2.644,2.6137,2.5483,2.5415,2.5241,2.4839,2.4563,2.4418,2.4418,2.4157,2.398,2.3947,2.3837,2.3712,2.3655,2.3486,2.3329,2.3168,2.3083,2.2672,1.8112,1.7816,1.761,1.8444,1.9155,1.9793,2.035,2.088,2.153,2.2469,2.2963,2.3424,2.4181,2.4388,2.465,2.5035,2.5336,2.548,2.5336,2.5432,2.548,2.5324,2.5648,2.6093,2.6609,2.7282,2.7846,2.827,2.8426,2.851,2.851,2.851,2.851,2.851,2.851,2.851,2.851,2.851,2.851,2.851,2.851,2.851,2.851,2.851,2.851,2.851,2.851,2.851,2.851,2.851,2.851,2.851,2.851,2.851,2.851,2.851,2.851,2.851,2.851,2.851,2.851,2.851,2.851,2.851,2.851,2.851,2.8426,2.8041,2.7906,2.7813,2.7246,2.7114,2.697,2.6454,2.6322,2.6178,2.5636,2.5528,2.548,2.5336,2.5312,2.5192,2.4807,2.5044,2.5111,2.457,2.5185,2.5481,2.4987,2.5508,2.5961,2.6163,2.6486,2.6457,2.598,2.6028,2.5865,2.5375,2.5172,2.5071,2.5071,2.4911,2.48,2.478,2.454,2.4376,2.4301,2.4028,2.3772,2.3592,2.3515,2.348,1.7935,1.7849,1.7865,1.9359,2.0538,2.1464,2.1993,2.2522,2.3095,2.3649,2.377,2.3794,2.3818,2.4194,2.4496,2.4508,2.5408,2.5889,2.5384,2.5745,2.5877,2.5372,2.5324,2.554,0.0,2.7091,2.769,2.7702,2.8222,2.851,2.851,2.851,2.851,2.851,2.851,2.851,2.851,2.851,2.851,2.851,2.851,2.851,2.851,2.851,2.851,2.851,2.851,2.851,2.851,2.851,2.851,2.851,2.851,2.851,2.851,2.851,2.851,2.851,2.851,2.851,2.851,2.851,2.851,2.851,2.851,2.851,2.851,2.8498,2.8486,2.8366,2.7798,2.7666,2.7522,2.6994,2.6873,2.6717,2.619,2.6069,2.5925,2.5408,2.5312,2.53,2.5288,2.5288,2.5107,2.4578,2.5394,2.5922,2.5525,2.5728,2.5893,2.5921,2.6136,2.631,2.6295,2.659,2.675,2.6747,2.6137,2.5763,2.5763,2.5143,2.4702,2.4533,2.444,2.4276,2.4011,2.3733,2.3592,2.3592,2.3346,2.3527,1.7569,1.8526,1.974,2.0486,2.1175,2.1815,2.2327,2.2616,2.2791,2.2954,2.3416,2.3806,2.3806,2.3938,2.4133,2.4436,2.4784,2.5107,2.5288,2.5769,2.5901,2.5372,2.5612,0.0,0.0,0.0,0.0,2.7669,2.7885,2.8138,2.8498,2.851,2.851,2.851,2.851,2.851,2.851,2.851,2.851,2.851,2.851,2.851,2.851,2.851,2.851,2.851,2.851,2.851,2.851,2.851,2.851,2.851,2.851,2.851,2.851,2.851,2.851,2.851,2.851,2.851,2.851,2.851,2.851,2.851,2.851,2.851,2.851,2.851,2.851,2.8474,2.8294,2.8246,2.8114,2.7546,2.7414,2.727,2.6729,2.6358,2.6045,2.5865,2.554,2.5312,2.5312,2.5312,2.5131,2.4568,2.512,2.561,2.5746,2.5999,2.6022,2.5661,2.5866,2.6042,2.6042,2.6312,2.6472,2.6472,2.6483,2.6353,2.6141,2.6124,2.5983,2.5709,2.5499,2.5341,2.5261,2.4764,2.4518,2.4518,2.4436,2.4489,1.813,1.9028,2.0049,2.0978,2.1576,2.1981,2.215,2.2571,2.2731,2.2181,2.2683,2.3119,2.2746,2.2799,2.3083,2.3465,2.3976,2.4507,2.5063,2.5595,2.5859,2.5613,2.5623,2.5622,0.0,0.0,0.0,2.7354,2.775,2.8162,2.8498,2.851,2.851,2.851,2.851,2.851,2.851,2.851,2.851,2.851,2.851,2.851,2.851,2.851,2.851,2.851,2.851,2.851,2.851,2.851,2.851,2.851,2.851,2.851,2.851,2.851,2.851,2.851,2.851,2.851,2.851,2.851,2.851,2.851,2.851,2.851,2.851,2.851,2.851,2.851,2.851,2.851,2.8426,2.8089,2.8005,2.7861,2.7294,2.6935,2.6622,2.643,2.5961,2.5588,2.5588,2.5432,2.5262,2.5132,2.5398,2.5647,2.5677,2.5961,2.6136,2.5984,2.6007,2.605,2.605,2.6115,2.6163,2.6163,2.6445,2.6486,2.6163,2.6459,2.6486,2.6163,2.5893,2.5743,2.5743,2.5258,2.5005,2.5005,2.5005,2.5005,1.9443,1.9368,1.9056,2.0911,2.1767,2.2045,2.1588,2.2382,2.2788,2.1291,2.1581,2.1753,0.0,0.0,2.1419,2.1763,2.3017,2.4162,2.486,2.5375,2.5765,0.0,0.0,0.0,0.0,0.0,0.0,2.6896,0.0,2.8474,2.851,2.851,2.851,2.851,2.8471,2.8471,2.851,2.851,2.851,2.851,2.851,2.851,2.851,2.851,2.851,2.851,2.851,2.851,2.851,2.851,2.851,2.851,2.851,2.851,2.851,2.851,2.851,2.851,2.851,2.851,2.851,2.851,2.851,2.851,2.851,2.851,2.851,2.851,2.851,2.851,2.851,2.851,2.851,2.851,2.851,2.8378,2.7834,2.7702,2.7534,2.703,2.6502,2.6093,2.6093,2.5661,2.5488,2.6082,2.6164,2.597,2.5454,2.5756,2.6255,2.6762,2.653,2.6348,2.6348,2.6092,2.5964,2.5964,2.6209,2.6263,2.5992,2.6207,2.6193,2.5922,2.5633,2.5494,2.5494,2.5159,2.5005,2.5005,2.5005,2.5005,1.8786,2.0036,2.1207,2.1176,2.1282,2.1371,2.1245,2.0997,2.0556,1.9766,2.0024,2.0217,1.9528,0.0,0.0,2.1867,2.2628,0.0,2.5526,2.6227,0.0,2.5803,0.0,2.6644,2.5826,2.6615,0.0,0.0,2.7726,2.8089,2.8486,2.851,2.851,2.851,2.8203,2.8203,2.851,2.851,2.851,2.851,2.851,2.851,2.851,2.851,2.851,2.851,2.851,2.851,2.851,2.851,2.851,2.851,2.851,2.851,2.851,2.851,2.851,2.851,2.851,2.851,2.851,2.851,2.851,2.851,2.851,2.851,2.851,2.851,2.851,2.851,2.851,2.851,2.851,2.851,2.851,2.8474,2.8342,2.7993,2.7642,2.751,2.6755,2.6093,2.6093,2.5661,2.5347,2.5523,2.5523,2.5753,2.6401,2.6611,2.6706,2.6773,2.6704,2.6669,2.6669,2.6801,2.688,2.688,2.7155,2.7184,2.688,2.675,2.6512,2.6201,2.5743,2.5494,2.5494,2.5159,2.5005,2.5005,2.5005,2.5005,1.9372,2.0342,2.1124,2.092,2.0717,2.0414,1.9864,1.9471,1.8988,1.81,1.8182,1.8344,1.805,1.8522,1.9396,0.0,0.0,0.0,2.5093,2.5551,2.5622,0.0,2.6046,0.0,2.5998,2.6869,2.766,0.0,2.8065,2.8198,2.8498,2.8311,2.8311,2.851,2.8122,2.8082,2.851,2.851,2.851,2.851,2.851,2.851,2.851,2.851,2.851,2.851,0.0,2.851,2.851,2.851,2.851,2.851,2.851,2.851,2.851,2.851,2.851,2.851,2.851,2.851,2.851,2.851,2.851,2.851,2.851,2.851,2.851,2.851,2.851,2.851,2.851,2.851,2.851,2.851,2.851,2.851,2.851,2.827,2.7993,2.7726,2.7224,2.6743,2.6502,2.6009,2.5661,2.5661,2.5456,2.5716,2.6802,2.6928,2.7007,2.7215,2.7211,2.7172,2.7172,2.708,2.7037,2.7037,2.7306,2.7335,2.7037,2.6989,2.6839,2.653,2.6216,2.6065,2.6065,2.5864,2.5805,2.5805,2.5805,2.5805,2.0497,2.0477,2.005,2.0507,2.0156,1.9407,1.8271,1.8056,1.7769,1.6547,1.6392,1.6502,1.6497,1.7252,1.8244,1.9293,0.0,2.2592,2.4233,2.4316,2.4335,2.4811,2.5082,2.5532,2.624,2.6961,2.7684,2.8351,2.8431,2.8431,2.8431,2.8082,2.8042,2.8391,2.8122,2.8122,2.8431,2.8471,2.851,2.851,2.851,2.851,2.851,2.851,2.851,2.851,2.851,0.0,2.851,2.851,2.851,2.851,2.851,2.851,2.851,2.851,2.851,2.851,2.851,2.851,2.851,2.851,2.851,2.851,2.851,2.851,2.851,2.851,2.851,2.851,2.851,2.851,2.851,2.851,2.851,2.851,2.851,2.851,2.8378,2.7921,2.7726,2.7534,2.7078,2.6574,2.6214,2.6214,2.5757,2.5761,2.6768,2.6943,2.7242,2.7842,2.7857,2.7827,2.7827,2.7352,2.7023,2.7023,2.727,2.727,2.7054,2.7201,2.7146,2.6901,2.6833,2.6793,2.6793,2.6793,2.6793,2.6793,2.6793,2.6793,2.0635,2.0621,2.0285,2.0547,1.9595,1.8473,1.811,1.7301,0.0,1.587,1.556,1.539,1.5383,1.5629,1.6693,1.9299,1.9943,2.1196,2.4382,2.436,2.4044,0.0,2.55,2.6319,2.5948,2.7319,0.0,0.0,0.0,2.8002,2.8002,2.7933,2.7921,2.8002,2.8283,2.8271,2.8002,2.8311,2.851,2.851,2.851,2.851,2.851,2.851,2.851,2.851,2.851,0.0,2.851,2.851,2.851,2.851,2.851,2.851,2.851,2.851,2.851,2.851,2.851,2.851,2.851,2.851,2.851,2.851,2.851,2.851,2.851,2.851,2.851,2.851,2.851,2.851,2.851,2.851,2.851,2.851,2.851,2.851,2.8486,2.839,2.7978,2.7654,2.757,2.7102,2.6753,2.6753,2.631,2.6034,2.6238,2.6691,2.7377,2.836,2.846,2.8438,2.8438,2.8343,2.8288,2.8288,2.8339,2.8352,2.8288,2.7831,2.7573,2.7556,2.7037,2.6793,2.6793,2.6793,2.6793,2.6793,2.6793,2.6793,2.0371,2.0564,2.0401,2.0139,1.925,1.822,1.7246,0.0,0.0,1.4692,1.4234,1.4038,1.4266,1.4824,1.5894,1.7818,1.9028,2.0468,2.2634,2.314,2.3263,2.313,2.4797,2.5841,0.0,2.6887,0.0,0.0,0.0,2.729,2.7534,2.776,2.7893,2.7893,2.8271,2.8391,2.8203,2.8391,2.851,2.851,2.851,2.851,2.851,2.851,2.851,2.851,2.851,0.0,2.851,2.851,2.851,2.851,2.851,2.851,2.851,2.851,2.851,2.851,2.851,2.851,2.851,2.851,2.851,2.851,2.851,2.851,2.851,2.851,2.851,2.851,2.851,2.851,2.851,2.851,2.851,2.851,2.851,2.851,2.851,2.851,2.8306,2.8138,2.8138,2.7654,2.7306,2.7306,2.6837,2.6637,2.6883,2.7193,2.7487,2.7742,2.8249,2.8587,2.8587,2.8587,2.8587,2.8587,2.8587,2.8587,2.8587,2.8315,2.8166,2.8166,2.7881,2.7746,2.7746,2.7746,2.7746,2.7746,2.7746,2.7746,1.9956,2.0304,2.0304,1.9735,1.8991,1.8008,1.6436,1.5361,1.4442,1.3758,1.3224,1.3041,1.3501,1.4248,1.5195,0.0,1.7904,1.9363,2.0715,2.159,2.2154,0.0,2.3966,0.0,2.52,2.6487,0.0,0.0,0.0,0.0,2.7185,2.7667,2.7933,2.8054,2.8363,2.851,2.851,2.851,2.851,2.851,2.851,2.851,2.851,2.851,2.851,2.851,2.851,0.0,0.0,2.851,2.851,2.851,2.851,2.851,2.851,2.851,2.851,2.851,2.851,2.851,2.851,2.851,2.851,2.851,2.851,2.851,2.851,2.851,2.851,2.851,2.851,2.851,2.851,2.851,2.851,2.851,2.851,2.851,2.851,2.851,2.851,2.851,2.851,2.8162,2.7885,2.7885,2.7402,2.7205,2.7643,2.7681,2.7601,2.7352,2.8106,2.8646,2.8777,2.8655,2.8587,2.8587,2.8587,2.8587,2.8587,2.8587,2.8587,2.8587,2.8587,2.8587,2.8587,2.8587,2.8587,2.8587,2.8587,2.8587,1.9477,1.9812,1.9925,1.965,1.867,1.749,1.6367,0.0,1.4067,1.3672,1.3224,1.3041,1.3501,1.3531,0.0,0.0,0.0,1.6992,1.9869,2.0266,2.0591,2.1498,0.0,0.0,2.52,2.6798,0.0,0.0,0.0,0.0,2.7185,2.7667,2.8082,2.8431,2.8471,2.851,2.851,2.851,2.851,2.851,2.851,2.851,2.851,2.851,2.851,2.851,2.851,0.0,0.0,2.851,2.851,2.851,2.851,2.851,2.851,2.851,2.851,2.851,2.851,2.851,2.851,2.851,2.851,2.851,2.851,2.851,2.851,2.851,2.851,2.851,2.851,2.851,2.851,2.851,2.851,2.851,2.851,2.851,2.851,2.851,2.851,2.851,2.851,2.8474,2.8438,2.8438,2.7993,2.7645,2.7683,2.7703,2.79,2.8403,2.8525,2.8805,2.9354,2.8912,2.8587,2.8587,2.8587,2.8587,2.8587,2.8587,2.8587,2.8587,2.8587,2.8587,2.8587,2.8587,2.8587,2.8587,2.8587,2.8587,1.9192,1.986,2.013,1.9418,1.8566,1.7498,1.6025,1.4873,1.3913,1.3307,1.3017,1.2954,1.3138,1.3106,1.342,1.4556,1.4747,0.0,1.7055,1.8113,1.9131,2.0401,2.2027,0.0,0.0,0.0,0.0,0.0,0.0,0.0,2.7626,2.78,2.8082,2.8471,2.851,2.851,2.851,2.851,2.851,2.851,2.851,2.851,2.851,2.851,2.851,2.851,2.851,0.0,0.0,2.851,2.851,2.851,2.851,2.851,2.851,2.851,2.851,2.851,2.851,2.851,2.851,2.851,2.851,2.851,2.851,2.851,2.851,2.851,2.851,2.851,2.851,2.851,2.851,2.851,2.851,2.851,2.851,2.851,2.851,2.851,2.851,2.851,2.851,2.851,2.851,2.851,2.833,2.8198,2.8198,2.8161,2.8402,2.9026,2.9122,2.9409,3.0005,2.9821,2.9686,2.9686,2.9333,2.9292,2.9672,2.898,2.894,2.9672,2.8967,2.8763,2.9149,2.8763,2.8587,2.8587,2.8587,2.8587,1.8548,1.9438,1.9906,1.9031,1.8282,1.7435,1.598,1.483,1.3913,1.3244,1.3002,1.2905,1.2905,1.2905,1.3042,1.3437,1.3725,1.4304,1.5517,1.6711,1.8046,0.0,0.0,0.0,0.0,0.0,0.0,0.0,0.0,0.0,2.8082,2.8082,2.8203,2.8471,2.851,2.851,2.851,2.851,2.851,2.851,2.851,2.851,2.851,2.851,2.851,2.851,2.851,0.0,0.0,2.851,2.851,2.851,2.851,2.851,2.851,2.851,2.851,2.851,2.851,2.851,2.851,2.851,2.851,2.851,2.851,2.851,2.851,2.851,2.851,2.851,2.851,2.851,2.851,2.851,2.851,2.851,2.851,2.851,2.851,2.851,2.851,2.851,2.851,2.851,2.851,2.851,2.851,2.851,2.851,2.851,2.8736,2.9341,2.9452,2.9657,3.0055,3.014,3.015,3.015,2.9916,2.9957,3.0391,2.9591,2.9442,3.012,2.9292,2.898,2.9244,2.8804,2.8587,2.8587,2.8587,2.8587,1.741,1.8237,1.8918,1.8414,1.7847,1.7202,1.638,1.5107,1.3992,1.3662,1.3224,1.2905,1.2905,1.2905,1.3042,1.3437,1.3266,0.0,1.6076,1.6571,1.7376,0.0,0.0,0.0,0.0,0.0,0.0,0.0,0.0,0.0,2.8471,2.8471,2.851,2.851,2.851,2.851,2.851,2.851,2.851,2.851,2.851,2.851,2.851,2.851,2.851,0.0,0.0,0.0,0.0,2.851,2.851,2.851,2.851,2.851,2.851,2.851,2.851,2.851,2.851,2.851,2.851,2.851,2.851,2.851,2.851,2.851,2.851,2.851,2.851,2.851,2.851,2.851,2.851,2.851,2.851,2.851,2.851,2.851,2.851,2.851,2.851,2.851,2.851,2.851,2.851,2.851,2.851,2.851,2.851,2.851,2.8736,2.9341,2.9406,2.9414,2.9411,2.9477,2.9504,2.9504,3.0067,3.0405,3.0405,3.0405,3.0106,2.9529,2.9515,2.9217,2.86,2.8587,2.8587,2.8587,2.8587,2.8587,1.6227,1.7095,1.7745,1.6973,1.6424,1.592,1.542,1.4473,1.3673,1.3625,1.3224,1.2905,1.2905,1.2905,1.3115,1.3792,1.3813,0.0,0.0,0.0,0.0,1.9097,2.2118,0.0,0.0,0.0,0.0,0.0,0.0,0.0,2.8471,2.851,2.851,2.851,2.851,2.851,2.851,2.851,2.851,2.851,2.851,2.851,2.851,2.851,2.851,0.0,0.0,0.0,0.0,2.851,2.851,2.851,2.851,2.851,2.851,2.851,2.851,2.851,2.851,2.851,2.851,2.851,2.851,2.851,2.851,2.851,2.851,2.851,2.851,2.851,2.851,2.851,2.851,2.851,2.851,2.851,2.851,2.851,2.851,2.851,2.851,2.851,2.851,2.851,2.851,2.851,2.851,2.851,2.851,2.851,2.8578,2.8776,2.8776,2.9123,2.9922,3.0044,3.0238,3.0642,3.0493,3.0753,3.1599,3.0839,3.0703,3.1349,3.0527,3.0215,3.0432,3.0025,2.9835,2.9835,2.9835,2.9835,1.5186,1.5982,1.6514,1.5987,1.5488,1.5132,1.4957,1.4162,1.3505,1.3594,1.3224,1.2905,1.2905,1.2905,1.3047,1.3574,1.3568,0.0,0.0,0.0,0.0,2.0138,0.0,0.0,0.0,0.0,0.0,0.0,0.0,0.0,2.851,2.851,2.851,2.851,2.851,2.851,2.851,2.851,2.851,2.851,2.851,2.851,2.851,2.851,2.851,0.0,0.0,0.0,0.0,2.851,2.851,2.851,2.851,2.851,2.851,2.851,2.851,2.851,2.851,2.851,2.851,2.851,2.851,2.851,2.851,2.851,2.851,2.851,2.851,2.851,2.851,2.851,2.851,2.851,2.851,2.851,2.851,2.851,2.851,2.851,2.851,2.851,2.851,2.851,2.851,2.851,2.851,2.851,2.851,2.851,2.851,2.851,2.851,2.8816,2.9574,2.9832,3.0203,3.0809,3.0533,3.0926,3.2169,3.1236,3.1087,3.1829,3.111,3.0812,3.0961,3.0581,3.0405,3.0405,3.0405,3.0405,0.0,1.4866,1.5264,1.5234,1.496,1.4733,1.4783,1.4118,0.0,1.3584,1.3224,1.2915,1.2944,1.2925,1.2935,1.3023,1.2938,0.0,0.0,1.6584,0.0,0.0,0.0,0.0,0.0,0.0,0.0,0.0,0.0,0.0,2.851,2.851,2.851,2.851,2.851,2.851,2.851,2.851,2.851,2.851,2.851,2.851,2.851,2.851,2.851,0.0,0.0,0.0,0.0,2.851,2.851,2.851,2.851,2.851,2.851,2.851,2.851,2.851,2.851,2.851,2.851,2.851,2.851,2.851,2.851,2.851,2.851,2.851,2.851,2.851,2.851,2.851,2.851,2.851,2.851,2.851,2.851,2.851,2.851,2.851,2.851,2.851,2.851,2.851,2.851,2.851,2.851,2.851,2.851,2.851,2.851,2.851,2.851,2.851,2.855,2.904,2.96,3.0254,3.0279,3.0859,3.2132,3.1579,3.1289,3.1368,3.1355,3.1083,3.054,3.054,3.054,3.054,3.054,3.054,1.3337,0.0,1.3877,1.3555,1.3691,1.3904,0.0,1.3727,1.3576,1.3594,1.3224,1.3003,1.3301,1.3096,1.3228,1.4206,0.0,0.0,1.7222,0.0,0.0,0.0,0.0,0.0,0.0,0.0,0.0,0.0,0.0,2.851,2.851,2.851,2.851,2.851,2.851,2.851,2.851,2.851,2.851,2.851,2.851,2.851,2.851,2.851,2.851,0.0,0.0,0.0,2.851,2.851,2.851,2.851,2.851,2.851,2.851,2.851,2.851,2.851,2.851,2.851,2.851,2.851,2.851,2.851,2.851,2.851,2.851,2.851,2.851,2.851,2.851,2.851,2.851,2.851,2.851,2.851,2.851,2.851,2.851,2.851,2.851,2.851,2.851,2.851,2.851,2.851,2.851,2.851,2.851,2.851,2.851,2.851,2.851,2.8697,2.9157,2.8895,2.9157,3.0241,3.0279,3.0859,3.2132,3.2059,3.1955,3.2001,3.2001,3.1897,3.1762,3.1762,3.1762,3.1762,3.1762,3.1762,1.3224,1.3348,1.3498,1.3561,1.3574,1.3614,1.3896,1.3789,1.3549,1.332,1.3248,1.3232,1.3224,1.3193,1.3457,0.0,1.5113,0.0,0.0,0.0,0.0,0.0,0.0,0.0,0.0,0.0,0.0,0.0,0.0,2.851,2.851,2.851,2.851,2.851,2.851,2.851,2.851,2.851,2.851,2.851,2.851,2.851,2.851,2.851,2.851,0.0,0.0,0.0,2.851,2.851,2.851,2.851,2.851,2.851,2.851,2.851,2.851,2.851,2.851,2.851,2.851,2.851,2.851,2.851,2.851,2.851,2.851,2.851,2.851,2.851,2.851,2.851,2.851,2.851,2.851,2.851,2.851,2.851,2.851,2.851,2.851,2.851,2.851,2.851,2.851,2.851,2.851,2.851,2.851,2.851,2.851,2.851,2.851,2.8736,2.9341,2.9118,2.9419,3.062,3.0431,3.0859,3.2132,3.19,3.19,3.2169,3.2218,3.2218,3.2218,3.2218,3.2218,3.2218,3.2218,3.2218,1.3727,1.376,1.3794,1.4171,1.4017,1.3831,1.421,1.3938,1.3478,1.3002,1.3224,1.3399,1.3145,1.3359,0.0,0.0,0.0,0.0,0.0,0.0,0.0,0.0,0.0,0.0,0.0,0.0,0.0,0.0,0.0,2.851,2.851,2.851,2.851,2.851,2.851,2.851,2.851,2.851,2.851,2.851,2.851,2.851,2.851,2.851,2.851,2.851,0.0,0.0,2.851,2.851,2.851,2.851,2.851,2.851,2.851,2.851,2.851,2.851,2.851,2.851,2.851,2.851,2.851,2.851,2.851,2.851,2.851,2.851,2.851,2.851,2.851,2.851,2.851,2.851,2.851,2.851,2.851,2.851,2.851,2.851,2.851,2.851,2.851,2.851,2.851,2.851,2.851,2.851,2.851,2.851,2.851,2.851,2.851,2.8776,2.9496,2.9535,3.0063,3.127,3.0771,3.0972,3.2132,3.1666,3.1616,3.2182,3.2218,3.2218,3.2218,3.2218,3.2218,3.2218,3.2218,3.2218,1.4843,1.4788,1.4532,1.3886,1.4285,1.4671,1.3903,1.3662,1.3478,1.3002,1.2954,1.3195,1.3809,1.3968,1.4387,0.0,0.0,0.0,0.0,0.0,0.0,0.0,0.0,0.0,0.0,0.0,0.0,0.0,0.0,0.0,2.851,2.851,2.851,2.851,2.851,2.851,2.851,2.851,2.851,2.851,2.851,2.851,2.851,2.851,2.851,2.851,0.0,2.851,2.851,2.851,2.851,2.851,2.851,2.851,2.851,2.851,2.851,2.851,2.851,2.851,2.851,2.851,2.851,2.851,2.851,2.851,2.851,2.851,2.851,2.851,2.851,2.851,2.851,2.851,2.851,2.851,2.851,2.851,2.851,2.851,2.851,2.851,2.851,2.851,2.851,2.851,2.851,2.851,2.851,2.851,2.851,2.851,2.851,2.8961,3.0063,3.0165,3.0709,3.1986,3.1431,3.1394,3.2182,3.2096,3.2096,3.2218,3.2218,3.2218,3.2218,3.2218,3.2218,3.2218,3.2218,3.2218,1.5024,1.5282,1.5351,1.4926,1.4903,1.492,1.4814,1.4782,1.4545,1.3734,1.4028,1.4577,1.4938,0.0,1.6518,1.8656,0.0,0.0,0.0,0.0,0.0,0.0,0.0,0.0,0.0,0.0,0.0,0.0,0.0,0.0,2.851,2.851,2.851,2.851,2.851,2.851,2.851,2.851,2.851,2.851,2.851,2.851,2.851,2.851,2.851,2.851,0.0,2.851,2.851,2.851,2.851,2.851,2.851,2.851,2.851,2.851,2.851,2.851,2.851,2.851,2.851,2.851,2.851,2.851,2.851,2.851,2.851,2.851,2.851,2.851,2.851,2.851,2.851,2.851,2.851,2.851,2.851,2.851,2.851,2.851,2.851,2.851,2.851,2.851,2.851,2.851,2.851,2.851,2.851,2.851,2.851,2.851,2.851,2.8855,2.9755,3.0101,3.0822,3.2132,3.19,3.1863,3.2182,3.2218,3.2218,3.2218,3.2218,3.2218,3.2218,3.2218,3.2218,3.2218,3.2218,3.2218,1.5314,1.566,1.5878,1.6032,1.5466,1.51,1.5989,1.6008,1.5699,1.5175,1.5647,1.617,0.0,1.7179,0.0,2.1702,0.0,0.0,0.0,0.0,0.0,0.0,0.0,0.0,0.0,0.0,0.0,0.0,0.0,0.0,2.851,2.851,2.851,2.851,2.851,2.851,2.851,2.851,2.851,2.851,2.851,2.851,2.851,2.851,2.851,2.851,2.851,2.851,2.851,2.851,2.851,2.851,2.851,2.851,2.851,2.851,2.851,2.851,2.851,2.851,2.851,2.851,2.851,2.851,2.851,2.851,2.851,2.851,2.851,2.851,2.851,2.851,2.851,2.851,2.851,2.851,2.851,2.851,2.851,2.851,2.851,2.851,2.851,2.851,2.851,2.851,2.851,2.851,2.851,2.851,2.851,2.851,2.863,2.9,2.9755,3.0406,3.1172,3.2132,3.2218,3.2218,3.2218,3.2218,3.2218,3.2218,3.2218,3.2218,3.2218,3.2218,3.2218,3.2218,3.2218,3.2218,1.6346,1.6103,1.5843,1.6408,1.5804,1.5488,1.7017,1.666,1.6374,1.7726,1.7568,1.732,0.0,1.876,2.0599,2.3621,0.0,0.0,0.0,0.0,0.0,0.0,0.0,0.0,0.0,0.0,0.0,0.0,0.0,0.0,2.851,2.851,2.851,2.851,2.851,2.851,2.851,2.851,2.851,2.851,2.851,2.851,2.851,2.851,2.851,2.851,2.851,2.851,2.851,2.851,2.851,2.851,2.851,2.851,2.851,2.851,2.851,2.851,2.851,2.851,2.851,2.851,2.851,2.851,2.851,2.851,2.851,2.851,2.851,2.851,2.851,2.851,2.851,2.851,2.851,2.851,2.851,2.851,2.851,2.851,2.851,2.851,2.851,2.851,2.851,2.851,2.851,2.851,2.851,2.851,2.851,2.851,2.9,2.9793,3.0959,3.1666,3.2096,3.2169,3.2218,3.2218,3.2218,3.2218,3.2218,3.2218,3.2218,3.2218,3.2218,3.2218,3.2218,3.2218,3.2218,3.2218,1.5948,1.6182,1.6386,1.6967,1.7097,1.7216,1.7752,1.809,1.8567,1.9418,1.9711,1.9929,0.0,0.0,2.3132,0.0,0.0,0.0,0.0,0.0,0.0,0.0,0.0,0.0,0.0,0.0,0.0,0.0,0.0,0.0,0.0,2.851,2.851,2.851,2.851,2.851,2.851,2.851,2.851,2.851,2.851,2.851,2.851,2.851,2.851,2.851,2.851,2.851,2.851,2.851,2.851,2.851,2.851,2.851,2.851,2.851,2.851,2.851,2.851,2.851,2.851,2.851,2.851,2.851,2.851,2.851,2.851,2.851,2.851,2.851,2.851,2.851,2.851,2.851,2.851,2.851,2.851,2.851,2.851,2.851,2.851,2.851,2.851,2.851,2.851,2.851,2.851,2.851,2.851,2.851,2.851,2.851,2.904,2.9871,3.1108,3.1418,3.174,3.2169,3.2218,3.2218,3.2218,3.2218,3.2218,3.2218,3.2218,3.2218,3.2218,3.2218,3.2218,3.2218,3.2218,3.2218,1.5492,1.5946,1.6487,1.7015,1.7701,1.8424,1.9025,1.9698,2.0554,2.1714,2.1962,2.2172,2.2681,0.0,0.0,0.0,0.0,0.0,0.0,0.0,0.0,0.0,0.0,0.0,0.0,0.0,0.0,0.0,0.0,0.0,0.0,2.851,2.851,2.851,2.851,2.851,2.851,2.851,2.851,2.851,2.851,2.851,2.851,2.851,2.851,2.851,2.851,2.851,2.851,2.851,2.851,2.851,2.851,2.851,2.851,2.851,2.851,2.851,2.851,2.851,2.851,2.851,2.851,2.851,2.851,2.851,2.851,2.851,2.851,2.851,2.851,2.851,2.851,2.851,2.851,2.851,2.851,2.851,2.851,2.851,2.851,2.851,2.851,2.8655,2.8703,2.8534,2.8655,2.8703,2.8534,2.851,2.859,2.8776,2.9302,3.0101,3.1108,3.1479,3.1859,3.2336,3.2336,3.2314,3.2205,3.2218,3.2218,3.2218,3.2218,3.2218,3.2218,3.2218,3.2218,3.2218,3.2218,3.2218,1.5145,1.5396,1.5936,1.6487,1.7423,1.8794,2.0935,2.1434,2.2174,2.4775,2.4366,2.3699,2.4231,2.3883,0.0,0.0,0.0,0.0,0.0,0.0,0.0,0.0,0.0,0.0,0.0,0.0,0.0,0.0,0.0,0.0,0.0,2.851,2.851,2.851,2.851,2.851,2.851,2.851,2.851,2.851,2.851,2.851,2.851,2.851,2.851,2.851,2.851,2.851,2.851,2.851,2.851,2.851,2.851,2.851,2.851,2.851,2.851,2.851,2.851,2.851,2.851,2.851,2.851,2.851,2.851,2.851,2.851,2.851,2.851,2.851,2.851,2.851,2.851,2.851,2.851,2.851,2.851,2.851,2.851,2.851,2.851,2.851,2.8522,2.8955,2.9124,2.8595,2.8967,2.9112,2.8595,2.851,2.8736,2.9341,2.9947,3.0545,3.1158,3.2114,3.2704,3.2704,3.2704,3.2574,3.2218,3.2218,3.2218,3.2218,3.2218,3.2218,3.2218,3.2218,3.2218,3.2218,3.2218,3.2218,1.5049,1.5936,1.7051,1.7579,1.9384,2.1272,2.2282,2.2535,2.3165,2.5397,2.5863,2.58,2.5611,0.0,0.0,0.0,0.0,0.0,0.0,0.0,0.0,0.0,0.0,0.0,0.0,0.0,0.0,0.0,0.0,0.0,0.0,2.851,2.851,2.851,2.851,2.851,2.851,2.851,2.851,2.851,2.851,2.851,2.851,2.851,2.851,2.851,2.851,2.851,2.851,2.851,2.851,2.851,2.851,2.851,2.851,2.851,2.851,2.851,2.851,2.851,2.851,2.851,2.851,2.851,2.851,2.851,2.851,2.851,2.851,2.851,2.851,2.851,2.851,2.851,2.851,2.851,2.851,2.851,2.851,2.851,2.851,2.8631,2.9003,2.9196,2.9244,2.9088,2.9508,2.9665,2.9136,2.8739,2.8736,2.9341,2.9947,3.0545,3.1158,3.2114,3.2704,3.2704,3.2988,3.2952,3.2574,3.235,3.2218,3.2218,3.2218,3.2218,3.2218,3.2218,3.2218,3.2218,3.2218,3.2218,1.5265,1.6343,1.764,1.859,2.037,2.2185,2.3328,2.4085,0.0,0.0,2.6657,2.6861,2.6767,2.6813,0.0,0.0,0.0,0.0,0.0,0.0,0.0,0.0,0.0,0.0,0.0,0.0,0.0,0.0,0.0,0.0,0.0,0.0,0.0,0.0,2.851,2.851,2.851,2.851,2.851,2.851,2.851,2.851,2.851,2.851,2.851,2.851,2.851,2.851,2.851,2.851,2.851,2.851,2.851,2.851,2.851,2.851,2.851,2.851,2.851,2.851,2.851,2.851,2.851,2.851,2.851,2.851,2.851,2.851,2.851,2.851,2.851,2.851,2.851,2.851,2.851,2.851,2.851,2.851,2.851,2.851,2.8679,2.8931,2.9244,2.9641,2.9845,2.9641,2.9881,2.9965,2.9653,2.9148,2.8972,2.9319,2.9699,3.0177,3.0771,3.1773,3.2439,3.269,3.3094,3.3199,3.2952,3.2574,3.235,3.2218,3.2218,3.2218,3.2218,3.2218,3.2218,3.2218,3.2218,3.2218,1.5588,1.6583,1.7869,1.9456,2.0779,2.2197,2.4112,2.5733,2.6837,2.6885,0.0,2.7186,2.7666,0.0,0.0,0.0,0.0,0.0,0.0,0.0,0.0,0.0,0.0,0.0,0.0,0.0,0.0,0.0,0.0,0.0,0.0,0.0,0.0,2.851,2.851,2.851,2.851,2.851,2.851,2.851,2.851,2.851,2.851,2.851,2.851,2.851,2.851,2.851,2.851,2.851,2.851,2.851,2.851,2.851,2.851,2.851,2.851,2.851,2.851,2.851,2.851,2.851,2.851,2.851,2.851,2.851,2.851,2.851,2.851,2.851,2.851,2.851,2.851,2.851,2.851,2.851,2.851,2.8546,2.8582,2.8582,2.9015,2.9388,2.9436,3.0242,3.0766,3.029,3.0146,3.011,3.0158,2.9784,2.9446,2.9446,2.9591,2.9869,3.0432,3.1357,3.2137,3.2668,3.3094,3.3339,3.3304,3.2952,3.2596,3.2241,3.2255,3.2241,3.2218,3.2218,3.2218,3.2218,3.2218,3.2218,1.5145,1.6571,1.8422,2.0033,2.213,2.4073,2.4939,2.5733,2.6406,2.6801,2.7558,2.821,0.0,0.0,0.0,0.0,0.0,0.0,0.0,0.0,0.0,0.0,0.0,0.0,0.0,0.0,0.0,0.0,0.0,0.0,0.0,0.0,0.0,2.851,2.851,2.851,2.851,2.851,2.851,0.0,2.851,2.851,2.851,2.851,2.851,2.851,2.851,2.851,2.851,2.851,2.851,2.851,2.851,2.851,2.851,2.851,2.851,2.851,2.851,2.851,2.851,2.851,2.851,2.851,2.851,2.851,2.851,2.851,2.851,2.851,2.851,2.851,2.851,2.851,2.851,2.851,2.851,2.8835,2.9124,2.9124,2.9556,3.005,3.0458,3.0766,3.1019,3.132,3.0657,3.0242,3.0651,3.0722,3.0708,3.0708,3.1198,3.1588,3.1702,3.2189,3.2547,3.2704,3.3304,3.3563,3.3304,3.3234,3.2988,3.2596,3.2596,3.2467,3.2218,3.2218,3.2218,3.2218,3.2218,3.2218,1.5574,1.7135,1.9155,2.1536,0.0,2.4628,2.5192,2.5721,2.6178,2.6466,2.7392,0.0,0.0,0.0,0.0,0.0,0.0,0.0,0.0,0.0,0.0,0.0,0.0,0.0,0.0,0.0,0.0,0.0,0.0,0.0,0.0,2.851,2.851,2.851,2.851,2.851,2.851,2.851,2.851,2.851,2.851,2.851,2.851,2.851,2.851,2.851,2.851,2.851,2.851,2.851,2.851,2.851,2.851,2.851,2.851,2.851,2.851,2.851,2.851,2.851,2.851,2.851,2.851,2.851,2.851,2.851,2.851,2.851,2.851,2.857,2.8823,2.8883,2.8955,2.9208,2.8883,2.8582,2.8835,2.91,2.9376,2.9629,3.011,3.0555,3.0874,3.1127,3.1392,3.1669,3.1235,3.1069,3.1693,3.161,3.1597,3.1928,3.2053,3.211,3.2104,3.2289,3.2426,3.2458,3.2966,3.3199,3.3023,3.3339,3.3374,3.2988,3.2988,3.2881,3.2731,3.2552,3.2444,3.2444,3.2277,3.2218,1.5836,1.764,1.9829,2.2794,2.4013,0.0,2.5071,2.5588,2.5961,2.5961,0.0,0.0,0.0,0.0,0.0,0.0,0.0,0.0,0.0,0.0,0.0,0.0,0.0,0.0,0.0,0.0,0.0,0.0,0.0,0.0,2.851,2.851,2.851,2.851,2.851,2.851,2.851,2.851,2.851,2.851,2.851,2.851,2.851,2.851,2.851,2.851,2.851,2.851,2.851,2.851,2.851,2.851,2.851,2.851,2.851,2.851,2.851,2.851,2.851,2.851,2.851,2.851,2.851,2.851,2.851,2.851,2.851,2.851,2.857,2.8751,2.9184,2.9364,2.9544,2.9977,2.9412,2.8907,2.934,2.9508,2.9701,3.0134,3.0694,3.1055,3.1055,3.1416,3.1705,3.1705,3.1705,3.1881,3.2463,3.2331,3.2412,3.2979,3.2739,3.2594,3.2588,3.2455,3.2431,3.2471,3.2877,3.3074,3.2977,3.3684,3.3884,3.3493,3.3409,3.3374,3.3304,3.2917,3.2704,3.2704,3.2336,3.2218,1.4422,0.0,2.0145,0.0,2.3472,2.4508,0.0,0.0,2.5408,0.0,0.0,0.0,0.0,0.0,0.0,0.0,0.0,0.0,0.0,0.0,0.0,0.0,0.0,0.0,0.0,0.0,0.0,0.0,0.0,0.0,2.8486,2.851,2.851,2.851,2.851,2.851,2.851,2.851,2.851,2.851,2.851,2.851,2.851,2.851,2.851,2.851,2.851,2.851,2.851,2.851,2.851,2.851,2.851,2.851,2.851,2.851,2.851,2.851,2.851,2.851,2.851,2.851,2.851,2.851,2.851,2.851,2.851,2.851,2.8835,2.9208,2.928,2.9641,3.0001,3.0074,2.9977,2.9893,2.9965,3.0338,3.073,3.0802,3.1247,3.1609,3.1609,3.1657,3.1705,3.1705,3.1705,3.1749,3.1837,3.2796,3.3471,3.3597,3.4123,3.4429,3.4441,3.3954,3.3668,3.3677,3.4353,3.4559,3.4018,3.4773,3.4897,3.4278,3.3908,3.3597,3.3304,3.2917,3.2704,3.2704,3.2336,3.2218,1.5582,1.7665,1.9793,0.0,2.2702,2.3448,2.428,0.0,2.4951,0.0,0.0,0.0,0.0,0.0,0.0,0.0,0.0,0.0,0.0,0.0,0.0,0.0,0.0,0.0,0.0,0.0,0.0,0.0,0.0,2.7342,2.757,2.7582,2.7582,2.7582,2.7582,2.7582,2.7582,2.7921,2.8222,2.851,2.851,2.851,2.851,2.851,2.851,2.851,2.851,2.851,2.851,2.851,2.851,2.851,2.851,2.851,2.851,2.851,2.851,2.851,2.851,2.851,2.851,2.851,2.851,2.851,2.851,2.851,2.857,2.8871,2.9124,2.9436,3.0025,3.035,3.0603,3.0946,3.1019,3.1019,3.1019,3.097,3.1007,3.1308,3.1548,3.1705,3.1705,3.2013,3.2145,3.1749,3.2351,3.2815,3.2815,3.3658,3.4384,3.4799,3.5117,3.5154,3.4816,3.4558,3.4376,3.4317,3.4616,3.479,3.4759,3.4946,3.4934,3.4626,3.4301,3.4059,3.3908,3.3514,3.3304,3.3304,3.2753,3.2467,1.6139,0.0,1.8698,2.0851,2.1692,2.233,0.0,0.0,0.0,0.0,0.0,0.0,0.0,0.0,0.0,0.0,0.0,0.0,0.0,0.0,0.0,0.0,0.0,0.0,0.0,0.0,0.0,0.0,0.0,2.6741,2.6885,2.6898,2.6898,2.6898,2.6898,2.6898,2.6898,2.7294,2.7789,2.8318,2.8318,2.8378,2.851,2.851,2.851,2.851,2.851,2.851,2.851,2.851,2.851,2.851,2.851,2.851,2.851,2.851,2.851,2.851,2.851,2.851,2.851,2.851,2.851,2.851,2.851,2.8607,2.8799,2.9184,2.9496,2.9881,3.0675,3.1019,3.1211,3.1609,3.1705,3.1705,3.1705,3.1404,3.1235,3.1633,3.1705,3.1705,3.1705,3.2276,3.2537,3.2013,3.2945,3.3713,3.3713,3.4301,3.4881,3.5386,3.5588,3.5533,3.5059,3.5019,3.4986,3.4884,3.5086,3.5282,3.5391,3.5402,3.5289,3.4958,3.4755,3.4574,3.4414,3.3991,3.3805,3.377,3.3164,3.281,1.4677,1.554,0.0,1.8626,2.031,2.1596,0.0,0.0,0.0,0.0,0.0,0.0,0.0,0.0,0.0,0.0,0.0,0.0,0.0,0.0,0.0,0.0,0.0,0.0,0.0,0.0,0.0,0.0,0.0,2.637,2.6861,2.6898,2.6898,2.6898,2.6898,2.6898,2.6898,2.6922,2.7198,2.7726,2.7726,2.8029,2.851,2.851,2.851,2.851,2.851,2.851,2.851,2.851,2.851,2.851,2.851,2.851,2.851,2.851,2.851,2.851,2.851,2.851,2.851,2.851,2.851,2.851,2.851,2.8859,2.9268,2.9292,3.0025,3.085,3.091,3.1296,3.1681,3.1705,3.1705,3.1705,3.1705,3.1681,3.1681,3.1705,3.1705,3.1705,3.1705,3.2276,3.2667,3.2624,3.3258,3.3713,3.3713,3.4301,3.4716,3.4758,3.5345,3.571,3.5683,3.5669,3.5655,3.5628,3.6411,3.6589,3.5961,3.6722,3.6584,3.5386,3.5363,3.5058,3.4414,3.3991,3.3805,3.3805,3.3409,3.3058,1.4305,0.0,0.0,1.7712,1.8927,2.0081,2.0976,0.0,0.0,0.0,0.0,0.0,0.0,0.0,0.0,0.0,0.0,0.0,0.0,0.0,0.0,0.0,0.0,0.0,0.0,0.0,0.0,0.0,0.0,0.0,2.5841,2.5853,2.5853,2.5853,2.5853,2.6057,2.6394,2.6394,2.6671,2.7186,2.7522,2.7786,2.8017,2.8354,2.851,2.851,2.851,2.851,2.851,2.851,2.851,2.851,2.851,2.851,2.851,2.851,2.851,2.851,2.851,2.851,2.851,2.851,2.851,2.851,2.851,2.8883,2.9364,2.9713,3.0326,3.0995,3.1332,3.1573,3.1705,3.1705,3.1705,3.1705,3.1705,3.1705,3.1705,3.1705,3.1705,3.1705,3.1705,3.2276,3.2711,3.2711,3.3641,3.4343,3.4343,3.4922,3.5345,3.5345,3.5548,3.5804,3.6098,3.5884,3.5951,3.6508,3.6575,3.6752,3.7029,3.6934,3.6814,3.662,3.5828,3.5087,3.4414,3.4264,3.4196,3.4162,3.3805,3.3563,1.3879,1.4907,0.0,0.0,0.0,1.8566,2.0013,0.0,0.0,0.0,0.0,0.0,0.0,0.0,0.0,0.0,0.0,0.0,0.0,0.0,0.0,0.0,0.0,0.0,0.0,0.0,0.0,0.0,0.0,0.0,2.5312,2.5312,2.5312,2.5312,2.5312,2.548,2.5829,2.5829,2.6105,2.6621,2.7162,2.751,2.7702,2.827,2.851,2.851,2.851,2.851,2.851,2.851,2.851,2.851,2.851,2.851,2.851,2.851,2.851,2.851,2.851,2.851,2.851,2.851,2.851,2.8546,2.8727,2.9136,2.9677,3.0206,3.0735,3.1259,3.1621,3.1705,3.1705,3.1705,3.1705,3.1705,3.1705,3.1705,3.1705,3.1705,3.1705,3.1705,3.1705,3.2276,3.2797,3.3013,3.4008,3.4799,3.5005,3.5426,3.571,3.571,3.571,3.5884,3.6351,3.6098,3.6244,3.694,3.6889,3.7046,3.7586,3.7324,3.7247,3.7317,3.6228,3.5372,3.4733,3.4516,3.4414,3.438,3.4128,3.3908,0.0,0.0,0.0,0.0,0.0,0.0,0.0,0.0,0.0,0.0,0.0,0.0,0.0,0.0,0.0,0.0,0.0,0.0,0.0,0.0,0.0,0.0,0.0,0.0,0.0,0.0,0.0,0.0,0.0,2.5312,2.5312,2.5312,2.5312,2.5312,2.5312,2.5312,2.5312,2.5312,2.5564,2.6081,2.6621,2.7162,2.7717,2.827,2.851,2.851,2.851,2.851,2.851,2.851,2.851,2.851,2.851,2.851,2.851,2.851,2.851,2.851,2.851,2.851,2.851,2.851,2.851,2.8607,2.9136,2.9665,3.0194,3.0766,3.1296,3.1705,3.1705,3.1705,3.1705,3.1705,3.1705,3.1705,3.1705,3.1705,3.1705,3.1705,3.1705,3.1705,3.1705,3.2276,3.2927,3.3641,3.4301,3.4922,3.5588,3.571,3.571,3.571,3.571,3.5884,3.6351,3.6405,3.6589,3.6978,3.738,3.7586,3.7625,3.7976,3.7926,3.7346,3.6664,3.5996,3.5421,3.4733,3.4414,3.4414,3.4414,3.4162,1.3457,0.0,0.0,0.0,0.0,0.0,0.0,0.0,0.0,0.0,0.0,0.0,0.0,0.0,0.0,0.0,0.0,0.0,0.0,0.0,0.0,0.0,0.0,0.0,0.0,0.0,0.0,0.0,2.5312,2.5312,2.5312,2.5312,2.5312,2.5312,2.5312,2.5312,2.5312,2.5312,2.5384,2.554,2.6453,2.697,2.715,2.8089,2.851,2.851,2.851,2.851,2.851,2.851,2.851,2.851,2.851,2.851,2.851,2.851,2.851,2.851,2.851,2.851,2.851,2.851,2.851,2.8607,2.9136,2.9665,3.0194,3.0766,3.1296,3.1705,3.1705,3.1705,3.1705,3.1705,3.1705,3.1705,3.1705,3.1705,3.1705,3.1705,3.1705,3.1837,3.232,3.2581,3.3086,3.4259,3.4592,3.4922,3.5588,3.571,3.571,3.571,3.571,3.5884,3.6351,3.6405,3.6589,3.6978,3.7109,3.7303,3.7586,3.7701,3.7829,3.7955,3.6867,3.6228,3.604,3.4951,3.4414,3.4414,3.4414,3.4162,1.3831,1.4405,0.0,0.0,0.0,0.0,0.0,1.6775,0.0,0.0,0.0,0.0,0.0,0.0,0.0,0.0,0.0,0.0,0.0,0.0,0.0,0.0,0.0,0.0,0.0,0.0,0.0,2.5312,2.5312,2.5312,2.5312,2.5312,2.5312,2.5312,2.5312,2.5312,2.5312,2.5312,2.5312,2.5312,2.6178,2.6669,2.6922,2.7762,2.8306,2.851,2.851,2.851,2.851,2.851,2.851,2.851,2.851,2.851,2.851,2.851,2.851,2.851,2.851,2.851,2.851,2.851,2.8655,2.8931,2.946,3.0001,3.053,3.1103,3.1476,3.1705,3.1705,3.1705,3.1705,3.1705,3.1705,3.1705,3.1705,3.1705,3.1705,3.1705,3.1925,3.2232,3.2624,3.2927,3.3471,3.4551,3.4716,3.4922,3.5588,3.571,3.571,3.571,3.571,3.5884,3.6351,3.6549,3.6811,3.7226,3.7404,3.7596,3.7839,3.7839,3.7953,3.8202,3.723,3.646,3.5909,3.4907,3.4414,3.4414,3.4414,3.4264,1.4397,1.473,1.5193,0.0,0.0,0.0,1.6654,1.6763,0.0,0.0,0.0,0.0,0.0,0.0,0.0,0.0,0.0,0.0,0.0,0.0,0.0,0.0,0.0,0.0,0.0,2.5276,2.5312,2.5312,2.5312,2.5312,2.5312,2.5312,2.5312,2.5312,2.5312,2.5312,2.5312,2.5312,2.5312,2.5312,2.5841,2.6394,2.691,2.7438,2.7978,2.851,2.851,2.851,2.851,2.851,2.851,2.851,2.851,2.851,2.851,2.851,2.851,2.851,2.851,2.851,2.851,2.851,2.8823,2.9316,2.9905,3.041,3.0958,3.1536,3.1705,3.1705,3.1705,3.1705,3.1705,3.1705,3.1705,3.1705,3.1705,3.1749,3.1793,3.1793,3.2276,3.2754,3.2884,3.3428,3.405,3.4716,3.4799,3.5018,3.5629,3.571,3.571,3.571,3.571,3.5884,3.6272,3.6693,3.7109,3.7495,3.7901,3.8165,3.8202,3.8202,3.8202,3.8202,3.7607,3.6664,3.5392,3.4719,3.4414,3.4414,3.4414,3.4414,1.4986,1.5262,1.5564,1.5241,0.0,0.0,1.4992,1.5452,0.0,0.0,0.0,0.0,0.0,0.0,0.0,0.0,0.0,0.0,0.0,0.0,0.0,0.0,0.0,0.0,0.0,2.5059,2.5312,2.5312,2.5312,2.5312,2.5312,2.5312,2.5312,2.5312,2.5312,2.5312,2.5312,2.5312,2.5312,2.5312,2.5841,2.6394,2.691,2.7438,2.7978,2.851,2.851,2.851,2.851,2.851,2.851,2.851,2.851,2.851,2.851,2.851,2.851,2.851,2.851,2.851,2.851,2.851,2.8582,2.8847,2.9797,3.0158,3.0446,3.144,3.1705,3.1705,3.1705,3.1705,3.1705,3.1705,3.1705,3.1705,3.1705,3.2101,3.2494,3.2494,3.2624,3.3043,3.4134,3.4426,3.4716,3.5386,3.5507,3.5548,3.5669,3.571,3.571,3.571,3.571,3.5723,3.5844,3.6258,3.6693,3.7109,3.7495,3.7877,3.8202,3.8202,3.8202,3.8202,3.7607,3.6664,3.5392,3.4719,3.4414,3.4414,3.4414,3.4414,1.554,1.5588,1.5792,1.5792,0.0,0.0,0.0,0.0,0.0,0.0,0.0,0.0,0.0,0.0,0.0,0.0,0.0,0.0,0.0,0.0,0.0,0.0,0.0,0.0,0.0,2.4386,2.465,2.4891,2.4915,2.5035,2.53,2.5312,2.5312,2.5312,2.5312,2.5312,2.5312,2.5312,2.5312,2.5312,2.5576,2.6129,2.691,2.7174,2.7726,2.851,2.851,2.851,2.851,2.851,2.851,2.851,2.851,2.851,2.851,2.851,2.851,2.851,2.851,2.851,2.851,2.851,2.8691,2.9051,2.9845,3.0458,3.1031,3.156,3.1705,3.1705,3.1705,3.1705,3.1705,3.1705,3.1705,3.1705,3.1705,3.1969,3.232,3.2624,3.297,3.3501,3.4509,3.4964,3.5304,3.5642,3.5884,3.6058,3.6058,3.6204,3.635,3.635,3.635,3.635,3.635,3.6758,3.7084,3.7303,3.7687,3.7991,3.8202,3.8202,3.8202,3.8202,3.7607,3.6983,3.633,3.5357,3.4719,3.4414,3.4414,3.4414,0.0,0.0,0.0,0.0,0.0,1.5852,0.0,0.0,0.0,0.0,0.0,0.0,0.0,0.0,0.0,0.0,0.0,0.0,0.0,0.0,0.0,0.0,0.0,0.0,0.0,2.3493,2.3725,2.4326,2.4181,2.4398,2.5119,2.5155,2.5204,2.5312,2.5312,2.5312,2.5312,2.5312,2.5312,2.5312,2.5312,2.5841,2.6898,2.6898,2.7474,2.851,2.851,2.851,2.851,2.851,2.851,2.851,2.851,2.851,2.851,2.851,2.851,2.851,2.851,2.851,2.851,2.851,2.8931,2.9532,2.9965,3.0874,3.1705,3.1705,3.1705,3.1705,3.1705,3.1705,3.1705,3.1705,3.1705,3.1705,3.1705,3.1793,3.2057,3.2581,3.3343,3.405,3.4592,3.5263,3.571,3.571,3.6098,3.6405,3.6405,3.6772,3.6978,3.6978,3.6978,3.6978,3.6978,3.7303,3.7495,3.7625,3.7901,3.8127,3.8202,3.8202,3.8202,3.8202,3.7723,3.7418,3.7302,3.6293,3.5378,3.4588,3.4472,3.4414,0.0,0.0,0.0,0.0,1.7567,0.0,0.0,0.0,0.0,0.0,0.0,0.0,0.0,0.0,0.0,0.0,0.0,0.0,0.0,0.0,0.0,0.0,0.0,0.0,0.0,0.0,2.2787,2.3818,2.2991,2.3087,2.4496,2.4568,2.4831,2.5288,2.5312,2.5312,2.5312,2.5312,2.5312,2.5312,2.5312,2.5841,2.6898,2.6898,2.7474,2.851,2.851,2.851,2.851,2.851,2.851,2.851,2.851,2.851,2.851,2.851,2.851,2.851,2.851,2.851,2.851,2.851,2.9184,3.0013,3.0074,3.0874,3.1705,3.1705,3.1705,3.1705,3.1705,3.1705,3.1705,3.1705,3.1705,3.1705,3.1705,3.2145,3.2624,3.2667,3.3713,3.4592,3.4675,3.5263,3.571,3.571,3.6098,3.6405,3.6405,3.6772,3.6978,3.6978,3.6978,3.6978,3.6978,3.7017,3.7226,3.7586,3.7649,3.7839,3.8202,3.8202,3.8202,3.8202,3.813,3.7839,3.7302,3.7157,3.6446,3.5276,3.4675,3.4414,0.0,0.0,0.0,0.0,0.0,0.0,1.6395,0.0,1.6339,0.0,0.0,0.0,0.0,0.0,0.0,0.0,0.0,0.0,0.0,0.0,0.0,0.0,0.0,0.0,0.0,0.0,0.0,0.0,0.0,2.2294,2.3556,2.4194,2.4592,2.4843,2.5155,2.5312,2.5312,2.5312,2.5312,2.5312,2.5312,2.5841,2.6898,2.6898,2.7474,2.851,2.851,2.851,2.851,2.851,2.851,2.851,2.851,2.851,2.851,2.851,2.851,2.851,2.851,2.851,2.851,2.851,2.9232,3.0086,3.0086,3.0874,3.1705,3.1705,3.1705,3.1705,3.1705,3.1705,3.1705,3.1705,3.1705,3.1705,3.1705,3.1925,3.2232,3.2624,3.3471,3.4259,3.4634,3.5263,3.5804,3.6058,3.6457,3.685,3.7084,3.7457,3.7711,3.7711,3.7711,3.7711,3.7711,3.7711,3.7787,3.7938,3.7938,3.8014,3.8202,3.8202,3.8202,3.8202,3.8202,3.8086,3.7825,3.7476,3.7027,3.646,3.5444,3.4762,1.8368,0.0,0.0,0.0,0.0,0.0,0.0,0.0,0.0,0.0,0.0,0.0,0.0,0.0,0.0,0.0,0.0,0.0,0.0,0.0,0.0,0.0,0.0,0.0,0.0,0.0,0.0,0.0,0.0,2.1175,2.271,2.3472,2.4073,2.4506,2.4891,2.5155,2.5312,2.5312,2.5312,2.5312,2.5312,2.5841,2.6898,2.6898,2.7474,2.851,2.851,2.851,2.851,2.851,2.851,2.851,2.851,2.851,2.851,2.851,2.851,2.851,2.851,2.851,2.8534,2.8679,2.9352,3.011,3.0254,3.0983,3.1705,3.1705,3.1705,3.1705,3.1705,3.1705,3.1705,3.1705,3.1705,3.1705,3.1705,3.1837,3.2101,3.2593,3.3386,3.4134,3.4634,3.5263,3.5804,3.6152,3.664,3.7109,3.738,3.7863,3.8202,3.8202,3.8202,3.8202,3.8202,3.8202,3.8202,3.8202,3.8202,3.8202,3.8202,3.8202,3.8202,3.8202,3.8202,3.8202,3.8202,3.7767,3.7462,3.7273,3.6002,3.5145,0.0,0.0,0.0,1.8289,0.0,0.0,0.0,0.0,1.7531,0.0,0.0,0.0,0.0,0.0,0.0,0.0,0.0,0.0,0.0,0.0,0.0,0.0,0.0,0.0,0.0,0.0,0.0,0.0,0.0,0.0,2.2077,2.2246,2.2967,2.4436,2.4508,2.4748,2.53,2.5312,2.5312,2.5312,2.5312,2.5841,2.6898,2.6898,2.7474,2.851,2.851,2.851,2.851,2.851,2.851,2.851,2.851,2.851,2.851,2.851,2.851,2.851,2.851,2.851,2.8595,2.9112,2.9641,3.0182,3.0742,3.1271,3.1705,3.1705,3.1705,3.1705,3.1705,3.1705,3.1705,3.1705,3.1705,3.1705,3.1705,3.2189,3.2667,3.2711,3.3755,3.4675,3.4716,3.5263,3.5723,3.571,3.6468,3.6978,3.7017,3.7711,3.8202,3.8202,3.8202,3.8202,3.8202,3.8202,3.8202,3.8202,3.8202,3.8202,3.8202,3.8202,3.8202,3.8202,3.8202,3.8202,3.8202,3.8188,3.7883,3.7273,3.6002,3.5392,0.0,0.0,2.2432,2.0474,0.0,0.0,0.0,0.0,0.0,0.0,0.0,0.0,0.0,0.0,0.0,0.0,0.0,0.0,0.0,0.0,0.0,0.0,0.0,0.0,0.0,0.0,0.0,0.0,1.841,0.0,0.0,2.1608,2.2594,2.3472,2.4169,2.4771,2.53,2.5312,2.5312,2.5312,2.5312,2.5841,2.6898,2.6898,2.7474,2.851,2.851,2.851,2.851,2.851,2.851,2.851,2.851,2.851,2.851,2.851,2.851,2.851,2.851,2.851,2.8595,2.9124,2.9653,3.0194,3.0766,3.1284,3.1705,3.1705,3.1705,3.1705,3.1705,3.1705,3.1705,3.1705,3.1705,3.1705,3.1705,3.2232,3.284,3.33,3.4092,3.484,3.5304,3.5804,3.6258,3.6508,3.6822,3.7173,3.7749,3.8052,3.8202,3.8202,3.8202,3.8202,3.8202,3.8202,3.8202,3.8202,3.8202,3.8202,3.8202,3.8202,3.8202,3.8202,3.8202,3.8202,3.8202,3.8202,3.8101,3.7868,3.6591,3.5799,2.2722,2.3274,0.0,2.1944,2.1338,0.0,1.9008,0.0,0.0,0.0,0.0,0.0,0.0,0.0,0.0,0.0,0.0,0.0,0.0,0.0,0.0,0.0,0.0,0.0,0.0,0.0,1.6293,1.7544,1.7447,0.0,0.0,0.0,2.206,2.2987,2.3809,2.459,2.53,2.5312,2.5312,2.5312,2.5492,2.6057,2.691,2.709,2.7654,2.851,2.851,2.851,2.851,2.851,2.851,2.851,2.851,2.851,2.851,2.851,2.851,2.851,2.851,2.851,2.8631,2.9352,2.9809,3.0218,3.0983,3.144,3.1705,3.1705,3.1705,3.1705,3.1705,3.1705,3.1705,3.1705,3.1705,3.1749,3.2013,3.2581,3.3258,3.3924,3.4592,3.5168,3.5642,3.6098,3.647,3.6772,3.7031,3.7404,3.7901,3.8127,3.8202,3.8202,3.8202,3.8202,3.8202,3.8202,3.8202,3.8202,3.8202,3.8202,3.8202,3.8202,3.8202,3.8202,3.8202,3.8202,3.8202,3.8202,3.8202,3.8188,3.7143,3.6315]}]]